GFSGL_700_rhum_000.txt.gz
RH
48 38 33 27 34 46 61 79 94 100 99 98 97 93 93 95 96 93 86 77 68 52 36 23 10 6 5 6 7 8 9 12 14 22 19 20 22 26 27 51 62 43 37
30 24 25 34 45 67 78 89 98 96 98 95 91 86 78 83 75 62 41 14 6 7 9 10 8 9 11 13 14 14 13 16 18 21 25 22 22 25 26 24 46 95 81
23 25 31 38 54 89 87 99 97 94 94 93 89 84 78 63 38 16 6 6 8 9 9 9 11 16 20 24 26 27 25 24 22 23 24 28 25 23 22 22 22 21 20
27 34 38 51 88 85 93 92 94 94 88 95 95 81 49 23 8 8 9 9 11 17 21 24 26 30 31 30 31 30 28 25 22 22 22 23 25 22 20 20 18 23 22
36 41 56 89 98 97 97 95 100 99 97 93 71 43 21 12 11 10 12 21 27 30 34 37 40 44 47 48 48 38 36 29 22 18 14 17 17 23 29 24 22 18 16
43 56 93 99 99 97 97 98 98 96 93 75 42 23 13 12 10 18 31 34 35 37 40 45 57 68 72 72 73 74 73 65 56 54 52 50 44 54 60 60 46 32 30
57 90 100 99 97 96 96 94 77 73 72 48 33 16 11 10 21 32 34 35 40 43 57 70 70 72 74 75 76 80 83 85 83 81 78 76 76 78 85 86 83 66 45
80 88 95 88 88 83 73 77 97 86 59 35 16 11 10 20 29 35 36 38 42 64 72 78 79 78 81 85 85 86 86 86 89 95 90 84 80 81 86 89 89 76 60
93 95 88 93 99 98 98 95 68 49 22 16 12 12 16 25 34 36 36 43 65 77 83 81 87 86 84 86 90 89 81 82 88 92 95 97 98 93 93 94 88 87 69
97 96 98 97 95 91 78 45 26 20 15 14 13 20 29 33 33 32 47 74 81 81 82 85 87 93 94 95 96 94 88 78 86 91 92 93 93 89 92 89 89 80 78
98 97 97 94 79 44 28 22 20 18 19 18 20 36 42 36 28 41 83 90 89 85 87 83 88 93 96 97 96 89 85 88 85 88 87 89 89 90 86 91 94 91 81
92 84 62 40 26 22 22 23 26 29 30 27 37 47 48 26 39 84 97 97 94 95 94 95 94 95 97 98 98 97 95 92 89 87 86 84 84 87 91 92 92 96 96
51 39 24 23 25 27 30 35 43 42 37 44 51 52 38 23 80 98 100 96 99 98 95 97 98 98 96 97 99 97 96 99 100 96 94 93 95 100 100 99 97 98 98
29 23 24 29 39 46 49 55 57 46 49 58 57 52 25 45 94 100 98 97 96 92 96 100 96 93 93 95 98 100 100 98 93 90 93 98 97 94 95 95 94 92 95
24 25 27 40 58 59 58 65 62 64 73 62 58 41 20 72 98 97 96 95 89 91 98 99 98 99 94 94 97 98 100 100 98 97 95 95 94 93 96 97 92 96 93
27 27 31 37 48 58 71 74 76 82 74 61 57 26 31 92 97 97 97 97 94 96 100 97 98 94 94 97 97 96 97 100 99 88 83 81 86 92 96 94 91 96 97
29 33 36 38 51 72 84 82 76 75 69 63 48 21 70 97 98 97 97 97 94 98 98 95 94 95 91 90 92 92 94 95 97 97 86 89 89 88 92 98 98 98 98
36 35 32 50 67 90 93 87 83 71 64 63 32 34 94 98 98 97 97 97 96 97 97 95 95 95 91 88 86 84 84 86 84 85 94 100 93 85 97 98 98 94 91
36 31 45 71 93 99 91 87 78 72 63 52 31 88 99 98 98 97 98 98 97 96 96 96 96 96 93 93 88 86 87 86 87 91 92 95 90 86 92 92 92 98 99
32 49 70 88 93 91 86 80 78 69 61 41 58 99 100 99 98 98 98 98 97 96 96 96 96 96 97 91 92 91 85 81 82 91 97 97 94 95 92 88 89 90 88
55 69 92 94 91 84 79 87 77 74 66 51 98 97 99 99 98 98 98 98 97 97 97 96 96 97 98 98 93 87 87 86 83 81 84 91 93 94 97 97 95 94 89
68 88 90 88 88 83 92 92 82 83 72 97 98 99 99 99 98 98 98 98 98 97 97 96 96 96 97 97 96 94 92 90 89 85 86 88 86 87 88 90 92 92 92
82 85 87 87 88 91 98 96 91 88 100 98 94 99 100 99 99 99 98 98 98 98 97 96 91 80 78 76 61 58 66 73 79 84 85 86 90 89 88 89 89 91 93
80 84 84 89 91 96 97 95 93 98 100 96 76 99 100 99 99 99 99 98 98 98 98 97 76 48 28 9 2 2 4 3 3 5 13 35 71 86 93 94 93 93 93
76 84 86 88 92 97 97 95 95 98 99 94 71 94 99 99 99 99 99 99 98 98 98 91 48 26 21 27 31 30 29 29 29 30 29 28 24 13 10 37 75 88 93
76 84 87 90 92 95 97 90 92 96 100 96 84 96 100 99 100 99 99 98 99 99 97 60 42 43 40 36 32 29 26 25 26 26 26 26 25 25 26 27 28 25 22

GFSGL_700_rhum_003.txt.gz
RH
43 29 16 15 14 13 19 39 76 95 97 98 99 95 97 94 91 88 73 62 60 58 51 42 37 26 18 14 12 10 9 9 8 9 12 11 12 16 21 33 48 78 58
16 17 22 14 11 18 33 57 98 98 95 96 95 95 96 93 86 72 65 55 32 12 7 7 7 9 8 8 8 8 9 11 12 11 12 12 11 13 19 25 27 34 70
22 22 17 11 18 40 64 93 97 98 97 96 96 96 98 100 92 69 38 12 8 8 9 8 8 9 10 14 15 14 15 17 20 21 19 20 18 14 13 16 19 22 25
30 23 18 22 35 57 97 100 99 96 96 96 98 98 97 84 46 20 12 10 9 8 10 15 22 29 31 32 33 32 32 32 30 28 24 23 22 20 19 16 13 14 13
22 24 32 49 83 100 98 99 99 98 98 98 96 93 78 43 22 14 10 8 9 14 22 31 34 39 42 44 47 44 46 46 44 38 27 26 23 26 23 22 22 18 15
23 47 68 72 100 94 97 97 96 95 94 94 90 74 45 29 15 11 8 7 12 22 30 35 37 38 49 61 66 68 68 67 65 66 63 56 47 39 40 37 27 23 13
46 65 80 90 89 91 93 95 100 98 98 92 79 51 30 17 12 8 8 15 25 29 35 35 42 60 68 71 73 74 75 78 78 78 74 69 67 67 66 61 62 63 53
76 91 93 91 88 96 100 100 100 98 87 60 35 24 18 12 11 11 20 27 29 33 34 55 73 76 78 80 77 75 78 81 84 88 88 85 88 88 87 86 88 86 75
92 99 98 100 100 97 96 91 79 52 28 25 22 18 16 16 17 25 35 35 30 31 65 79 83 80 82 82 83 83 84 82 87 94 95 96 92 88 91 89 86 88 82
98 98 95 96 86 71 42 27 24 22 24 24 26 29 27 26 38 47 44 28 27 66 79 87 93 94 90 94 94 92 88 91 94 93 98 99 96 91 91 89 87 84 87
89 81 54 40 28 23 22 22 25 29 34 39 42 34 32 47 54 52 29 27 71 80 90 90 95 98 97 98 98 93 94 96 91 89 90 92 98 99 96 93 91 93 92
77 42 31 21 22 24 26 33 48 50 51 54 46 37 55 61 56 33 27 80 90 94 93 98 97 97 95 95 97 97 95 96 96 99 99 98 97 99 100 100 100 99 99
56 35 20 25 27 29 32 38 51 55 63 61 52 55 60 55 36 26 80 95 99 99 98 98 99 99 100 100 97 96 98 99 98 96 96 97 98 96 97 93 95 100 100
48 29 28 29 32 35 36 42 57 78 81 70 66 61 54 50 23 70 97 98 99 98 98 98 96 99 93 98 100 100 98 97 97 98 98 98 100 100 99 98 98 99 100
46 33 32 31 34 34 45 66 91 96 85 73 66 60 56 32 41 97 97 97 97 97 98 96 100 100 99 98 96 98 98 97 99 100 95 99 100 100 100 100 100 99 100
34 34 34 35 30 45 71 98 100 92 84 75 67 62 50 22 80 98 98 97 97 98 97 98 100 95 95 98 98 96 97 96 97 95 89 83 87 93 96 100 100 100 99
35 37 37 31 49 80 94 89 82 81 80 72 63 55 28 62 98 98 98 97 97 98 97 98 99 93 93 93 92 92 91 92 98 98 91 92 96 94 97 100 99 100 99
41 38 30 46 79 91 86 83 80 80 72 65 58 40 69 95 98 98 98 97 97 97 97 98 99 95 90 87 85 82 82 85 87 88 92 94 93 96 100 100 100 99 98
37 30 45 72 91 85 84 81 88 84 77 73 50 87 99 99 98 98 98 97 98 98 97 98 98 97 95 92 86 80 77 76 84 91 89 92 94 93 97 98 96 91 90
27 47 73 86 82 83 85 92 96 89 83 81 96 96 100 99 98 98 98 97 98 98 97 97 97 97 98 96 93 91 88 84 81 79 87 93 89 88 87 87 89 90 89
50 67 84 82 80 86 93 95 96 94 94 100 98 98 98 99 99 98 98 97 97 98 97 97 97 97 98 97 96 95 94 91 87 88 84 80 82 84 89 90 89 86 86
57 77 80 80 84 90 94 96 96 97 99 100 97 98 98 98 98 99 98 98 98 98 97 97 97 96 93 76 58 58 67 77 85 89 90 88 84 85 86 86 89 92 93
65 76 82 83 82 86 93 95 94 98 99 100 94 98 99 98 98 98 98 98 97 98 98 97 81 45 16 3 2 4 5 5 5 8 23 63 84 87 86 88 90 93 94
58 69 81 82 82 88 92 91 88 97 98 97 95 99 99 99 99 98 98 98 98 98 98 97 47 20 22 34 34 33 32 30 27 28 26 22 12 16 57 85 90 91 95
61 70 81 84 86 91 93 88 82 91 96 96 98 99 98 99 100 99 98 98 98 98 98 92 50 44 43 39 35 33 31 28 27 25 25 24 24 25 26 24 18 32 69
65 67 78 86 89 92 92 92 84 82 93 94 98 98 97 97 99 99 99 99 98 98 98 96 70 47 41 38 37 34 31 29 28 26 24 23 22 22 21 20 20 22 25

GFSGL_700_rhum_006.txt.gz
RH
49 34 32 37 38 32 22 15 11 32 67 93 97 95 97 96 98 93 92 96 95 84 67 46 25 14 10 9 8 8 8 9 10 11 10 10 11 10 9 10 13 18 32
36 45 46 38 21 13 10 9 24 63 94 89 95 97 95 96 94 90 94 96 91 69 41 15 10 10 8 8 6 6 6 7 8 6 6 6 6 6 7 7 7 9 12
65 47 28 20 16 16 15 37 70 97 94 96 96 97 95 95 96 96 95 88 53 23 14 11 9 7 7 10 14 17 21 25 25 22 16 15 14 14 14 14 10 7 7
55 30 22 18 20 36 55 67 97 100 98 98 97 97 98 98 96 89 55 32 20 14 11 8 8 9 13 24 30 32 35 37 39 40 37 33 30 25 21 18 16 14 11
22 19 18 23 48 70 86 90 91 93 98 99 96 97 96 94 87 57 34 21 16 12 10 10 11 18 28 35 37 37 37 41 48 50 47 42 37 37 35 29 21 17 13
21 27 44 64 67 91 94 96 97 96 96 97 97 96 89 61 37 27 21 15 12 11 10 10 14 22 30 33 37 57 68 68 67 68 66 63 62 63 64 63 53 36 12
32 53 80 89 86 100 99 97 95 94 94 94 87 64 38 30 25 21 19 19 19 17 15 15 25 29 33 58 72 78 80 84 85 83 78 75 75 75 76 72 69 63 52
58 64 80 95 100 99 95 91 81 59 35 28 28 28 29 30 30 32 31 27 24 21 22 31 26 52 78 82 82 81 81 83 86 92 92 85 82 85 85 86 84 79 74
72 72 83 80 73 58 30 19 21 23 25 28 32 36 38 42 44 35 28 24 27 30 34 28 80 86 90 91 90 87 87 86 95 96 96 97 98 95 94 92 87 85 78
95 86 87 63 39 16 16 23 26 28 29 40 52 52 55 55 48 46 47 45 40 35 29 85 95 98 97 100 98 95 92 93 96 96 98 98 97 100 98 96 94 90 87
96 92 68 46 22 17 25 27 30 32 35 44 49 59 66 63 62 61 56 50 36 28 83 92 97 99 100 99 100 99 98 97 97 97 98 98 97 100 98 97 99 100 98
88 73 57 42 25 28 28 32 33 33 42 51 64 70 70 71 66 57 53 34 35 86 95 97 96 100 98 98 96 97 97 98 100 97 98 97 100 99 100 99 96 93 96
78 69 58 32 31 31 33 30 30 52 66 79 79 70 63 62 59 57 32 42 91 98 98 99 98 97 98 99 99 98 100 100 100 98 98 99 100 99 98 100 98 98 96
82 71 41 33 33 35 29 38 64 83 82 74 70 67 64 62 60 34 42 96 99 98 99 98 97 97 97 98 98 99 100 98 97 97 96 97 97 97 98 98 98 98 99
71 46 34 38 38 29 39 74 86 82 75 69 75 71 62 57 37 47 95 97 98 98 98 97 97 100 100 95 90 100 100 100 98 97 98 89 82 86 96 99 99 100 96
36 32 38 38 34 43 71 83 83 76 80 85 77 68 56 46 66 98 99 98 98 98 98 97 98 100 97 92 92 94 98 100 100 99 99 93 90 83 84 96 97 98 98
34 37 35 31 44 69 81 73 69 82 91 87 80 70 68 90 94 99 98 98 98 98 98 98 98 99 96 88 83 86 92 96 98 100 100 100 98 92 87 86 91 98 100
30 25 25 44 68 80 75 76 81 84 84 86 89 91 92 94 97 99 98 98 97 97 97 98 97 97 98 93 88 84 84 92 99 100 100 100 100 97 96 92 87 84 87
19 21 47 64 76 73 74 80 88 89 94 94 96 99 99 100 98 98 98 98 97 97 98 98 97 97 97 96 92 90 90 87 86 88 99 100 100 99 100 100 100 98 96
24 42 57 70 72 72 74 88 94 92 95 95 94 96 99 100 100 99 98 98 97 97 98 98 97 98 98 97 98 99 100 96 92 87 84 86 94 91 90 89 92 94 90
36 46 55 62 70 72 78 92 90 90 93 95 97 98 97 98 97 97 98 98 98 98 98 98 98 98 97 83 50 50 57 70 83 89 91 85 81 82 84 85 85 87 90
34 39 47 61 73 75 84 90 84 86 94 96 98 100 98 98 98 97 98 98 99 98 98 98 96 72 26 8 4 6 7 8 8 11 45 81 86 84 83 84 84 87 92
33 44 54 66 71 77 82 89 86 82 93 94 99 98 98 98 98 99 99 99 99 99 98 98 81 21 17 32 35 33 32 32 30 28 28 19 16 44 80 88 89 94 96
38 51 59 66 75 80 82 86 89 80 82 96 97 96 95 97 98 99 99 99 99 99 99 98 59 40 44 41 35 32 30 28 27 27 27 26 26 25 25 21 31 72 94
40 50 65 66 76 82 84 88 91 88 76 88 97 100 93 96 98 99 99 99 99 99 99 98 88 59 46 41 37 35 32 29 28 26 25 24 22 21 21 20 21 24 24
33 37 60 67 73 81 84 87 93 94 86 79 92 99 98 95 96 98 99 99 100 100 99 99 97 70 48 44 42 42 40 38 36 35 34 31 29 28 26 25 22 19 16

GFSGL_700_rhum_009.txt.gz
RH
93 88 78 67 54 38 25 15 13 21 36 63 88 94 97 96 97 94 97 96 96 95 94 93 78 50 51 32 17 11 10 9 8 9 8 8 8 9 10 14 22 30 27
86 81 68 52 33 17 12 13 25 45 67 99 99 96 98 97 96 98 94 95 95 95 95 93 83 52 21 12 10 8 7 7 9 9 7 7 5 4 4 4 4 5 6
84 46 24 13 9 14 27 47 64 79 86 95 98 97 95 96 97 97 95 96 95 75 47 29 19 15 11 8 7 8 10 14 22 28 25 24 23 19 15 13 11 9 7
13 9 10 7 23 42 57 71 93 97 91 91 87 95 98 98 97 95 95 90 65 38 24 19 14 11 9 8 8 10 17 24 30 34 35 33 34 32 28 26 21 19 16
14 11 15 30 51 60 77 88 100 100 100 98 95 98 98 98 95 88 67 40 26 23 20 18 16 15 14 13 17 20 25 30 33 33 34 36 38 43 44 46 38 30 20
12 17 38 67 65 68 80 86 91 93 92 84 74 54 32 26 24 26 28 26 25 26 26 22 20 18 17 23 29 29 31 40 62 73 75 73 72 73 71 68 64 60 48
26 46 70 87 84 80 76 65 40 22 21 23 24 26 29 32 34 37 40 43 43 36 26 19 17 24 34 30 27 50 77 84 86 85 79 76 75 75 76 75 75 74 67
49 73 94 98 90 77 55 23 15 20 25 26 29 29 31 44 53 55 56 53 44 37 34 34 44 42 28 58 85 88 87 85 90 96 92 85 85 86 87 86 83 82 77
63 98 100 97 80 58 34 19 23 25 27 30 29 29 36 42 52 60 58 51 46 50 50 50 37 35 89 98 96 94 90 88 94 95 95 95 94 97 95 94 94 94 86
94 100 99 88 62 49 28 28 29 30 30 26 32 50 61 73 76 71 64 58 56 54 50 35 56 100 98 100 100 98 92 93 92 96 100 100 100 96 94 94 98 100 97
77 93 76 74 66 38 34 36 34 27 25 45 61 75 82 82 76 68 64 60 56 50 33 54 99 98 97 100 98 99 100 97 95 94 94 96 97 96 93 93 93 97 100
82 83 82 82 56 37 39 38 26 35 60 69 64 66 70 72 71 66 63 60 48 29 63 97 97 97 98 98 98 98 98 100 100 100 98 98 97 98 100 97 95 96 100
90 92 88 63 43 43 39 28 45 70 75 65 67 74 76 71 63 58 49 37 42 91 99 98 99 98 98 98 94 96 100 100 100 100 100 100 99 99 99 99 98 96 96
93 87 51 42 44 41 33 48 70 80 71 75 82 81 75 69 55 53 58 88 100 100 99 99 98 97 96 98 100 100 97 97 99 98 98 96 90 89 97 98 98 99 97
80 45 36 40 38 32 44 73 82 78 81 88 90 86 80 76 83 92 98 97 99 98 98 98 98 98 100 100 96 94 91 97 96 93 94 89 81 78 80 92 100 100 97
39 35 35 32 28 42 65 77 82 87 96 96 93 94 97 96 95 100 100 99 99 99 98 98 98 97 100 99 86 84 89 90 95 93 93 94 92 86 76 87 92 97 100
33 28 24 22 43 60 70 66 71 91 95 93 98 99 95 95 99 100 100 99 99 98 98 98 98 98 98 99 88 83 80 86 92 95 95 99 97 92 88 88 92 88 89
20 19 22 43 57 67 65 68 80 82 79 88 100 95 91 96 98 100 100 99 98 98 98 98 98 98 98 100 98 94 89 89 88 94 96 96 96 98 98 96 89 90 91
16 30 42 53 56 57 68 71 80 77 80 88 94 98 100 99 96 97 98 99 98 98 98 98 98 98 98 97 96 96 93 92 91 86 86 93 98 100 100 98 98 100 99
29 34 42 46 52 63 67 73 79 75 78 87 91 96 100 100 100 100 100 99 98 98 98 98 97 98 97 92 42 36 50 67 84 91 87 83 87 97 99 99 97 95 96
33 35 41 46 58 64 68 73 78 76 74 87 90 94 96 97 96 98 99 99 99 99 98 98 98 95 63 15 5 8 9 9 9 34 77 85 84 88 89 91 94 94 91
39 38 48 54 60 69 71 76 79 80 72 83 90 93 95 97 98 98 98 98 98 98 98 99 95 46 15 31 36 34 33 32 32 29 20 19 53 83 89 90 91 92 93
42 44 50 58 62 69 74 77 81 84 80 74 90 93 93 93 97 99 99 98 98 98 98 98 77 39 42 41 37 34 32 31 30 27 27 27 26 23 23 42 73 89 91
41 38 42 54 64 68 75 79 81 88 89 81 81 92 95 94 94 98 99 99 100 99 99 98 89 71 52 41 38 34 32 30 28 26 24 23 22 21 20 21 22 24 24
39 36 38 45 63 70 76 81 82 81 92 93 87 87 93 96 93 96 99 99 99 100 100 99 99 91 60 46 42 40 38 36 35 34 32 30 27 26 25 24 22 19 17
36 37 39 41 55 69 80 88 90 85 83 93 96 96 96 96 97 96 97 98 99 100 100 100 99 98 81 60 54 53 52 52 50 46 42 39 36 33 31 30 29 27 25

GFSGL_700_rhum_012.txt.gz
RH
65 76 60 38 28 24 23 19 13 17 33 54 68 84 91 91 95 97 94 96 96 94 94 94 93 91 87 85 64 60 57 32 34 40 30 24 22 22 24 22 25 32 34
47 42 48 44 27 21 14 15 42 60 72 85 86 90 95 100 97 95 96 97 97 96 95 94 93 83 65 43 27 19 16 11 10 9 9 9 8 7 6 5 4 5 5
50 40 22 13 9 10 25 53 59 74 98 97 98 100 99 97 97 97 97 97 97 97 96 90 74 52 42 29 18 14 11 9 10 13 7 8 7 6 6 8 7 7 6
12 9 7 8 20 38 66 74 71 81 99 99 99 98 96 96 96 97 96 94 92 74 53 31 23 19 16 14 13 12 12 11 12 14 9 8 13 17 19 18 17 17 16
9 7 11 24 44 66 86 85 78 70 58 42 27 26 26 25 24 24 25 26 26 25 26 27 28 26 24 22 20 18 17 15 14 23 31 18 23 28 30 31 30 36 28
8 10 20 45 69 90 93 86 66 42 19 17 22 25 25 27 27 28 28 35 41 41 40 41 39 31 24 20 18 19 20 22 24 26 29 34 46 65 73 71 67 64 61
10 17 44 65 96 97 93 63 43 23 19 24 24 25 28 28 25 32 36 38 43 48 50 47 42 38 35 31 31 31 28 33 56 77 84 85 82 83 84 82 81 77 74
16 44 68 79 100 95 73 53 27 22 24 25 27 23 23 36 46 54 57 60 59 59 59 55 55 54 49 42 33 36 70 86 92 94 92 90 91 93 92 87 88 89 87
42 73 79 78 83 76 70 36 26 29 30 22 21 40 58 66 67 63 58 57 58 58 57 55 54 50 39 41 79 93 95 90 94 94 92 94 92 98 100 99 92 94 93
47 77 84 82 82 81 49 29 33 30 20 33 56 71 68 62 66 66 66 65 62 59 58 55 46 36 65 100 100 98 91 95 95 95 99 97 97 97 98 97 99 99 99
71 94 92 88 89 65 35 35 29 22 40 57 70 65 65 72 77 75 67 62 59 57 52 38 54 94 100 100 98 99 97 98 100 99 100 100 100 100 100 100 100 100 98
100 100 99 95 72 42 36 31 25 45 63 72 70 76 84 82 79 72 59 54 48 41 47 84 99 99 98 98 100 100 100 99 100 100 100 100 100 100 100 99 98 99 98
99 99 97 72 42 37 30 26 46 66 71 73 84 86 84 88 87 83 86 93 99 99 100 99 99 99 99 99 99 99 99 98 98 100 99 100 100 100 100 100 99 98 98
99 98 78 41 36 33 26 46 70 70 73 85 88 86 90 96 96 92 95 99 100 100 99 99 99 98 98 99 100 100 100 100 100 100 99 100 91 88 88 96 100 100 98
98 81 40 35 28 24 44 64 69 71 80 87 86 92 94 94 92 98 99 98 99 99 99 99 98 98 98 100 100 100 99 98 98 96 95 89 84 77 77 89 97 100 100
78 38 31 23 22 44 63 66 61 73 79 80 86 93 96 96 98 100 100 99 99 99 99 98 98 98 98 99 100 97 97 100 97 96 95 91 86 85 78 86 92 96 100
36 22 17 25 43 54 59 63 66 78 72 72 90 92 92 96 97 100 99 98 99 98 98 98 98 98 98 99 100 99 96 91 93 97 96 91 90 90 87 87 94 95 93
20 18 32 37 39 48 60 62 69 75 71 74 85 92 96 95 96 99 100 97 97 98 98 98 98 98 98 98 100 100 96 94 92 86 88 90 90 90 92 93 94 100 100
20 30 33 34 38 53 60 64 70 73 72 69 84 89 96 96 94 94 96 99 98 98 98 98 98 98 97 91 60 51 62 78 89 86 82 82 85 86 89 91 96 97 100
29 32 34 39 44 52 63 70 74 74 75 69 77 85 86 96 98 98 98 98 98 98 98 98 98 98 94 30 8 7 8 9 24 68 85 84 80 81 86 89 92 92 95
29 36 39 43 49 54 65 74 76 76 77 75 72 80 82 84 93 96 98 98 98 98 98 97 97 81 35 31 34 33 31 30 28 18 19 68 84 83 85 84 87 90 93
23 37 40 40 46 59 63 73 75 73 78 81 76 76 82 82 86 95 96 96 99 100 99 98 83 45 41 40 36 32 29 28 27 27 26 24 20 34 66 83 88 90 93
26 36 38 36 41 57 62 70 74 73 70 79 84 81 81 85 85 92 97 97 96 99 100 99 89 66 51 42 37 33 30 28 27 25 23 23 22 21 21 20 20 26 45
27 34 38 39 40 50 62 74 80 78 73 70 81 86 86 85 89 90 95 98 98 98 99 100 99 94 76 50 40 37 34 32 30 29 26 25 24 22 21 20 19 18 17
27 32 38 40 39 43 54 60 62 60 57 56 72 85 88 90 90 92 93 96 98 98 99 100 99 98 83 58 50 47 47 46 44 42 39 36 33 31 29 28 27 25 24
26 33 37 36 34 36 39 41 46 49 50 48 48 70 88 90 94 95 96 97 98 99 100 100 100 99 98 94 82 69 61 58 56 52 48 44 40 38 37 35 34 32 31

GFSGL_700_rhum_015.txt.gz
RH
55 54 55 44 27 15 9 8 10 18 32 64 76 95 96 92 89 90 94 93 95 97 100 99 96 97 97 99 99 96 98 88 64 52 63 76 86 83 88 84 79 69 50
51 34 20 12 9 9 9 10 18 39 75 80 85 89 90 96 96 98 98 96 95 97 98 100 99 98 96 96 83 76 64 72 100 100 71 55 42 36 38 31 30 56 39
20 13 9 11 11 7 10 28 46 63 68 71 74 88 94 84 82 56 52 53 64 78 85 91 84 75 64 50 45 35 32 62 54 45 35 24 13 13 13 18 20 23 33
12 13 14 15 11 15 41 74 85 87 80 64 51 28 19 19 21 29 24 25 26 29 32 32 33 29 28 28 22 23 22 21 20 17 15 25 42 36 41 40 32 34 26
28 20 31 36 19 59 81 87 85 81 63 40 22 20 28 27 79 24 26 25 24 26 28 32 48 90 42 41 41 35 31 26 23 21 18 22 72 99 100 100 100 98 86
34 70 97 53 47 75 88 96 85 65 37 20 23 32 61 69 52 18 27 36 43 44 45 43 45 53 63 46 41 39 35 33 27 22 16 18 23 24 33 44 55 66 67
99 100 99 64 71 82 99 100 100 61 38 48 83 93 66 47 46 53 60 60 57 56 60 63 63 69 59 58 56 47 42 34 34 32 27 29 49 65 80 81 82 85 83
100 97 88 80 91 100 100 100 100 100 100 100 93 53 48 69 68 54 54 57 58 60 64 62 59 54 54 53 52 49 43 36 47 77 86 85 93 94 92 87 86 88 87
99 96 96 99 100 100 100 100 100 100 100 100 46 57 68 65 65 67 67 67 66 66 63 62 62 59 57 53 45 40 49 84 100 98 97 94 92 93 94 94 90 94 89
98 100 74 98 100 100 99 100 100 100 100 35 59 65 58 62 72 72 76 76 69 61 54 51 51 50 44 50 76 100 97 98 100 100 100 100 95 95 98 99 97 97 96
97 92 60 97 98 98 90 100 100 100 91 58 62 62 73 78 80 82 87 87 81 73 82 67 78 95 94 100 100 100 100 100 100 99 98 99 100 98 96 98 98 96 96
62 71 80 98 98 96 90 100 100 74 60 61 63 73 77 79 94 95 95 92 93 94 96 100 100 100 100 99 99 100 100 99 99 99 99 100 99 98 98 97 97 100 100
62 92 98 95 96 98 100 100 53 49 55 61 72 70 76 93 97 94 91 95 100 100 100 100 99 99 99 100 99 99 99 99 100 99 98 99 100 100 100 100 100 100 98
98 99 98 96 64 34 82 68 53 53 60 69 68 71 83 91 95 93 93 96 100 100 100 100 99 99 99 99 99 99 100 100 99 99 100 100 99 97 90 100 97 100 100
97 98 83 34 23 20 37 42 50 54 63 68 67 73 81 92 97 94 92 94 98 99 99 99 99 99 99 99 100 100 100 99 100 100 100 100 100 99 85 96 96 96 100
98 45 26 18 23 34 38 44 49 55 60 59 60 72 82 92 93 91 93 97 99 99 99 99 99 98 98 98 98 98 100 100 100 100 100 99 99 100 86 93 90 89 97
34 20 17 29 30 32 37 46 52 59 59 58 57 72 80 85 90 90 93 97 98 98 98 98 99 99 98 98 98 99 100 100 98 99 98 97 95 97 96 86 88 91 96
22 20 29 31 30 37 41 52 60 61 64 69 60 64 74 79 88 89 93 96 97 98 98 98 98 98 98 98 96 96 98 99 97 94 95 96 92 92 93 89 86 91 96
22 26 32 33 34 39 45 52 59 63 65 69 67 66 75 76 79 87 91 95 97 98 98 98 98 98 98 90 32 9 12 34 76 93 91 87 87 88 90 88 86 90 92
20 22 32 36 35 37 47 51 59 63 61 63 72 69 70 72 76 86 93 95 96 97 98 98 98 97 94 56 34 31 30 26 16 23 73 86 84 83 85 86 85 84 86
20 20 28 37 35 36 48 52 59 62 64 59 61 76 73 74 73 80 89 93 94 96 98 99 98 96 86 53 36 32 30 29 29 28 23 21 61 85 86 85 84 84 85
21 24 26 37 38 38 43 54 62 65 65 62 60 61 78 76 76 78 82 89 95 97 99 100 89 72 66 53 39 33 30 28 26 26 24 24 22 21 23 36 53 70 82
20 25 29 36 39 40 42 47 51 56 55 48 45 52 72 85 83 81 83 86 91 97 98 100 100 93 85 64 44 37 33 30 28 26 24 22 20 19 19 19 19 18 19
21 24 29 34 37 40 40 41 40 42 45 47 48 46 53 80 90 87 86 87 88 91 96 98 100 100 98 87 59 46 43 42 40 38 36 32 30 28 26 25 24 23 22
24 24 28 33 36 36 36 36 40 45 51 56 58 58 53 59 87 94 91 90 90 91 91 96 99 100 100 98 89 73 61 57 55 51 47 42 39 36 34 32 31 30 29
26 28 30 34 35 37 36 40 46 50 54 55 53 53 55 55 71 96 98 95 95 95 96 97 99 100 100 100 99 98 95 81 67 61 56 51 48 45 43 41 39 37 36

GFSGL_700_rhum_021.txt.gz
RH
65 70 70 41 42 40 32 31 34 37 32 17 15 28 53 58 60 58 53 46 34 34 48 61 52 52 66 94 97 98 97 98 93 74 77 76 76 92 95 94 97 97 95
74 73 30 40 70 75 58 45 48 52 30 18 25 55 64 65 56 37 28 22 25 34 46 46 35 27 24 26 30 37 55 58 55 57 64 68 67 68 81 92 92 95 95
38 32 52 94 95 87 79 75 69 82 38 22 34 58 64 54 40 32 36 28 33 50 62 54 44 31 30 29 32 34 32 32 47 51 38 57 45 28 32 47 59 53 70
66 76 81 91 86 83 97 88 98 94 47 39 46 57 64 37 30 29 40 43 54 57 57 57 56 58 60 61 61 58 51 45 47 40 49 42 37 33 28 23 20 20 17
62 82 83 79 88 94 85 99 80 100 67 44 56 70 62 30 48 55 54 58 62 60 58 59 61 62 64 67 70 59 57 53 49 40 37 45 41 38 35 28 23 19 18
94 88 73 78 100 96 90 98 97 96 77 98 95 79 39 44 60 63 58 58 65 69 74 69 67 69 72 73 78 77 74 69 70 66 58 49 45 44 39 36 26 24 20
88 85 68 74 94 97 81 91 85 97 89 93 98 86 38 59 80 66 62 63 66 73 76 81 79 81 79 75 72 70 73 80 84 80 71 55 52 49 43 34 32 28 24
80 37 42 56 69 74 74 89 97 94 97 100 92 40 64 80 65 65 61 64 73 84 90 92 90 90 90 76 61 57 58 64 67 67 62 53 51 46 44 47 49 63 58
28 53 63 65 57 54 56 56 91 88 100 91 34 57 62 56 59 54 62 69 84 91 93 96 95 94 98 100 99 72 55 56 62 61 56 50 52 69 94 100 97 98 88
57 75 74 63 61 66 70 64 90 86 50 20 53 46 52 53 54 56 66 80 87 88 92 96 100 100 100 100 97 89 86 85 77 83 94 96 97 95 100 100 97 92 90
75 66 58 67 74 80 91 94 86 61 19 40 43 48 52 54 51 62 75 84 85 84 91 95 100 100 100 100 100 99 98 96 97 97 98 99 100 100 100 100 100 100 99
60 56 60 71 71 74 81 85 47 21 34 44 48 53 58 54 55 68 81 84 86 93 97 99 99 100 100 100 100 100 100 99 100 99 99 100 100 100 100 98 98 100 99
52 55 64 66 70 43 21 18 20 28 35 44 49 54 53 52 57 65 81 84 92 98 99 98 100 100 100 100 100 100 100 100 100 100 100 100 99 99 99 100 100 100 100
54 59 64 71 26 15 17 22 25 32 37 46 54 51 53 54 53 60 72 82 93 99 99 100 99 99 99 99 100 100 100 100 100 100 99 99 100 100 100 100 100 97 99
56 65 72 41 14 15 22 22 23 27 33 46 50 44 51 55 54 56 68 79 86 94 98 99 99 99 99 99 99 99 99 100 100 99 100 100 100 100 100 96 98 90 91
61 73 68 17 16 21 24 24 24 31 39 44 46 44 42 49 56 54 66 82 89 95 98 98 99 99 98 99 99 100 100 100 100 98 97 98 100 100 100 96 95 90 85
67 75 44 15 18 21 25 20 20 31 38 39 46 42 38 35 51 60 69 76 83 88 95 98 99 99 100 99 97 78 62 100 99 99 100 100 100 98 100 98 98 100 98
73 75 25 15 16 18 26 24 23 27 28 35 37 37 36 35 45 71 69 70 80 87 92 95 97 99 100 97 91 52 33 27 59 99 100 100 100 97 98 98 100 99 100
80 68 19 16 19 19 27 30 28 30 30 32 34 38 41 44 45 64 76 69 70 79 89 96 98 100 100 97 87 56 38 37 35 28 63 100 99 97 95 95 97 96 96
86 51 18 18 20 22 27 32 32 32 30 32 34 41 46 51 51 49 67 75 74 75 84 93 98 97 97 98 98 65 38 35 34 32 31 30 69 99 95 92 90 89 92
77 32 18 18 20 24 28 32 34 32 30 33 36 39 43 48 52 50 49 78 82 81 80 88 96 99 98 97 97 93 67 36 32 29 28 27 27 28 28 49 70 78 80
54 28 21 21 21 23 28 32 34 31 32 36 38 41 43 42 40 43 45 63 87 86 85 85 91 97 99 100 100 97 78 48 41 37 34 29 25 23 22 20 21 20 20
50 33 29 23 24 24 26 31 33 31 34 40 42 45 45 42 37 37 40 48 76 92 89 89 92 94 98 98 100 100 97 80 62 55 50 46 40 36 33 30 28 27 25
65 46 36 30 25 27 28 31 32 32 35 43 46 48 48 45 41 37 36 40 51 85 94 91 91 94 98 100 100 100 100 100 98 87 69 58 53 48 44 40 39 37 36
75 61 42 31 24 27 29 32 34 34 36 42 48 53 56 50 50 50 45 40 40 50 85 96 95 93 97 99 100 100 100 100 100 100 99 91 68 59 55 51 49 47 45
87 84 67 37 28 26 29 34 37 37 39 44 52 60 62 60 57 59 58 56 46 42 53 83 96 98 98 97 99 100 100 100 100 100 100 99 93 77 65 57 53 50 48

GFSGL_700_rhum_024.txt.gz
RH
40 41 48 38 22 18 15 20 58 81 78 82 95 92 32 30 40 44 36 24 29 24 24 24 32 47 51 47 33 24 33 57 90 86 95 72 67 69 84 94 93 95 97
26 23 24 26 20 28 50 66 61 59 77 93 91 90 59 54 58 56 22 12 16 18 27 35 34 35 31 29 26 22 22 22 25 22 23 26 26 29 52 78 95 85 88
17 18 24 31 56 92 89 87 76 91 100 97 96 92 72 71 75 54 18 16 24 34 40 44 47 46 45 50 53 48 47 44 39 33 28 26 22 25 25 37 56 62 84
14 21 45 73 96 97 90 77 92 98 96 97 98 87 94 99 82 49 18 24 35 44 47 52 56 60 61 60 60 57 53 49 48 47 43 42 37 27 34 33 28 29 30
52 72 97 98 96 73 59 90 91 82 80 82 97 87 97 99 69 30 20 32 40 47 54 56 60 65 68 70 70 69 70 66 63 58 52 55 55 50 44 42 35 27 26
86 88 83 72 35 24 35 43 46 52 59 83 97 99 98 88 33 22 33 40 42 47 56 70 80 85 86 84 83 83 81 77 74 71 71 67 57 53 63 53 41 35 26
58 48 44 24 24 35 44 48 54 57 62 97 100 98 74 37 26 34 42 44 47 61 72 81 87 88 90 92 90 90 84 77 76 75 72 70 68 60 56 56 50 38 29
22 20 22 35 30 40 54 55 56 76 86 82 89 50 46 32 38 43 42 45 58 69 82 86 82 81 87 92 95 98 100 87 66 61 60 64 63 60 57 51 46 42 35
17 24 38 35 36 48 62 66 69 78 80 52 33 38 33 39 41 40 40 49 61 74 76 81 88 92 95 95 97 100 92 100 92 64 58 60 59 57 55 51 44 44 36
30 33 39 35 44 61 65 72 75 82 50 29 29 30 37 39 42 45 43 50 65 72 79 88 97 97 98 100 100 99 97 100 100 95 83 71 63 59 70 79 86 92 96
39 47 47 40 53 65 65 72 73 28 20 25 26 35 43 46 49 48 46 54 67 74 84 88 96 98 99 100 100 100 100 100 100 99 98 98 98 97 96 98 99 96 98
49 50 43 50 65 67 52 14 13 19 25 23 31 43 48 42 48 47 48 61 72 79 90 95 96 97 98 100 100 100 100 100 100 100 100 100 100 100 100 99 98 97 97
53 56 54 61 68 59 19 14 19 22 23 26 34 45 42 35 38 47 55 63 77 85 95 97 98 98 99 100 100 100 100 100 100 100 100 100 100 100 100 100 100 99 100
53 61 56 65 69 29 15 17 22 22 23 29 35 41 42 36 33 40 49 55 76 86 93 98 98 98 98 98 99 100 100 100 100 100 100 100 100 100 100 100 100 100 100
56 59 64 69 66 19 17 22 24 22 22 28 32 40 38 35 31 35 46 52 65 80 88 98 100 99 99 99 99 100 100 100 100 100 100 100 100 100 100 97 100 100 100
56 65 73 77 51 17 18 24 28 24 24 28 32 35 32 32 33 35 45 57 63 74 84 93 100 98 98 99 98 55 67 100 100 100 100 100 100 98 99 100 100 97 93
58 70 78 78 32 17 18 19 30 30 28 28 31 32 33 36 38 40 43 60 63 67 82 91 98 99 98 97 93 73 37 30 92 100 100 100 99 100 100 100 100 96 91
57 73 81 66 23 19 19 19 25 25 27 32 31 32 35 38 39 44 46 59 72 72 74 86 97 99 99 100 93 62 46 38 36 39 98 100 100 100 100 100 100 97 88
66 80 84 50 19 19 20 23 26 29 30 28 30 33 37 39 38 42 47 49 65 71 75 80 90 98 97 99 99 88 45 36 35 35 34 67 100 100 100 100 100 100 96
78 85 77 37 20 21 21 24 28 31 33 30 32 36 39 40 38 37 40 44 53 72 77 81 84 92 98 97 98 99 97 49 34 31 31 31 32 66 100 100 100 100 100
83 83 58 30 23 22 22 24 29 31 33 31 34 38 41 43 40 36 34 35 38 63 82 83 86 88 94 98 97 98 98 94 61 40 33 28 25 24 26 27 38 64 79
88 77 58 40 33 27 26 26 27 31 34 32 37 40 44 47 43 40 34 32 34 44 75 86 86 88 91 97 98 97 99 100 92 75 53 45 38 32 27 24 22 21 20
84 78 72 56 43 34 27 28 29 32 34 33 37 43 48 52 48 46 47 40 34 36 46 77 88 89 88 90 94 97 99 99 100 99 85 69 54 46 40 36 33 30 29
87 80 78 73 56 38 27 28 30 32 35 34 36 42 50 56 56 51 54 53 47 38 37 41 70 90 92 90 92 93 96 98 98 99 100 99 83 63 53 49 45 42 40
97 96 96 95 89 58 33 26 28 33 36 36 37 42 52 59 65 62 60 62 60 55 48 38 40 64 93 94 94 94 95 97 99 99 100 100 100 97 79 62 56 52 50
93 96 100 100 99 97 74 35 29 32 36 39 41 47 56 64 69 74 74 71 70 70 68 60 44 42 61 90 97 97 97 97 99 100 100 100 100 100 100 93 75 63 56

GFSGL_700_rhum_027.txt.gz
RH
51 36 20 13 12 18 36 61 70 86 94 88 70 82 97 99 96 85 70 63 62 29 17 19 22 29 30 32 36 37 36 39 33 21 20 32 50 90 80 77 71 63 70
39 17 12 13 20 38 63 85 99 94 72 69 99 97 97 98 93 94 92 83 66 26 38 36 37 39 38 41 43 44 46 49 51 43 32 22 18 18 19 30 50 34 46
13 10 10 16 41 85 94 86 63 34 26 39 55 67 66 93 98 99 96 87 37 46 48 40 37 38 40 44 48 49 51 56 60 58 50 44 39 36 30 28 21 16 18
10 11 20 66 85 72 50 25 20 26 39 46 52 56 59 98 95 98 94 61 33 45 45 44 43 46 52 57 61 66 68 68 66 66 67 63 53 45 38 39 31 24 22
12 23 64 55 31 18 16 19 26 41 45 42 50 92 94 100 100 98 56 34 46 47 45 44 54 63 71 76 78 78 80 81 82 79 73 74 71 63 55 52 44 33 24
19 20 14 12 14 15 17 22 33 46 42 46 82 95 84 96 66 32 39 44 44 42 40 48 63 72 73 76 82 83 84 89 91 89 82 77 77 77 70 64 56 45 31
12 11 12 14 14 18 22 26 42 52 55 59 75 67 31 24 31 36 43 45 43 41 47 60 68 71 76 82 88 90 87 93 98 99 87 76 72 73 75 66 64 56 42
10 11 12 15 17 20 27 34 49 57 71 80 74 24 21 27 32 37 41 35 40 44 55 67 70 79 91 94 94 97 99 98 100 100 100 82 61 59 60 65 61 54 43
9 11 16 20 24 34 34 48 57 64 76 68 21 21 24 30 33 36 29 30 39 46 65 76 84 86 91 94 95 95 98 100 100 98 96 89 66 59 63 62 58 54 43
12 18 23 30 38 39 41 58 65 55 44 20 22 21 23 28 33 31 28 29 37 47 72 83 88 91 96 99 99 100 97 100 100 100 100 95 77 64 62 58 60 56 53
18 31 33 37 42 47 54 67 43 16 17 20 20 21 27 32 33 31 29 27 35 52 73 84 91 93 98 99 100 100 100 100 100 100 100 100 100 97 94 95 96 94 92
25 29 38 41 48 53 66 64 22 15 20 20 20 24 31 31 32 33 30 31 46 53 74 84 93 92 97 99 100 100 100 100 100 100 100 100 100 100 100 100 100 100 100
23 31 41 50 57 62 74 49 16 18 24 21 22 30 32 30 32 30 30 34 47 54 72 84 93 94 94 98 99 99 100 100 100 100 100 100 100 100 100 100 100 99 100
23 35 44 54 66 75 79 34 18 24 26 23 24 30 30 30 30 32 34 32 41 52 64 82 91 93 94 97 99 99 99 100 100 100 100 100 100 100 100 100 100 100 100
27 45 54 59 78 85 76 24 19 26 29 26 27 30 28 30 31 34 35 36 36 50 60 76 94 99 98 98 99 92 84 100 100 100 100 100 100 100 100 100 100 100 100
28 47 58 63 83 90 57 20 20 22 30 30 29 30 29 30 33 33 36 39 40 51 62 68 90 98 100 98 98 98 50 44 98 99 99 99 100 100 100 100 100 100 100
33 51 66 71 85 85 40 19 22 26 33 35 31 31 30 32 34 34 33 36 41 48 69 70 79 95 99 100 97 90 91 43 38 59 100 100 100 100 100 100 100 100 100
38 54 73 83 88 76 27 21 22 24 32 42 37 34 32 34 37 35 31 32 39 47 66 72 75 84 95 99 100 99 88 48 36 36 38 94 100 100 98 98 100 100 100
45 57 80 89 90 59 25 21 22 24 28 35 38 34 34 35 39 37 33 29 31 35 54 72 76 79 88 94 96 97 97 94 45 32 32 33 56 100 100 97 97 100 100
54 62 84 93 73 43 28 24 24 24 28 33 37 34 36 37 41 40 37 34 28 30 33 60 76 78 82 88 95 96 99 99 96 67 37 29 28 30 55 98 100 100 98
62 71 84 88 67 47 38 34 26 24 26 32 36 34 37 40 42 44 41 40 37 30 30 33 62 80 80 85 90 93 95 96 99 98 92 51 40 29 24 24 26 33 62
68 78 84 83 77 68 55 42 31 26 28 30 36 36 37 42 44 49 47 45 44 40 35 31 32 51 75 83 88 91 94 96 97 97 97 96 81 49 40 33 28 26 23
73 82 88 86 80 82 78 57 34 26 29 31 35 36 38 43 46 52 54 52 50 48 45 45 37 32 36 66 83 86 89 93 96 98 100 100 99 96 70 48 41 37 35
72 82 90 95 96 97 97 94 56 30 28 31 36 38 38 41 47 55 61 62 61 59 57 54 55 52 36 34 55 84 86 88 91 95 98 99 100 100 98 90 60 50 46
62 75 90 95 96 98 99 99 99 84 41 31 35 40 43 44 51 60 67 71 73 74 72 71 70 69 66 46 37 52 84 88 90 92 95 99 100 100 100 100 98 79 60
60 66 86 98 99 99 98 96 98 98 98 57 36 39 45 50 53 63 72 78 84 88 89 87 85 82 81 75 47 40 62 88 93 95 95 98 100 100 100 100 100 100 88

GFSGL_700_rhum_030.txt.gz
RH
55 48 32 14 11 13 19 36 63 76 66 26 19 22 32 48 61 62 61 93 93 96 85 78 30 27 33 41 45 44 45 53 48 38 37 35 29 25 20 18 41 87 77
46 27 13 12 15 27 39 36 34 14 11 12 17 32 41 56 52 59 100 98 100 100 94 43 32 38 35 37 40 45 53 59 60 57 50 44 46 47 37 30 26 18 42
25 14 14 18 21 15 10 8 9 10 12 18 36 35 36 58 71 95 100 99 96 95 38 34 37 36 35 46 54 61 71 75 77 79 68 65 56 58 57 49 40 33 22
16 14 12 11 9 7 7 8 11 12 17 27 41 32 37 61 64 78 83 85 52 30 41 44 40 39 46 57 68 70 71 74 77 81 80 77 77 74 74 66 56 45 34
13 11 10 8 7 6 8 9 12 18 22 39 44 43 60 75 65 49 29 26 34 41 42 39 35 43 59 70 73 77 82 84 85 84 84 90 87 88 86 86 78 64 49
12 10 8 7 7 8 10 12 20 26 32 45 53 63 66 57 18 18 22 29 36 35 33 30 36 56 69 80 88 96 99 99 100 99 97 96 96 95 94 90 88 76 61
11 8 7 7 8 11 15 21 30 31 43 52 64 75 78 23 17 19 24 32 29 26 24 29 45 67 78 83 89 94 96 100 100 100 100 100 100 100 95 80 81 78 67
9 7 7 8 11 19 26 34 36 38 54 58 67 51 17 17 17 21 25 25 24 24 27 34 56 75 86 88 88 89 96 100 100 100 100 100 99 100 96 74 68 66 64
8 8 8 11 18 28 33 38 42 52 59 26 18 17 20 18 21 24 24 26 26 26 31 45 64 81 90 93 93 95 98 100 100 100 100 100 99 98 95 78 66 68 62
8 9 11 15 21 26 35 43 48 64 48 19 17 21 18 20 23 24 26 26 26 27 36 49 71 85 94 99 99 98 97 100 100 100 100 100 100 100 97 76 73 66 62
11 13 15 16 22 29 39 52 62 74 34 18 22 24 20 22 24 26 27 27 29 30 37 47 69 86 95 96 99 100 100 98 100 100 100 100 100 100 100 100 97 84 75
15 18 19 19 26 39 48 60 75 76 26 20 27 25 23 24 24 27 28 30 34 36 39 48 65 83 93 93 94 98 100 100 100 100 99 100 100 100 100 100 100 100 100
19 21 24 24 30 48 52 69 84 68 22 24 31 28 26 27 28 28 30 32 38 39 40 49 61 84 94 94 93 97 99 100 100 99 99 99 100 100 100 100 100 100 100
20 22 26 30 33 54 56 74 86 50 21 24 34 33 28 28 30 29 32 32 33 39 40 51 57 75 89 95 100 96 72 91 99 100 100 100 100 100 100 100 100 100 100
24 26 28 35 38 62 68 82 82 33 21 23 33 36 30 31 30 29 33 31 30 35 38 50 63 74 93 100 100 100 88 41 90 100 100 100 100 100 100 100 100 100 100
29 29 36 41 46 69 83 91 72 26 21 24 29 38 33 31 30 30 35 31 28 29 35 44 64 68 81 92 100 100 98 84 39 65 99 100 100 100 99 100 100 100 100
37 41 47 48 54 76 92 94 54 24 22 24 29 40 36 31 31 32 36 32 29 26 30 37 60 68 73 84 92 97 100 87 63 35 40 97 99 98 100 98 97 99 100
42 49 53 57 63 83 94 71 34 22 24 30 31 39 38 33 31 33 38 34 32 28 27 30 48 65 71 76 84 92 98 100 91 41 31 34 68 100 100 100 98 93 97
48 56 61 63 72 89 85 55 35 30 25 26 32 40 40 36 33 35 40 38 35 34 29 28 30 48 68 73 78 82 88 91 97 99 63 36 29 33 88 100 98 94 91
53 59 63 68 78 92 83 70 52 42 34 28 29 36 40 37 34 37 41 43 39 38 36 33 29 28 42 66 72 78 84 90 92 95 99 90 48 34 26 30 68 97 96
55 58 65 72 82 91 86 80 72 57 41 30 30 34 36 39 37 38 41 48 47 44 39 40 40 36 31 34 55 72 75 81 87 90 92 97 100 68 43 34 25 24 26
60 60 64 72 81 92 92 91 92 90 68 34 31 33 35 38 37 40 41 50 53 53 51 46 48 49 48 40 32 41 70 78 80 83 87 89 95 98 94 55 42 34 30
70 66 64 68 80 91 97 100 99 99 96 72 32 32 36 39 39 39 42 50 58 61 64 63 59 60 60 58 54 36 34 63 80 82 85 89 91 95 98 99 82 50 43
76 74 67 63 72 91 100 100 100 100 100 100 97 53 34 38 42 42 45 51 60 67 73 76 76 75 76 72 67 62 41 36 60 82 84 87 92 94 96 98 100 98 76
78 74 66 64 68 85 100 100 100 100 100 99 99 100 87 41 41 47 48 52 62 73 83 89 90 88 86 83 78 72 63 40 41 68 87 88 91 96 97 98 99 100 100
87 78 68 63 63 71 89 100 100 100 100 99 99 98 99 91 51 46 50 55 62 77 97 98 99 96 92 89 86 78 73 54 40 54 85 92 92 95 98 99 99 100 100

GFSGL_700_rhum_033.txt.gz
RH
95 74 56 47 24 15 12 10 8 6 6 6 8 10 15 28 33 52 52 58 72 93 99 95 91 84 34 37 39 38 36 40 47 42 52 55 50 47 46 40 35 22 18
76 67 54 26 15 12 10 7 6 6 6 8 10 14 22 37 30 39 55 47 59 94 99 69 43 31 35 35 35 38 47 57 67 59 55 58 63 61 59 56 47 41 32
63 51 27 14 12 10 8 6 6 6 8 10 15 20 34 42 39 40 63 57 66 53 28 27 32 32 30 34 37 48 64 68 72 74 64 68 68 67 70 74 63 54 46
55 28 14 12 11 9 7 6 7 9 11 14 22 33 46 52 58 73 50 19 20 23 30 33 28 29 32 36 53 65 72 77 85 92 85 85 82 75 78 83 79 72 62
37 15 12 12 10 8 7 7 10 14 16 25 29 44 52 67 75 62 21 19 21 26 26 24 23 26 34 54 69 78 82 86 89 92 93 91 92 88 93 96 92 83 73
16 13 13 12 9 8 8 10 13 18 24 29 38 50 58 76 70 21 17 20 23 23 24 24 23 26 40 66 82 84 88 92 94 96 96 98 99 100 100 100 100 96 88
13 14 13 11 9 8 9 10 15 23 32 35 50 47 30 24 20 18 18 22 24 25 24 24 23 29 48 69 86 89 96 100 100 100 100 100 100 100 100 100 100 100 92
14 14 13 10 9 10 12 14 21 28 36 41 56 34 16 18 20 18 21 22 25 25 25 26 24 34 56 74 86 89 98 100 100 100 100 100 100 100 100 100 100 100 80
15 14 12 10 11 14 16 18 28 35 43 52 61 25 16 22 20 20 21 24 25 26 28 30 32 41 58 78 88 92 98 100 100 100 100 100 100 100 100 100 100 100 89
16 14 12 12 15 17 20 20 32 42 53 68 62 22 21 25 20 22 23 24 26 27 27 32 38 47 64 85 91 90 95 97 97 99 100 100 100 100 100 100 100 80 81
16 13 13 16 19 20 23 25 37 47 62 78 51 22 26 25 23 25 25 25 29 28 28 34 40 49 71 88 92 91 98 97 98 99 98 98 99 100 100 100 100 100 94
15 14 16 20 23 22 27 32 44 52 69 79 38 21 28 27 24 25 26 28 31 29 29 36 42 52 70 88 91 93 87 97 100 99 99 99 100 100 100 100 100 100 100
14 14 19 23 26 26 35 38 52 62 78 72 28 21 28 30 27 26 28 32 33 29 29 35 41 57 67 86 92 93 93 64 99 99 100 99 100 100 100 100 100 100 100
14 18 23 27 30 34 41 43 62 75 85 56 24 21 26 33 29 28 30 34 34 28 27 32 39 58 65 79 92 96 96 75 48 98 99 99 99 100 100 100 100 100 98
18 24 30 34 38 44 46 50 68 83 82 42 22 23 26 35 32 31 31 36 33 30 26 28 37 62 71 80 92 97 98 95 59 42 98 100 100 100 100 100 100 99 100
28 30 33 38 42 49 52 60 82 84 67 32 22 23 27 33 36 33 33 38 35 32 28 25 29 51 67 72 81 91 97 100 86 42 39 94 100 100 100 100 100 100 100
29 33 38 41 48 56 59 67 83 76 48 30 24 24 26 34 38 34 35 38 38 34 30 27 26 32 56 68 73 78 86 93 98 81 34 33 65 100 100 100 100 100 98
33 36 42 46 52 58 63 74 83 71 52 38 32 26 28 32 37 37 36 39 42 37 32 30 29 27 30 50 67 72 78 86 92 98 95 48 31 32 97 100 99 100 100
38 38 48 50 54 60 67 78 86 77 66 54 42 33 29 32 37 39 37 39 44 43 37 33 35 36 32 28 36 59 68 72 80 87 94 99 72 39 28 43 96 100 100
48 46 57 55 56 60 68 80 90 84 82 80 64 36 30 31 38 40 38 40 44 48 45 40 39 42 44 42 34 29 44 66 70 76 84 91 97 94 50 35 26 30 86
53 52 58 66 66 63 66 78 94 93 96 96 91 65 32 30 36 42 40 39 44 51 53 53 50 48 51 52 50 46 32 32 55 68 73 82 89 96 96 75 42 33 25
45 58 68 71 74 70 68 75 93 97 99 97 97 95 74 32 32 38 42 40 43 50 57 61 62 63 62 63 61 57 55 39 30 46 66 71 78 86 93 96 95 53 40
55 61 76 77 76 69 67 75 90 99 100 100 98 97 97 95 62 35 40 44 43 47 57 65 70 73 75 76 72 68 63 60 43 31 45 68 74 79 87 93 96 98 79
68 68 84 86 82 71 68 75 91 100 100 100 100 100 100 100 98 90 44 43 46 47 55 66 76 85 88 86 83 80 73 65 60 42 33 50 74 78 83 90 95 97 99
89 79 85 92 89 76 68 68 75 90 100 100 100 100 100 100 98 100 97 56 44 51 55 64 80 94 98 97 91 85 81 73 67 56 38 40 67 83 85 90 94 98 99
78 84 91 98 95 89 77 64 59 57 60 76 99 100 100 100 100 99 100 99 84 54 58 64 73 92 100 100 99 97 90 82 73 67 45 41 58 84 90 91 94 98 100

GFSGL_700_rhum_036.txt.gz
RH
97 98 97 80 54 37 19 13 11 9 7 6 6 6 8 10 17 30 42 63 53 56 54 57 58 71 41 42 75 91 100 100 100 31 98 98 83 70 71 69 51 57 88
99 97 72 58 39 20 13 12 10 9 7 6 7 8 10 16 25 39 45 43 55 64 29 21 20 22 26 30 49 86 76 58 66 58 60 66 67 65 71 65 56 57 84
97 76 66 48 22 14 13 13 11 8 7 8 9 12 15 22 38 47 58 70 73 20 16 18 22 24 22 24 26 30 41 60 71 77 69 76 76 78 79 90 75 64 92
82 82 62 28 15 14 15 13 10 8 9 10 11 15 21 34 47 60 80 76 29 17 19 22 23 24 24 24 28 39 60 74 82 85 81 83 87 96 100 100 100 100 98
90 78 39 18 15 16 15 12 10 10 10 11 14 21 29 45 39 45 46 20 18 19 21 23 24 23 25 25 35 52 74 86 90 92 92 93 100 100 100 100 100 100 100
90 53 23 15 16 16 14 11 11 11 12 14 22 32 42 49 28 16 21 20 20 21 22 23 24 24 25 28 40 66 83 94 96 100 100 100 100 100 100 100 99 100 100
62 24 16 16 17 15 12 12 12 14 15 19 31 41 55 53 20 18 21 20 22 22 23 25 25 26 27 31 46 72 91 98 100 100 98 100 100 100 100 100 100 100 100
30 16 17 18 16 14 12 13 14 17 20 25 36 47 66 53 19 21 22 22 22 23 25 26 26 28 31 38 57 83 95 95 100 100 100 100 100 97 100 100 99 100 100
17 20 19 18 16 13 13 15 19 21 26 33 42 56 73 42 20 24 22 23 23 24 27 26 25 31 35 47 69 87 89 92 99 100 97 94 96 99 100 100 97 100 100
42 21 18 17 14 12 15 20 24 26 32 38 51 67 70 29 21 27 24 23 23 27 28 24 24 30 41 56 78 89 89 83 93 96 95 91 92 100 100 100 100 100 100
26 20 17 13 11 14 20 24 26 32 37 47 58 73 63 24 25 29 25 26 25 29 27 24 26 34 48 61 82 92 93 86 84 96 95 94 98 98 99 100 100 100 100
20 15 9 9 13 18 26 31 34 40 41 52 64 77 48 21 24 30 28 27 28 31 27 24 25 33 51 63 79 90 93 94 72 98 99 98 98 99 100 100 100 100 100
11 8 9 13 20 26 30 34 41 46 46 60 76 74 35 21 23 30 30 29 30 32 28 25 24 31 49 60 68 84 90 94 80 67 100 100 99 100 100 100 100 100 100
8 9 13 21 24 31 34 37 47 50 52 70 79 56 26 22 24 34 32 30 32 34 29 26 24 28 41 57 66 77 87 93 92 52 76 100 100 100 99 99 100 96 97
11 13 21 27 29 34 36 43 53 53 60 76 72 43 25 22 25 34 36 33 34 36 31 27 24 24 35 56 66 73 81 90 96 91 40 74 100 100 100 99 99 100 100
15 22 30 34 33 39 42 45 51 56 69 74 63 43 32 24 25 31 38 35 34 39 34 28 27 26 25 35 54 65 73 83 91 98 83 37 56 100 100 100 99 99 100
24 31 38 40 37 42 45 48 55 59 65 75 66 56 44 32 24 29 38 37 35 40 39 32 29 32 31 27 31 47 62 72 81 86 96 88 38 35 99 100 98 100 99
34 42 43 44 44 48 55 54 57 63 73 77 70 65 56 41 30 28 37 39 36 39 44 39 32 33 38 38 33 29 36 58 68 77 84 93 97 52 30 81 100 99 98
44 50 51 44 42 53 64 63 60 64 73 82 80 80 78 65 34 29 31 37 39 40 44 46 42 37 40 44 44 41 32 29 45 63 72 81 88 97 74 36 32 90 99
53 55 57 50 49 56 65 72 70 67 72 84 86 90 91 82 56 30 31 35 41 41 45 50 51 50 47 49 52 50 46 40 30 34 56 68 78 85 96 94 47 30 32
64 73 75 61 54 61 70 74 74 71 77 90 93 93 94 90 87 50 30 31 39 42 44 49 55 58 59 59 59 59 56 51 46 33 32 52 66 74 81 92 99 64 38
68 82 92 84 70 66 76 80 77 71 79 93 98 99 98 96 94 92 83 39 36 41 43 46 54 61 66 68 70 68 65 62 54 48 36 32 47 66 73 81 90 98 83
40 69 91 95 92 87 82 91 82 72 78 90 98 100 100 98 98 97 98 98 68 40 42 45 51 62 69 77 82 81 76 70 64 55 49 36 32 49 69 75 82 90 96
37 74 90 84 69 82 91 98 92 78 75 81 92 99 100 100 100 99 99 100 100 91 48 46 51 59 70 82 94 93 88 78 72 63 57 48 35 35 57 75 80 86 93
48 70 76 86 93 98 100 100 97 90 77 65 63 68 86 100 100 100 100 100 100 100 100 76 53 58 67 79 97 99 96 93 84 75 64 59 43 36 44 70 80 84 90
71 98 100 95 98 100 100 100 99 94 73 49 42 43 49 58 81 100 100 100 100 100 100 99 96 71 68 75 92 100 99 96 95 89 77 67 54 39 42 63 83 87 90

GFSGL_700_rhum_039.txt.gz
RH
93 97 100 99 88 68 63 41 22 16 15 14 12 9 7 7 8 10 13 31 52 54 52 84 68 48 51 97 100 100 100 100 95 73 62 68 78 69 72 72 71 74 56
98 100 99 88 75 69 51 27 16 16 15 14 11 8 8 8 10 13 19 36 45 59 68 76 86 78 49 41 42 56 38 65 88 78 30 55 67 69 68 65 69 99 85
96 100 93 82 80 63 33 17 16 16 16 13 10 8 9 10 13 21 32 39 47 77 87 57 16 18 19 22 22 22 24 27 33 44 54 73 76 77 73 72 87 100 100
100 98 93 89 80 38 19 16 17 17 15 12 10 9 11 14 20 29 43 34 34 42 20 16 20 20 22 22 23 24 27 31 45 67 78 83 88 90 100 100 100 99 100
99 99 95 92 43 24 18 18 18 16 13 11 10 13 16 20 23 46 46 23 18 19 18 21 22 22 23 22 23 26 31 40 61 81 89 92 99 100 100 99 97 98 94
100 96 98 60 27 22 20 19 17 15 12 12 15 19 21 29 29 58 45 19 21 20 20 22 23 25 24 22 22 26 38 60 80 93 97 98 98 100 100 97 97 97 92
97 99 81 39 27 43 21 18 15 12 12 14 17 23 28 39 40 64 39 20 23 21 22 22 24 26 23 23 28 33 47 77 87 86 90 99 100 100 98 93 95 100 97
99 92 37 50 67 23 19 15 9 11 14 19 21 27 34 47 48 65 29 22 24 22 22 23 26 24 22 26 30 36 59 81 83 82 92 96 95 94 93 96 99 95 93
96 58 78 73 41 19 13 8 10 14 19 24 26 34 45 61 59 62 24 27 24 23 25 28 25 23 23 30 36 48 69 84 86 78 88 88 87 87 91 98 100 99 96
83 94 73 46 20 10 8 11 17 21 23 26 30 41 53 71 73 50 24 28 25 24 25 30 24 21 22 30 43 55 71 84 88 77 86 88 86 88 100 100 100 100 100
95 87 66 23 8 8 11 18 22 22 25 29 36 46 62 75 76 42 22 29 28 25 28 30 25 21 23 34 49 59 74 84 88 79 78 89 90 88 92 99 100 98 94
78 65 39 15 9 11 16 20 21 27 33 38 43 48 69 80 62 26 22 30 31 27 29 30 24 21 22 30 49 61 72 86 89 87 64 90 92 90 93 98 100 100 100
78 42 24 10 11 16 22 24 26 36 39 47 53 59 78 74 43 23 22 30 32 30 30 32 25 22 21 26 37 56 67 77 89 92 66 65 94 94 95 96 100 96 100
44 24 15 12 14 22 31 31 30 38 42 50 55 66 78 60 34 25 21 26 34 32 30 33 26 23 23 21 24 41 59 70 81 90 90 51 67 96 95 96 98 93 97
36 27 16 16 21 32 36 38 41 44 48 54 59 65 71 57 40 33 25 26 33 32 30 35 30 25 26 26 24 30 49 63 74 82 93 93 43 66 97 97 97 98 100
26 20 20 21 32 38 41 40 41 48 52 57 65 73 72 60 47 41 29 27 34 38 34 36 36 28 28 31 30 27 29 46 61 70 81 92 95 40 66 97 96 97 96
24 24 26 30 33 45 47 42 39 49 55 56 65 76 75 68 63 54 38 29 30 37 36 35 40 36 30 33 36 34 32 28 39 54 65 77 89 97 40 60 97 95 95
27 30 32 34 49 55 54 48 51 56 66 67 64 69 78 78 79 77 57 33 29 36 40 36 40 44 39 36 40 42 40 38 30 30 47 62 74 84 96 54 36 96 95
35 36 41 52 60 64 70 62 54 61 66 71 73 75 81 84 83 85 78 46 30 34 42 40 39 45 48 46 45 48 48 45 43 35 30 38 57 70 81 94 70 30 64
50 48 46 44 44 54 79 85 70 67 73 75 73 77 97 94 87 85 87 75 34 32 39 45 43 43 49 52 55 56 57 54 48 45 39 30 34 53 68 78 91 86 39
59 87 84 53 71 87 90 94 87 84 85 90 79 80 98 100 98 97 97 94 88 52 35 44 45 44 48 54 59 64 67 66 62 56 49 41 32 34 50 65 77 88 92
54 60 42 30 45 77 99 100 90 79 92 100 87 86 98 100 100 100 99 100 100 99 90 47 44 46 47 53 61 66 75 77 72 66 58 50 42 32 33 48 64 76 85
28 24 27 33 39 65 92 79 74 96 100 100 96 97 100 99 98 99 100 100 100 100 99 99 79 48 49 50 58 69 80 88 85 76 68 58 50 41 33 36 51 66 75
88 54 42 53 62 69 94 90 93 100 100 100 100 98 96 97 97 100 100 100 99 100 100 100 100 99 61 52 54 67 78 95 96 92 82 73 60 52 39 34 40 58 72
51 77 100 88 98 100 100 94 95 100 100 100 99 99 87 61 55 58 66 89 100 100 100 100 100 100 100 90 62 64 75 94 99 98 93 86 76 61 51 38 37 48 68
40 72 100 100 100 100 100 97 100 100 100 100 100 95 60 39 38 39 42 49 63 94 100 100 100 100 100 100 99 86 82 92 100 100 99 93 88 74 61 47 39 44 62

GFSGL_700_rhum_042.txt.gz
RH
71 84 96 98 99 100 100 94 73 48 34 25 20 20 16 12 7 7 7 9 11 17 31 46 64 88 99 89 56 43 26 30 23 19 20 21 22 26 42 55 64 63 58
82 90 100 99 99 99 98 83 60 40 34 20 22 18 14 8 7 8 10 11 14 24 36 38 55 82 65 27 21 20 22 22 24 22 19 21 28 41 61 70 71 69 63
84 100 100 100 100 99 96 72 36 37 27 22 18 14 9 8 10 11 13 18 27 40 36 23 16 20 17 17 19 20 21 20 22 24 23 28 45 65 77 79 78 76 84
100 100 100 100 99 99 93 66 34 34 28 19 15 10 8 10 14 16 28 37 52 47 28 19 19 17 16 18 20 22 21 21 24 27 30 46 67 77 82 83 81 83 84
100 100 100 99 100 97 88 26 52 57 24 16 10 8 8 13 17 24 36 49 60 46 22 18 19 20 20 20 22 19 19 21 24 31 49 72 76 81 84 85 92 87 80
100 100 100 99 97 94 24 71 91 58 16 9 9 11 16 20 24 30 40 58 62 38 20 20 20 23 22 24 21 19 21 27 35 54 73 77 77 83 85 93 94 92 82
100 100 100 98 96 44 77 90 54 28 9 8 11 14 17 24 29 35 46 66 60 30 21 20 21 23 25 23 22 23 31 44 60 75 81 78 78 91 94 79 80 84 83
100 99 98 95 81 59 92 80 37 26 10 12 16 17 20 30 34 37 54 76 52 26 23 23 23 25 26 22 20 22 34 49 65 80 86 79 82 89 84 81 83 85 84
99 97 97 84 81 95 62 45 45 11 12 17 19 22 29 37 40 48 65 81 46 24 26 25 23 27 25 20 19 24 37 52 68 83 87 75 86 88 88 88 91 95 88
97 97 96 96 94 77 76 35 23 15 17 21 22 26 38 42 44 51 85 63 34 21 27 27 23 29 23 19 19 25 37 52 64 79 85 71 84 86 87 90 93 88 94
97 94 95 94 93 71 59 42 15 19 23 23 25 28 42 45 50 67 79 46 24 20 27 28 27 30 22 19 20 24 36 47 59 77 82 72 76 87 88 93 97 95 91
97 95 93 93 82 65 42 17 17 20 25 32 35 34 39 48 63 70 57 30 22 21 29 30 29 32 24 20 21 22 29 42 58 70 82 82 57 85 92 90 95 92 94
94 94 93 89 75 40 16 16 20 24 27 36 43 40 43 52 74 68 59 40 26 24 31 31 29 34 27 22 24 21 22 28 42 60 75 86 74 49 91 91 94 94 94
94 85 73 52 30 18 19 20 22 34 40 39 44 48 52 65 80 70 55 45 36 25 30 35 31 34 31 24 26 24 22 22 26 43 60 77 92 62 50 92 88 91 86
46 50 45 24 23 24 23 27 32 42 48 41 48 59 60 64 75 72 57 49 41 32 25 32 33 33 36 28 28 29 28 25 23 26 45 63 78 93 50 60 92 91 88
39 30 22 22 25 31 35 33 46 46 48 46 48 68 71 73 84 78 67 61 51 39 29 30 37 34 37 37 30 33 34 31 29 26 28 43 63 76 92 48 69 91 89
21 22 25 30 33 36 36 27 22 28 60 57 56 64 76 80 94 87 78 78 76 60 36 34 38 40 37 41 39 36 39 39 35 33 28 27 41 62 76 94 46 62 95
21 26 31 36 42 37 40 44 51 53 56 71 69 70 72 82 95 98 88 88 85 74 46 31 37 42 39 41 46 45 45 48 48 42 36 31 27 37 56 74 93 52 48
30 35 43 44 42 56 75 69 56 79 78 80 85 80 79 84 88 100 99 94 93 85 66 32 33 43 44 42 47 51 54 56 57 54 48 40 32 28 36 55 72 92 65
41 45 61 85 96 92 94 89 77 100 95 84 86 90 95 94 86 99 100 100 98 95 90 70 35 38 46 44 44 50 56 62 65 66 60 50 41 34 29 36 54 70 88
37 54 68 59 85 98 76 73 83 83 100 99 83 81 100 100 97 99 99 98 98 97 94 92 94 58 44 48 47 50 55 62 70 76 73 64 52 42 34 30 37 54 68
21 23 27 70 95 100 66 64 65 70 98 86 88 100 100 100 99 100 100 100 100 100 100 96 95 99 97 59 48 49 51 60 69 85 86 77 66 52 43 34 31 38 55
14 16 18 41 71 96 80 94 88 96 100 97 99 100 100 100 100 100 100 100 99 100 100 100 100 99 100 100 90 56 52 55 65 85 95 92 82 71 53 44 34 33 40
9 11 12 15 76 91 92 100 92 97 99 99 100 100 100 100 100 100 100 98 93 97 100 100 100 100 100 100 98 100 82 60 61 75 95 97 95 88 75 56 43 34 36
15 17 21 37 54 95 100 100 88 99 99 100 100 100 100 100 100 100 98 67 52 56 64 86 100 100 100 100 99 96 100 97 78 76 95 100 100 96 89 74 57 42 36
20 44 97 97 100 100 93 97 100 100 94 92 100 100 100 100 100 99 69 54 44 45 50 53 71 100 100 100 100 98 98 100 100 97 95 100 100 100 95 89 72 55 41

GFSGL_700_rhum_045.txt.gz
RH
70 72 79 88 99 100 100 98 99 96 97 76 33 29 29 23 15 8 6 7 9 11 13 15 21 31 34 28 47 63 37 28 21 17 19 19 19 21 22 23 26 36 56
98 94 92 100 100 98 99 99 100 98 49 42 31 53 24 19 9 6 7 9 11 13 16 22 35 36 22 17 18 21 23 22 23 20 17 18 19 22 25 31 49 64 67
100 100 100 100 100 98 98 98 100 96 73 31 75 74 20 12 8 8 9 12 18 23 27 33 41 38 19 19 18 19 19 23 20 18 17 19 21 30 50 70 76 73 71
100 100 100 100 99 100 98 100 96 93 24 66 94 22 37 12 8 11 15 17 22 28 37 54 50 30 18 18 16 19 23 19 18 18 19 22 30 58 72 69 66 72 70
100 100 100 99 100 99 97 97 96 30 69 96 53 77 34 10 13 20 23 30 37 40 46 59 46 23 20 18 20 24 19 17 17 19 23 33 55 72 70 71 72 68 59
99 99 99 99 98 92 98 98 68 94 96 83 75 33 47 16 18 21 28 36 43 51 61 63 40 22 22 20 26 22 18 18 22 32 39 56 71 76 73 76 76 67 55
98 99 100 97 90 98 97 92 94 92 70 90 82 58 17 19 23 28 32 38 47 59 70 62 28 24 23 25 28 21 20 25 36 47 50 69 76 76 75 78 77 75 72
100 100 89 93 100 97 96 96 94 92 93 86 47 17 19 22 24 31 38 44 56 73 74 50 24 27 25 28 25 19 18 24 38 48 60 75 80 73 83 85 75 66 70
100 99 99 100 97 97 94 94 94 91 78 50 24 21 24 25 31 39 44 48 55 72 69 32 23 30 27 28 23 18 18 23 40 55 67 80 82 70 89 85 75 73 64
99 99 98 99 96 94 95 94 83 58 32 19 20 26 31 33 39 45 48 46 64 67 41 23 25 32 29 30 23 19 18 19 29 46 61 79 84 66 85 91 78 73 71
98 99 97 95 96 90 77 56 45 24 16 18 23 26 29 38 42 45 50 58 69 52 32 24 27 32 30 31 24 21 20 19 21 32 52 64 80 72 62 94 89 82 86
98 96 96 91 71 50 45 44 23 18 19 20 24 34 35 39 47 49 51 67 70 50 38 27 30 36 31 32 29 24 24 22 20 23 37 56 71 83 54 74 96 93 100
90 70 36 31 44 50 44 23 22 23 25 24 24 34 39 38 44 53 55 70 70 57 44 32 29 38 36 34 34 25 27 25 23 22 24 41 57 76 84 45 90 91 93
23 26 32 36 38 36 24 27 30 33 31 30 28 34 45 44 46 63 65 76 74 62 52 39 30 36 41 35 36 29 28 30 26 24 23 24 40 62 81 75 49 93 89
23 24 28 28 24 24 29 34 38 44 44 37 39 43 57 54 59 71 74 73 76 69 66 61 39 32 36 35 38 38 30 34 35 29 27 24 26 40 62 84 60 64 92
17 19 18 19 24 28 31 35 51 61 58 51 46 39 52 74 67 73 80 85 87 78 76 77 56 36 33 39 38 42 38 36 40 38 33 30 26 26 40 63 88 48 77
18 19 21 24 29 35 42 46 38 35 47 60 53 69 75 85 80 79 84 94 96 90 85 89 70 41 33 40 42 41 45 43 45 47 44 38 32 27 27 43 66 88 40
22 27 32 35 39 41 47 62 89 92 81 77 81 87 95 83 92 92 91 99 92 99 96 93 82 45 33 39 46 42 45 50 52 55 56 52 42 33 27 29 44 66 88
32 32 34 33 33 44 74 88 86 94 99 95 75 76 91 93 86 93 100 99 97 98 99 97 92 72 35 35 45 47 46 52 56 61 66 64 57 42 33 28 30 46 70
13 13 14 16 17 20 32 62 74 92 100 97 66 78 73 96 81 84 98 100 99 99 100 99 98 94 84 46 40 47 48 51 57 63 72 76 66 55 43 33 28 30 51
11 11 10 9 9 11 15 23 45 80 100 67 64 74 97 88 92 100 97 100 100 99 99 99 99 97 97 94 84 49 48 49 54 62 70 82 81 68 57 42 33 29 33
9 8 7 8 9 10 11 13 52 89 100 93 88 82 91 93 98 98 94 97 99 100 100 100 99 99 100 99 100 100 82 53 54 59 68 83 90 84 74 58 44 33 30
7 8 10 12 14 15 16 14 60 100 100 100 92 87 83 94 100 100 98 100 100 100 100 100 100 99 98 98 99 100 100 100 77 59 68 75 94 93 88 79 61 45 33
12 15 16 16 18 29 60 40 35 73 100 97 100 98 83 91 96 100 100 98 100 100 100 100 99 100 100 99 96 100 100 100 96 95 70 72 87 96 94 89 82 61 44
16 17 18 20 26 89 97 98 100 100 100 100 100 100 89 90 100 100 100 100 99 98 97 69 55 70 98 100 100 100 100 100 96 100 100 88 86 95 97 99 91 80 59
15 15 18 21 32 51 100 100 100 100 100 100 95 98 90 88 96 98 100 100 100 100 80 61 62 68 69 91 100 100 100 100 100 100 100 100 100 100 100 99 98 92 77

GFSGL_700_rhum_048.txt.gz
RH
100 99 98 99 100 100 100 99 98 98 85 99 98 94 53 42 52 83 17 17 10 12 13 15 17 19 25 37 38 23 18 19 18 14 16 19 19 16 16 16 17 18 19
90 94 99 98 97 98 99 99 99 98 98 98 99 88 28 49 77 17 56 12 13 14 17 18 21 26 34 45 34 20 17 18 19 15 21 18 16 16 17 17 18 23 42
93 72 72 93 98 99 88 88 99 90 99 99 94 71 38 84 45 69 37 48 13 14 20 26 30 37 48 50 29 20 18 19 21 23 17 17 17 22 22 30 45 62 65
92 99 91 93 99 94 95 99 87 89 98 98 82 41 84 87 82 91 40 18 18 20 28 37 46 53 62 46 25 20 17 18 23 18 16 18 26 34 44 55 62 65 63
91 91 94 96 99 97 98 98 95 99 99 99 72 85 94 95 87 38 19 20 24 30 38 46 55 65 68 36 23 19 17 24 17 15 17 22 32 48 65 71 67 64 61
75 90 94 93 94 96 98 98 87 100 99 96 94 96 89 78 64 54 24 26 31 39 46 53 64 73 65 31 26 22 23 21 15 16 21 32 42 60 71 71 68 68 52
66 83 87 91 97 98 99 86 96 98 95 94 91 89 74 44 24 26 29 31 34 39 47 54 66 73 56 26 24 23 28 20 19 20 24 40 46 67 74 70 73 74 66
81 86 91 94 99 98 100 100 96 93 88 87 75 48 30 20 24 27 30 31 38 48 54 63 72 66 36 23 27 26 29 21 20 22 28 39 53 70 78 70 71 71 65
82 90 91 92 98 100 96 94 92 86 61 49 40 22 19 20 25 28 29 35 42 52 57 63 66 45 27 21 29 27 28 22 22 22 25 40 52 73 82 68 68 76 63
96 99 100 100 98 95 91 81 40 34 40 39 22 19 20 20 26 32 35 39 48 55 58 67 59 46 26 25 30 30 30 23 23 22 24 34 52 68 85 75 58 77 73
95 98 98 92 78 73 53 29 28 32 31 22 20 21 23 23 23 27 38 41 54 58 62 70 60 48 30 26 32 32 32 24 25 23 21 22 33 51 74 86 54 66 81
99 96 86 70 58 34 29 25 25 30 22 22 22 24 27 26 26 29 42 46 56 62 66 72 60 50 36 28 34 33 34 27 28 27 24 22 22 32 52 80 76 52 88
84 65 52 33 29 25 18 22 26 23 22 23 27 31 31 30 27 31 39 54 59 68 71 76 66 54 41 30 32 37 37 32 32 33 28 26 23 22 30 57 87 55 74
55 42 29 18 15 16 17 18 19 22 26 31 37 38 37 36 34 34 42 62 68 73 84 84 73 65 52 38 33 42 40 38 33 36 36 29 26 25 25 37 69 76 56
19 14 12 13 15 16 18 19 22 28 39 44 50 54 63 60 50 44 42 64 78 79 85 85 82 76 74 49 36 40 44 41 37 36 42 38 32 29 27 25 44 79 61
11 13 15 17 18 21 23 23 32 40 51 63 80 96 90 90 84 72 65 64 87 89 85 88 93 88 88 72 43 37 48 43 44 41 46 48 44 35 31 26 28 51 82
14 13 14 14 14 15 20 28 29 21 42 60 99 100 100 91 94 83 86 78 92 100 89 91 98 97 96 80 46 36 50 46 48 48 51 55 56 49 37 30 25 36 65
15 16 15 13 12 12 13 14 19 21 20 29 63 90 96 100 98 90 94 93 85 99 100 98 97 98 96 87 52 34 49 50 50 52 56 61 64 63 52 36 27 26 41
18 14 12 11 11 11 10 9 8 9 11 14 21 50 91 100 95 77 100 93 92 100 100 100 98 100 99 95 75 36 43 53 52 54 58 64 72 74 64 45 32 27 28
13 11 11 11 9 8 7 8 8 9 10 14 29 67 99 97 65 66 78 86 94 100 100 100 100 100 100 99 97 70 42 52 55 54 60 64 74 82 74 58 43 32 29
12 11 9 7 7 8 11 12 14 14 14 15 37 97 100 95 83 75 70 93 100 100 95 99 99 100 100 100 99 98 93 55 52 55 60 65 69 86 85 72 60 42 32
10 8 8 9 12 13 15 16 17 17 20 21 48 91 100 100 95 79 81 86 98 100 100 100 100 99 99 100 100 99 96 95 93 64 58 60 68 80 92 86 79 60 42
8 10 12 12 13 14 15 17 24 36 51 60 96 100 100 100 99 76 78 87 100 100 99 100 100 100 100 99 100 100 97 97 100 97 96 67 65 72 95 94 86 81 60
12 12 11 12 14 15 16 22 62 89 100 100 100 100 97 100 92 96 85 88 91 99 93 97 99 100 100 100 100 100 100 100 100 100 100 99 85 75 85 98 93 86 81
11 13 15 16 18 19 21 25 41 84 99 100 100 100 100 100 98 91 92 88 100 100 100 100 90 94 99 97 82 100 100 100 100 100 100 100 100 98 92 97 98 91 90
15 17 21 26 32 35 34 36 54 87 93 100 100 100 100 97 100 94 88 85 91 100 100 100 100 100 86 80 86 85 100 100 100 100 100 100 100 100 100 100 100 95 96

GFSGL_700_rhum_051.txt.gz
RH
50 57 54 76 88 97 96 90 89 84 99 98 95 100 98 100 99 96 42 62 86 73 73 61 19 14 19 25 28 36 47 39 26 19 15 14 16 21 16 12 12 13 15
71 76 77 81 74 74 74 91 79 99 80 98 100 98 100 100 100 89 93 86 85 86 57 26 18 20 25 31 38 48 54 36 22 16 14 17 20 15 13 13 16 19 28
78 77 83 81 96 98 89 83 99 85 91 86 99 99 88 97 96 85 84 92 80 71 62 40 23 28 35 43 58 65 56 30 22 18 18 21 14 15 15 18 26 39 57
82 88 85 91 81 72 81 97 96 94 98 94 98 96 97 96 86 89 87 75 57 45 29 21 25 32 43 51 61 68 50 26 22 20 23 16 14 15 20 28 34 60 66
92 97 89 85 83 99 100 100 93 99 100 100 100 97 95 92 86 87 65 37 25 19 21 26 29 37 43 53 70 70 36 27 23 24 20 14 13 15 22 36 58 65 63
92 95 80 79 100 100 100 99 99 94 96 99 94 94 94 89 68 42 31 18 18 20 25 31 37 44 47 59 74 58 28 26 24 26 17 14 13 16 24 43 64 65 57
87 77 95 99 99 100 98 98 98 99 98 95 93 83 72 48 36 22 17 17 18 21 26 30 38 46 51 67 68 40 25 28 26 27 18 16 13 16 22 40 70 69 66
56 65 86 97 100 100 100 100 99 96 96 89 71 53 33 27 19 18 18 18 19 21 27 33 40 49 59 66 47 29 26 31 31 28 20 17 16 16 23 38 60 69 64
82 88 93 96 99 100 99 98 96 87 66 46 29 19 20 18 17 18 20 21 21 22 30 36 46 54 67 64 47 32 26 34 33 28 22 19 16 17 21 31 55 71 62
92 97 99 100 99 98 97 94 88 64 37 23 16 19 16 17 22 22 24 24 24 26 32 43 53 59 70 66 50 38 27 35 34 30 26 22 20 20 23 37 48 65 69
100 99 98 98 96 96 90 72 59 37 20 15 14 15 17 21 22 26 31 30 29 28 31 49 62 67 74 68 53 43 31 35 36 33 27 27 25 22 22 28 47 66 78
98 97 94 92 88 74 56 33 26 25 16 15 16 17 20 24 26 31 39 42 39 33 33 56 70 78 82 74 57 48 34 34 35 35 29 31 30 25 24 23 32 48 81
94 93 81 72 61 41 25 20 16 15 14 14 17 18 20 26 35 45 50 57 56 41 39 65 76 86 91 85 63 58 46 35 37 36 33 32 35 31 26 22 24 34 78
82 76 64 42 22 16 12 12 12 12 14 17 20 26 31 34 42 52 74 86 86 79 64 68 82 91 100 97 72 68 59 40 37 40 40 34 38 41 34 24 22 25 41
61 30 17 13 11 10 11 12 13 13 17 20 21 33 44 42 47 79 100 100 97 88 80 71 87 97 100 100 87 84 76 50 39 45 42 39 39 47 45 34 26 24 28
15 12 11 11 11 13 14 13 12 11 12 14 20 43 42 59 67 98 92 99 96 89 79 73 80 100 100 100 97 96 96 57 41 46 44 44 44 52 55 47 33 26 24
11 11 11 12 14 15 14 11 10 10 11 11 10 10 24 67 76 100 87 100 100 98 88 84 80 98 100 100 100 99 98 55 39 48 47 47 50 56 62 59 45 33 27
15 16 17 18 15 12 11 11 10 8 8 7 6 7 8 10 21 44 73 93 100 88 89 100 93 97 100 100 99 99 99 62 38 53 50 50 54 61 68 68 58 41 29
20 19 16 12 11 11 10 8 7 8 9 9 10 10 13 14 38 70 100 96 86 67 93 91 98 100 100 100 100 99 99 82 40 49 54 53 56 61 72 77 70 53 35
18 13 11 11 9 7 7 7 8 9 8 10 13 15 17 17 56 100 100 98 92 85 82 93 98 100 100 100 100 100 99 97 52 48 56 55 56 60 69 83 82 69 46
11 10 9 7 6 7 8 8 8 9 11 12 16 31 51 33 44 100 100 100 91 70 84 100 100 96 100 99 100 100 100 99 97 63 53 56 54 57 65 84 91 83 67
9 8 6 6 8 8 8 9 11 13 15 22 32 59 87 100 98 100 100 96 67 71 80 100 100 100 100 100 100 100 100 100 99 98 89 63 54 55 62 74 92 89 82
7 6 6 8 8 8 11 15 17 19 20 23 96 100 100 100 100 100 100 84 85 76 89 99 100 96 100 100 100 100 100 100 100 100 96 97 96 78 61 68 86 96 89
6 7 9 8 9 13 17 22 28 31 30 28 34 90 100 100 100 100 100 93 92 91 81 97 100 100 100 100 100 100 99 100 100 100 100 100 99 95 96 79 78 97 96
7 10 9 10 14 18 24 32 37 41 43 43 42 63 76 96 100 100 100 100 100 98 91 88 100 100 100 97 94 98 100 100 100 100 100 100 100 99 99 98 93 95 100
10 10 10 16 20 27 33 38 43 47 49 53 57 66 86 94 100 100 99 100 100 100 81 79 93 100 100 100 100 97 89 94 100 100 100 100 100 100 100 100 100 100 100

GFSGL_700_rhum_054.txt.gz
RH
71 64 57 64 61 56 72 81 87 95 86 87 98 99 78 97 96 98 97 97 86 85 83 76 72 67 54 31 18 21 26 33 34 35 43 38 21 16 19 19 12 11 12
49 54 67 76 83 86 94 98 78 85 95 84 73 96 78 93 98 98 87 88 91 82 71 73 61 30 15 17 21 24 31 42 48 46 49 32 18 20 20 12 12 15 19
70 73 70 84 90 94 99 79 81 82 88 99 99 85 98 99 99 89 86 89 75 77 74 36 17 15 16 20 24 31 40 48 61 58 48 23 18 22 14 12 13 19 30
74 74 88 92 98 99 87 87 99 87 99 97 92 98 98 98 92 90 93 81 83 53 26 18 15 15 17 22 28 36 45 56 68 56 32 21 23 18 14 11 12 19 31
69 74 84 91 97 98 92 98 79 98 99 87 82 99 96 93 94 81 85 76 37 24 16 16 17 18 19 23 31 41 49 62 64 39 25 22 25 17 14 13 13 16 31
88 78 79 84 93 96 76 97 100 98 98 99 98 98 94 88 79 82 63 35 21 16 17 19 20 20 21 26 35 43 53 66 51 30 24 24 24 18 14 13 13 16 24
52 43 48 63 100 98 100 100 99 98 100 98 97 90 61 56 57 44 30 17 15 16 18 21 22 23 24 29 39 49 61 59 44 28 26 28 25 20 16 13 14 15 30
43 62 88 100 100 99 100 100 100 99 99 95 94 65 47 39 33 23 16 15 16 19 22 25 25 26 30 36 43 56 66 59 42 29 28 28 27 22 20 15 13 12 20
84 89 100 100 100 100 100 95 97 94 97 86 62 53 39 26 20 18 17 18 20 22 26 32 34 32 37 44 47 67 74 59 42 32 31 31 30 25 24 18 15 12 14
94 100 100 100 100 98 95 96 96 93 70 62 42 37 28 17 20 20 22 24 25 27 31 38 45 42 39 48 60 78 78 57 47 35 36 36 32 28 28 24 19 14 15
93 97 98 96 96 97 95 91 76 65 52 27 18 15 13 14 14 18 22 27 31 36 40 46 60 53 42 48 71 84 86 63 52 38 38 41 37 31 33 31 26 20 17
100 99 94 96 94 89 72 64 49 25 13 10 10 9 11 14 20 23 28 36 44 52 52 58 81 77 63 56 79 96 100 77 61 49 38 45 41 34 34 37 33 26 22
98 94 96 95 78 66 38 16 10 10 9 9 11 12 12 13 17 31 40 52 63 70 66 86 93 87 81 64 85 100 100 96 72 67 43 43 44 38 36 39 42 33 24
97 90 77 65 32 14 11 10 9 10 12 14 14 14 12 11 11 13 32 68 82 82 79 89 95 89 80 67 90 100 100 99 84 82 61 45 48 43 38 40 47 43 27
72 52 24 13 11 10 11 12 13 15 15 14 12 11 11 11 10 10 10 18 82 93 100 91 98 98 96 74 90 100 100 100 95 98 77 46 51 47 42 44 52 53 34
18 14 13 12 13 14 14 16 17 15 12 10 10 9 8 8 8 9 9 10 50 99 86 99 99 91 94 92 89 100 100 100 99 98 89 45 53 50 46 49 58 61 45
15 15 16 16 18 19 20 15 9 8 8 6 6 6 7 7 8 8 10 13 13 49 82 100 77 89 90 100 95 100 99 100 100 99 89 43 52 52 50 54 64 67 53
19 19 20 21 20 12 9 8 7 6 5 4 5 6 6 6 7 9 14 14 20 36 52 62 78 74 100 100 98 100 100 100 99 100 84 45 56 54 52 58 67 73 62
23 23 23 14 9 9 8 6 5 5 6 6 6 5 6 8 10 12 19 38 65 100 100 100 88 74 85 91 100 100 100 99 100 99 88 45 56 56 54 59 68 75 69
26 20 10 9 9 7 6 5 5 6 6 7 8 9 8 8 11 25 37 100 100 100 93 93 82 67 80 97 100 100 100 98 100 99 97 54 50 56 56 59 65 79 75
15 10 10 9 7 6 5 6 6 7 8 10 14 17 18 18 39 80 100 75 100 95 100 94 64 69 96 98 96 100 100 100 99 100 99 90 57 56 58 59 64 76 81
10 10 10 8 6 5 6 7 8 10 14 17 21 25 24 25 63 100 100 100 100 100 100 82 66 92 100 95 100 99 100 98 100 100 100 98 87 65 57 58 62 67 83
11 10 9 7 6 7 8 8 12 16 20 26 30 31 31 32 32 84 100 100 100 100 100 100 81 76 87 96 98 100 100 96 100 100 100 98 95 95 95 90 66 66 74
11 10 8 7 7 9 9 12 16 22 29 34 37 39 41 42 41 48 59 87 100 100 100 100 95 89 80 95 99 100 100 100 100 100 100 100 98 100 98 100 99 83 78
10 9 8 8 10 10 11 16 23 32 38 43 46 49 54 56 48 60 79 93 90 97 100 100 99 92 83 86 94 100 100 98 100 100 100 100 100 100 100 100 99 100 98
10 9 10 11 11 10 16 22 31 40 47 51 53 53 52 58 62 56 74 82 96 100 97 100 100 98 87 79 86 99 100 100 94 100 100 100 100 100 100 100 100 100 100

GFSGL_700_rhum_057.txt.gz
RH
78 83 86 71 64 70 71 82 92 100 99 91 99 99 99 94 95 87 99 97 99 92 64 54 58 61 36 19 15 14 15 16 16 17 26 34 50 52 38 22 18 18 11
55 74 73 71 74 93 99 96 96 99 99 100 81 73 100 99 97 98 98 96 89 63 56 54 56 29 19 15 16 17 17 19 22 24 35 41 50 48 28 20 21 14 11
58 66 75 80 87 93 97 100 98 99 96 95 81 99 98 98 98 98 98 74 52 52 56 46 29 18 16 17 18 19 20 22 26 32 37 50 51 35 23 22 19 14 11
60 62 64 75 84 90 98 100 99 93 79 95 94 99 97 99 99 96 94 45 46 52 50 34 22 16 16 18 20 21 23 25 29 38 45 54 49 30 22 24 18 14 11
59 64 72 78 81 86 94 100 97 79 94 100 99 90 99 98 95 84 51 44 44 40 30 24 16 16 18 20 22 24 26 28 33 45 50 56 46 28 25 25 18 14 12
53 70 76 91 80 68 67 54 100 73 99 100 98 99 98 94 92 68 49 34 27 25 20 16 17 19 22 25 27 28 29 33 40 51 57 57 44 28 27 26 20 16 13
54 74 61 42 41 47 92 100 77 100 90 98 98 93 93 95 81 52 37 27 23 20 17 17 20 22 28 33 34 35 34 34 46 59 62 58 46 30 29 28 23 19 16
41 43 43 47 90 98 94 100 99 100 98 95 96 95 92 64 43 41 37 29 22 20 19 21 25 28 35 45 45 44 41 38 53 67 66 59 44 31 31 30 26 23 19
38 47 62 92 99 97 92 97 98 93 95 94 86 63 46 28 32 32 24 18 17 16 20 27 33 36 47 58 52 54 45 41 65 76 72 59 44 34 36 32 28 27 23
62 67 73 74 98 100 96 97 96 91 78 62 40 19 14 11 14 15 17 17 17 20 25 31 36 48 59 64 66 73 61 57 83 84 80 61 48 37 38 36 31 31 30
80 98 98 96 99 95 91 91 88 67 39 15 10 9 10 11 12 15 16 20 24 28 30 34 46 64 78 77 90 83 72 68 85 96 93 67 55 41 41 40 34 36 38
92 99 97 93 88 89 83 66 38 13 9 8 9 10 12 14 15 15 14 14 18 24 21 31 49 76 94 94 99 96 77 73 88 99 98 86 74 51 46 45 38 39 45
95 86 78 78 68 60 33 12 9 9 10 12 14 16 18 17 13 10 10 10 9 10 11 20 55 95 100 96 96 100 85 70 92 98 99 98 98 81 46 48 42 40 49
69 69 67 54 26 13 11 10 12 14 17 19 19 14 9 7 7 6 5 5 5 7 9 10 73 100 93 100 100 100 87 69 97 98 93 100 99 97 53 49 46 42 51
69 50 25 15 13 13 14 15 18 21 18 11 8 7 6 5 5 4 5 5 6 6 7 10 12 82 100 73 98 94 98 83 91 100 94 100 100 98 62 52 49 46 54
29 19 16 16 15 15 18 24 21 10 8 7 7 6 5 4 5 5 5 5 6 6 8 10 12 24 100 96 99 97 94 91 94 98 98 100 100 100 60 55 53 50 59
20 20 18 17 18 22 26 19 9 8 8 8 6 5 5 5 5 5 5 5 7 10 12 15 36 24 68 99 100 96 89 96 99 98 98 100 100 100 54 62 53 55 64
22 20 20 22 27 25 12 9 8 8 9 9 7 5 5 6 6 7 7 7 9 18 30 43 75 97 100 100 99 67 87 91 100 100 99 100 100 98 53 64 54 60 69
24 25 26 30 21 10 9 9 10 10 10 9 7 6 6 6 8 12 12 15 51 46 99 94 98 100 99 96 70 71 78 100 98 100 99 100 100 90 57 62 57 61 69
28 30 32 19 10 10 10 11 11 11 9 7 6 6 7 8 9 12 15 17 74 97 100 100 100 94 95 74 73 91 96 99 97 100 100 100 100 94 59 62 59 62 66
35 35 20 11 11 12 12 12 12 10 8 7 7 10 13 16 19 22 22 20 38 99 100 100 100 98 96 69 69 82 88 89 98 100 100 100 100 98 75 61 62 64 66
39 21 12 12 12 13 12 12 10 8 8 8 10 16 22 27 30 31 30 28 27 74 100 98 100 100 99 86 82 100 95 98 96 100 100 100 100 99 88 65 62 63 65
24 14 12 12 12 12 12 10 9 9 9 11 16 21 29 36 40 41 40 38 33 39 75 100 100 100 100 94 88 93 94 89 100 100 100 100 100 100 99 99 96 83 68
17 13 12 12 12 11 10 10 10 10 11 16 23 31 38 43 45 42 34 42 42 50 65 80 100 99 100 100 92 87 96 98 100 100 99 100 100 100 100 100 100 100 97
16 13 12 11 11 11 11 12 12 12 16 23 32 41 46 46 43 35 31 31 47 52 69 83 99 100 100 100 95 83 87 95 100 100 100 99 100 100 100 100 100 100 100
15 12 11 11 12 12 13 14 13 15 23 32 40 44 42 38 35 32 30 29 33 56 67 83 91 100 100 100 96 83 79 90 100 100 95 98 100 100 100 100 100 100 100

GFSGL_700_rhum_060.txt.gz
RH
67 68 71 74 75 96 88 76 85 95 90 97 99 100 98 84 98 100 98 97 98 97 97 91 56 56 46 34 20 12 12 14 15 13 21 54 33 21 26 35 40 37 24
59 61 64 68 78 71 79 82 94 98 90 100 99 98 96 72 95 97 99 98 98 96 94 64 53 52 40 27 16 12 14 17 18 18 22 29 68 70 33 41 43 33 17
42 51 53 58 65 72 85 90 98 99 100 95 100 98 98 100 100 98 100 98 97 91 62 35 35 48 34 21 14 14 16 19 23 49 25 36 68 79 42 47 47 28 19
72 69 56 60 62 66 75 82 86 98 99 99 87 96 92 99 99 98 98 98 89 87 47 30 26 24 21 17 16 17 20 23 35 44 33 50 85 87 85 67 52 27 21
73 56 48 46 53 65 73 86 86 93 97 89 84 70 76 98 98 97 96 95 77 52 34 19 16 16 19 18 20 23 29 33 37 37 36 36 44 91 100 100 47 26 23
60 55 55 68 82 86 91 84 65 86 72 97 83 97 99 98 96 94 92 71 46 27 19 19 23 22 20 22 23 26 32 39 46 46 43 41 50 100 100 73 43 28 24
39 38 47 61 66 50 45 45 66 99 96 99 98 99 97 94 84 64 54 26 15 16 18 24 26 30 30 26 28 31 37 42 50 54 50 49 62 79 76 60 40 30 27
27 31 37 41 41 41 64 79 99 87 91 100 98 88 79 64 43 19 10 10 11 12 15 18 21 23 29 37 36 48 52 59 58 54 55 53 69 91 76 54 42 33 28
30 37 43 50 56 62 60 71 97 98 91 86 82 73 50 17 9 9 10 11 12 14 16 18 20 23 30 42 53 67 70 72 76 75 72 63 74 96 75 54 44 38 30
43 46 48 51 50 60 62 82 87 82 75 73 53 22 9 8 9 12 14 16 17 16 15 12 12 14 17 59 75 82 90 83 97 96 78 60 92 100 81 59 49 42 37
45 51 57 57 62 63 68 69 68 63 49 23 9 8 10 12 17 19 17 13 9 7 7 7 7 10 18 40 93 93 90 96 100 97 94 78 99 100 98 81 65 46 41
54 66 70 69 66 62 60 53 40 18 11 10 10 13 18 22 18 11 8 7 6 5 5 4 5 6 8 22 56 90 99 97 100 100 94 77 99 100 100 98 91 58 47
70 70 61 57 54 50 34 17 13 12 12 12 18 23 20 12 9 7 7 7 6 5 4 5 5 6 6 8 45 100 75 92 99 99 97 84 100 100 100 97 100 80 51
78 66 57 52 38 22 17 16 15 14 17 24 23 14 11 8 8 8 8 8 7 6 4 4 4 5 7 8 10 34 100 100 97 100 90 83 100 100 100 100 100 93 54
69 62 50 30 20 18 18 16 17 22 25 18 12 10 9 8 8 9 9 8 6 5 4 4 5 6 7 12 28 58 99 99 99 88 95 97 100 100 100 100 100 90 56
63 43 26 21 21 20 19 20 26 23 13 10 10 9 9 10 10 10 8 6 5 5 5 6 8 11 27 78 94 78 100 98 86 91 90 93 100 100 100 100 100 78 59
37 27 26 25 22 21 24 29 24 15 10 10 10 10 11 11 10 7 6 6 6 6 7 10 22 34 79 81 68 69 88 99 96 82 99 94 99 100 100 100 100 64 60
35 41 34 23 23 26 31 28 15 11 11 11 12 12 12 9 6 6 6 6 8 11 12 34 68 95 100 100 100 100 100 100 81 80 98 98 100 100 100 100 96 63 58
72 36 26 27 29 35 32 19 12 12 12 13 13 13 10 7 6 7 9 12 13 14 15 30 82 100 100 100 98 100 97 78 73 83 97 97 99 100 100 100 81 65 57
32 30 31 33 39 37 23 14 13 13 14 14 14 11 8 6 7 8 11 16 21 22 21 18 55 93 100 100 100 99 90 98 99 100 97 92 99 100 100 100 79 66 59
34 35 38 44 43 28 18 14 14 14 14 14 12 9 8 8 9 12 16 21 27 28 24 22 24 83 95 100 100 100 85 94 100 100 95 99 100 100 100 100 84 67 61
41 43 51 48 34 22 17 14 14 14 14 13 10 9 9 10 13 18 24 30 34 31 24 25 26 39 95 100 100 100 100 100 100 100 99 100 100 100 100 100 90 66 64
52 58 54 41 29 20 15 14 14 13 12 10 10 10 10 13 18 24 30 35 38 33 27 26 31 34 63 100 100 100 100 100 95 92 97 100 100 100 100 100 97 81 71
64 60 52 38 25 18 15 14 13 12 11 11 12 12 14 19 26 29 30 31 33 32 30 27 33 44 49 88 100 100 100 95 84 83 87 100 100 100 100 100 100 100 100
65 60 52 38 24 18 15 13 13 12 13 15 15 15 20 27 31 31 29 25 25 26 28 28 33 49 64 76 100 100 100 100 87 90 100 100 100 100 100 100 100 100 100
66 61 52 37 25 18 14 14 14 15 18 18 17 21 29 35 36 33 26 25 42 54 58 49 36 53 71 80 96 100 100 100 90 86 98 100 100 100 99 98 100 100 100

GFSGL_700_rhum_063.txt.gz
RH
72 77 77 77 80 85 82 78 72 88 88 82 87 88 99 99 99 99 97 85 99 99 98 98 97 96 88 51 42 45 36 23 13 8 20 32 51 94 92 68 27 25 22
71 76 64 64 68 71 75 80 78 78 85 94 95 100 97 100 100 98 85 100 99 99 98 97 95 88 61 42 44 42 22 13 14 13 16 52 80 96 87 88 55 41 44
58 56 54 42 43 49 57 62 67 76 87 91 96 100 99 100 100 98 83 98 99 97 96 94 93 91 50 33 21 19 15 22 54 76 59 77 98 100 99 95 87 87 79
27 30 44 61 59 53 55 58 62 72 82 88 97 100 99 87 96 99 98 100 98 96 94 89 65 41 29 19 18 20 21 28 68 97 93 93 98 97 100 100 93 100 98
36 52 66 73 61 55 54 54 71 85 98 100 100 99 95 90 92 100 100 99 96 90 53 36 19 11 10 11 16 17 25 30 39 79 88 99 99 87 88 96 100 100 96
62 67 61 59 60 61 63 89 98 98 86 88 95 84 100 99 100 99 96 85 57 38 12 10 10 10 13 15 16 17 18 25 32 42 47 65 77 62 66 98 100 100 99
59 64 66 61 48 45 56 55 46 48 49 78 84 94 98 100 96 89 68 48 22 8 6 8 11 14 16 18 22 31 40 64 80 80 80 72 79 75 83 95 100 100 99
29 27 27 28 31 34 36 38 46 52 56 75 90 98 94 88 74 49 27 10 7 8 14 19 18 16 13 13 19 34 75 88 90 98 95 83 86 82 81 94 100 98 90
25 25 26 30 35 38 42 46 49 55 65 87 87 75 64 46 27 11 8 9 15 20 17 10 7 7 6 6 8 21 55 63 75 100 99 94 94 84 96 92 94 100 86
25 28 32 34 35 38 45 52 52 51 52 56 53 41 23 11 10 10 17 21 17 11 10 7 7 6 6 5 5 11 51 64 75 97 100 93 99 87 97 91 94 98 96
31 34 36 37 42 51 51 47 44 45 44 36 20 13 12 12 16 21 20 13 10 9 8 7 7 8 7 6 5 5 6 24 57 68 82 96 92 89 91 73 73 87 91
39 41 43 48 54 54 48 45 44 37 22 17 16 13 14 21 23 19 15 11 9 8 7 7 7 7 6 5 4 4 5 7 30 85 74 89 93 97 98 93 90 92 93
49 53 57 61 58 53 49 43 28 20 19 18 13 16 24 23 16 16 13 10 8 8 8 6 4 4 4 4 4 4 6 6 8 59 99 74 94 99 99 84 94 100 100
61 63 67 65 59 53 41 26 22 23 19 15 19 26 24 16 14 13 11 9 8 8 6 4 4 4 4 4 5 9 17 9 10 14 72 98 98 98 92 86 100 98 99
74 76 71 65 56 40 27 25 27 22 17 22 27 25 18 13 13 12 10 9 9 7 4 4 5 5 5 6 45 94 90 96 61 73 99 100 100 93 97 94 100 99 99
83 82 72 56 36 30 33 32 22 20 24 30 26 18 14 14 13 12 11 11 8 5 5 5 5 6 7 13 22 76 86 91 89 96 100 92 84 86 85 98 99 99 100
94 82 57 38 39 41 34 23 23 26 33 31 23 16 14 14 13 13 12 10 6 5 6 6 7 9 10 45 92 89 84 88 91 97 100 95 84 83 95 95 100 98 99
92 59 43 58 60 37 26 27 32 37 33 26 24 18 16 14 14 14 12 8 6 6 8 10 12 13 13 47 100 100 100 97 100 100 100 98 84 87 87 98 100 100 100
52 72 90 70 33 30 32 35 41 38 29 22 18 16 14 14 15 14 10 7 7 8 10 14 19 19 17 18 81 100 100 100 96 100 95 92 95 96 99 100 100 100 100
96 96 69 38 34 36 40 46 44 35 27 21 17 15 15 15 14 12 8 7 8 10 14 19 25 24 21 19 29 87 100 100 100 100 99 93 96 98 99 100 100 100 100
95 94 83 58 42 46 52 50 42 34 25 18 15 15 15 14 12 9 8 9 10 13 16 21 30 29 26 24 23 70 99 100 100 100 100 90 100 100 100 100 100 100 100
95 95 78 54 55 58 54 50 42 32 23 17 16 15 14 12 10 10 11 12 15 19 22 23 27 32 30 27 28 41 100 100 100 100 94 99 100 98 100 100 100 100 100
94 77 63 63 62 58 54 50 43 32 22 18 16 14 12 11 12 13 14 16 22 24 25 22 22 24 27 26 34 37 74 100 100 100 100 100 100 100 100 100 100 100 100
81 76 74 67 63 60 57 53 46 35 25 19 15 13 12 14 16 16 18 23 28 28 24 24 35 43 39 29 36 50 50 97 100 100 100 99 92 97 100 100 100 100 100
88 87 78 74 72 69 65 59 50 36 25 18 15 14 17 19 20 20 25 32 34 27 27 49 54 53 55 42 40 58 63 87 100 100 100 93 91 98 100 100 100 100 100
92 91 89 87 85 80 72 62 48 33 23 17 17 21 24 24 23 28 36 40 34 30 50 50 42 38 47 48 44 65 78 93 100 100 100 92 95 100 100 100 100 100 100

GFSGL_700_rhum_066.txt.gz
RH
47 48 51 60 67 79 85 83 76 77 77 71 78 90 97 100 89 98 95 98 99 97 93 99 100 98 98 96 93 89 48 57 36 13 12 12 13 18 25 47 53 62 42
63 77 71 74 82 72 71 72 74 67 65 63 76 84 97 97 88 100 99 99 100 100 74 92 100 98 96 89 43 29 33 25 21 11 9 11 15 21 32 44 62 93 80
96 83 77 74 68 63 59 57 57 61 56 61 65 79 87 97 97 99 100 99 100 100 100 100 99 95 87 35 14 11 14 16 15 20 17 33 57 80 90 97 100 98 92
49 52 52 46 44 46 53 60 58 54 57 62 76 92 98 98 99 99 100 100 95 99 99 96 91 50 20 8 7 9 11 15 23 31 52 69 76 100 100 100 98 93 83
39 36 32 36 45 63 67 55 61 62 66 79 98 99 100 100 96 100 93 100 100 98 94 66 35 10 6 8 14 18 19 19 20 23 30 52 74 82 81 80 78 91 80
38 36 38 52 64 64 64 66 70 70 73 68 80 70 86 72 71 91 100 100 97 87 55 19 7 8 16 19 18 16 20 44 51 67 82 83 83 89 95 97 96 76 72
35 46 55 63 61 65 65 50 31 32 37 43 45 51 62 71 82 95 94 83 58 28 10 9 14 19 16 11 9 7 7 7 15 34 53 68 85 98 98 97 96 98 79
47 56 60 55 39 28 24 26 28 34 40 45 46 51 58 71 83 75 58 32 14 10 11 18 18 14 11 8 7 7 7 7 6 14 48 61 88 100 99 98 98 87 73
40 31 29 25 23 25 29 33 35 37 41 48 52 54 58 48 45 32 17 14 11 14 20 17 15 12 9 8 7 6 6 6 6 6 11 50 95 95 99 99 96 97 74
31 28 25 25 27 31 34 36 38 47 49 48 45 45 42 31 21 18 13 12 19 21 18 16 13 10 8 7 6 5 3 3 4 5 5 12 69 98 96 99 75 94 91
31 26 26 30 35 37 38 41 47 51 47 45 41 34 22 20 21 13 15 22 22 19 17 15 12 8 7 6 5 3 3 3 4 4 4 5 20 72 82 55 86 99 91
29 29 31 36 40 42 46 50 53 49 46 41 28 21 21 20 14 17 24 22 20 18 17 14 10 7 7 6 4 3 3 4 4 4 4 5 6 65 76 72 94 87 88
34 36 40 44 48 53 58 59 54 49 40 28 23 24 20 16 20 25 25 21 18 17 14 11 9 8 7 6 3 3 4 4 7 9 10 6 8 21 86 96 99 98 81
44 48 51 57 64 69 67 60 54 40 27 27 29 21 19 24 28 26 22 20 18 16 13 10 9 8 7 4 3 4 4 6 48 71 93 92 25 18 90 95 100 99 89
60 65 71 75 78 76 70 60 41 30 34 36 25 20 26 30 28 25 21 19 19 15 12 10 10 9 6 4 4 5 6 11 55 92 100 77 82 99 84 99 98 90 84
76 83 90 91 88 81 65 43 36 42 38 25 23 28 33 33 26 22 21 19 15 13 12 12 10 7 5 5 5 5 9 50 74 94 98 84 93 100 100 95 88 85 83
88 100 98 98 95 74 40 40 62 48 26 27 32 37 37 30 24 24 21 15 14 14 13 12 8 6 6 6 8 9 10 90 100 100 100 94 100 100 96 91 89 96 87
100 99 98 97 85 50 76 88 44 30 32 34 39 42 42 38 25 21 16 15 15 14 12 9 7 8 8 10 12 14 14 65 100 100 100 100 100 99 100 97 93 89 85
100 97 96 85 87 94 94 70 57 56 43 47 47 44 41 37 25 18 16 16 15 13 10 8 9 10 11 14 18 21 19 16 66 100 100 100 100 100 93 99 99 93 91
97 95 94 95 95 95 95 95 95 86 73 58 47 43 38 31 22 18 17 15 14 11 9 10 11 13 16 18 21 26 26 21 36 95 100 100 100 96 100 99 100 92 100
95 95 95 95 95 95 94 95 95 90 65 49 46 44 41 33 26 21 17 14 12 11 12 12 13 15 19 20 20 24 29 26 28 89 99 100 100 100 97 100 100 100 100
95 95 95 95 95 95 96 95 92 71 55 53 52 51 46 41 32 23 17 14 13 14 16 16 18 21 21 21 24 25 25 25 31 71 100 100 100 100 100 100 100 100 100
95 95 95 95 95 96 95 92 77 68 66 65 62 58 52 42 30 21 16 14 16 18 19 22 26 25 24 39 50 50 39 28 39 46 99 100 100 100 100 100 100 100 100
95 95 94 94 95 96 91 85 82 81 80 77 72 66 53 38 26 19 17 20 22 22 27 34 32 28 38 49 48 54 52 36 44 49 80 100 100 100 100 100 100 100 100
93 94 98 100 100 99 99 98 98 97 94 90 83 67 44 31 23 21 24 27 26 28 39 41 34 44 47 36 34 37 49 42 51 60 62 98 100 100 100 100 100 100 100
100 100 100 100 100 100 99 99 100 100 98 98 89 56 34 27 27 30 33 32 34 46 51 41 47 48 40 39 40 40 48 48 57 77 84 98 100 100 100 100 100 100 100

GFSGL_700_rhum_069.txt.gz
RH
39 35 36 39 45 60 70 86 94 97 94 85 87 74 64 68 67 78 96 80 99 96 87 99 99 100 88 85 99 97 93 66 16 9 8 9 9 12 18 22 30 43 63
57 57 69 64 61 87 99 98 90 81 70 71 63 55 50 52 66 99 100 97 74 99 99 98 93 100 98 99 97 92 26 10 7 7 12 15 16 18 19 31 78 95 97
79 76 94 70 92 79 68 66 74 69 70 62 58 56 57 67 93 91 92 99 98 99 99 99 97 94 99 94 57 21 7 8 14 17 15 13 13 20 35 64 83 75 98
41 60 66 72 69 72 70 62 58 67 66 60 59 60 62 77 96 84 87 99 87 100 100 88 100 98 85 43 10 8 14 18 18 14 14 13 24 26 69 74 76 79 87
47 48 49 43 49 50 46 52 63 65 60 60 67 70 80 80 61 99 88 98 100 97 95 100 97 70 18 8 12 17 16 14 14 22 16 36 29 55 85 88 98 99 97
44 42 41 42 46 46 50 63 64 62 64 69 67 39 34 53 72 78 95 77 85 99 100 83 33 10 10 15 18 15 12 10 9 8 7 8 7 11 40 63 82 98 97
36 37 40 39 42 56 58 58 62 61 35 27 26 32 42 50 51 54 57 70 82 74 45 16 11 12 17 18 15 14 12 9 8 7 7 7 7 8 23 56 83 98 95
25 37 40 44 52 55 58 43 28 24 23 28 32 35 36 40 49 50 59 61 46 20 13 12 14 19 18 16 14 12 10 8 6 7 6 4 4 5 7 20 62 82 98
37 49 53 55 47 32 28 24 22 26 30 30 31 34 42 48 47 48 45 27 16 16 13 18 21 20 18 16 14 13 11 8 6 5 4 3 3 4 4 6 17 76 97
44 42 33 32 31 26 24 26 30 33 33 35 40 46 46 45 44 34 22 22 20 13 17 23 22 19 18 16 14 12 10 7 5 5 5 3 3 4 4 5 6 54 100
32 34 36 33 28 27 29 32 36 39 42 46 49 49 46 42 32 24 25 21 16 19 24 24 20 20 20 18 13 9 8 6 6 6 4 3 3 4 4 4 6 42 95
34 38 39 35 30 31 34 38 42 48 56 56 53 49 44 36 26 26 20 18 21 26 26 24 23 24 22 15 10 9 8 7 6 4 3 3 4 7 11 6 6 62 71
37 41 41 36 36 39 44 47 54 63 65 60 54 45 35 30 33 28 19 22 29 29 28 27 27 25 17 12 10 10 9 7 4 4 3 4 22 47 68 34 7 52 78
40 43 43 44 48 52 56 63 70 75 69 61 47 31 30 36 29 21 25 30 32 31 29 28 26 19 14 12 11 11 8 5 4 4 5 7 58 85 64 41 28 90 98
44 47 51 56 64 73 82 85 86 82 71 50 29 30 40 27 24 28 33 34 34 34 32 29 22 16 13 12 12 11 7 5 5 7 32 44 77 89 80 100 90 85 100
49 56 64 77 88 97 100 98 97 90 68 42 51 89 40 29 32 37 39 39 38 34 28 23 16 14 14 14 13 11 6 5 6 10 92 98 95 82 87 100 96 100 98
61 81 95 99 100 100 98 96 94 74 52 93 93 83 59 53 54 63 54 40 34 29 24 18 16 16 15 14 11 8 6 6 8 11 28 96 100 81 98 100 98 82 76
77 98 100 100 98 97 96 96 89 94 96 96 94 93 95 95 88 79 51 36 33 26 22 19 18 16 14 11 9 8 8 9 12 16 14 46 100 100 90 98 100 98 83
99 98 98 97 96 95 94 95 95 95 95 95 95 95 91 88 77 47 41 41 39 35 29 22 19 15 12 10 10 10 10 13 15 18 20 17 73 100 100 99 96 100 89
97 96 95 95 95 96 96 96 96 96 96 95 95 95 94 87 58 50 49 48 44 37 30 24 19 15 12 12 12 13 14 17 18 21 25 22 93 100 100 100 99 98 100
94 95 96 95 95 96 96 96 96 96 96 95 95 96 94 74 62 60 58 55 49 40 32 23 18 15 14 15 16 17 19 21 27 25 25 24 54 100 100 100 100 98 95
96 96 96 96 96 96 96 96 96 96 96 96 97 93 78 76 77 75 69 60 49 37 26 20 18 19 19 19 21 22 22 33 45 45 28 26 37 98 100 100 100 97 96
96 96 96 96 96 96 96 95 96 96 98 98 96 96 98 98 96 91 80 64 45 29 24 23 24 24 26 31 31 31 35 41 43 50 38 34 41 94 100 100 99 93 100
96 96 96 96 95 95 97 100 100 100 100 100 100 100 100 100 100 99 90 65 34 28 28 30 30 30 36 39 38 44 40 33 31 42 42 36 46 93 100 100 100 100 100
95 93 92 97 100 100 100 100 100 100 100 100 100 100 100 100 100 95 64 36 31 34 36 35 39 45 48 45 49 42 38 37 36 37 44 42 46 68 100 100 100 100 100
88 90 93 96 100 100 100 100 100 100 100 100 100 100 100 99 78 50 39 38 41 41 41 45 55 57 52 56 51 46 46 47 45 45 47 47 58 65 100 100 100 100 100

GFSGL_700_rhum_072.txt.gz
RH
58 45 50 49 44 47 62 75 86 99 100 100 82 93 97 83 81 64 81 94 100 75 100 88 77 97 98 98 97 97 90 92 80 76 48 16 8 10 14 15 16 16 19
65 62 69 78 88 95 80 83 97 91 94 64 89 92 80 75 72 63 85 73 99 98 96 73 98 99 79 99 99 95 97 89 77 40 12 9 13 15 12 14 15 20 29
68 78 64 63 82 91 97 96 94 86 62 62 74 80 74 66 63 64 82 100 100 90 79 100 95 83 100 99 89 96 92 63 18 10 10 13 12 12 12 12 12 20 45
78 84 62 51 65 93 83 85 78 60 59 60 65 68 69 69 71 80 98 94 80 99 82 100 94 99 99 90 96 87 39 13 12 15 13 12 10 9 10 12 9 28 44
55 53 52 47 49 57 57 64 58 51 60 73 79 76 75 78 89 99 98 90 97 92 100 100 100 94 95 93 48 15 11 15 16 14 12 10 10 9 7 7 7 9 13
49 52 39 38 42 47 51 53 50 55 66 72 72 73 81 75 50 36 38 83 86 100 100 86 95 92 59 22 13 12 18 17 15 13 12 11 10 8 7 6 6 6 8
37 35 39 40 34 45 50 48 52 68 70 73 65 40 31 28 32 42 62 76 85 72 77 79 56 32 15 13 16 20 19 17 15 14 14 12 10 7 6 5 5 4 4
44 44 39 30 42 58 54 52 65 66 43 28 25 26 29 34 41 55 63 65 64 64 52 34 19 18 14 16 20 21 18 17 17 16 13 10 8 6 6 5 4 3 3
55 41 32 40 52 57 66 51 32 28 25 24 27 31 36 45 52 54 52 51 47 40 23 21 21 16 18 22 23 22 20 20 19 16 12 10 8 6 5 4 4 4 3
37 36 44 54 54 34 32 32 28 25 26 28 33 40 45 48 49 50 49 44 31 20 22 21 17 20 24 25 24 23 23 24 21 17 13 10 8 7 6 4 4 7 9
38 40 37 32 34 35 35 32 28 30 34 39 44 47 50 54 52 50 43 28 24 24 24 20 21 25 27 26 26 26 26 24 20 15 12 10 8 7 5 4 8 33 30
41 36 33 34 37 39 37 34 35 39 46 52 56 59 61 60 54 44 32 26 26 27 22 22 26 29 29 29 29 29 25 20 15 12 12 10 9 8 4 4 15 53 58
41 36 34 36 39 41 41 41 45 51 56 62 66 71 68 62 48 32 24 26 26 23 24 28 32 33 33 32 30 26 19 15 13 13 12 11 8 6 4 7 50 56 29
48 42 38 39 40 43 47 54 61 71 76 78 82 82 70 51 30 24 26 28 33 27 31 34 36 37 34 30 26 21 15 15 15 14 12 9 6 5 6 37 64 75 85
54 52 47 47 50 52 58 69 81 91 97 99 94 78 48 30 35 46 86 80 67 57 38 45 52 42 32 28 24 20 17 17 16 13 9 6 6 6 25 62 78 82 100
61 62 60 64 74 86 90 99 100 100 98 96 88 71 57 74 93 96 95 86 87 87 92 92 71 42 32 31 30 27 24 20 16 12 8 7 7 8 56 82 93 79 88
74 78 85 93 100 100 100 100 100 98 96 96 94 94 95 96 95 93 93 95 96 96 96 94 82 45 39 38 34 31 28 22 16 11 8 8 8 11 42 89 96 100 99
97 97 99 98 97 98 97 96 96 95 95 96 96 95 96 96 96 96 96 96 96 96 96 94 80 68 52 42 39 34 28 19 13 10 10 10 12 14 16 73 100 99 100
98 98 97 96 96 97 96 95 95 96 96 96 96 96 96 96 96 96 96 96 96 96 97 95 76 55 52 47 39 32 23 15 13 12 12 12 16 17 18 28 99 100 100
98 97 97 96 96 96 96 96 95 95 95 96 96 96 96 96 96 96 96 97 97 96 77 65 71 67 57 45 38 27 19 16 16 16 16 17 22 21 22 44 100 100 100
95 97 97 96 96 96 95 95 95 95 96 96 96 96 96 96 96 97 97 92 73 88 97 97 90 78 59 46 31 22 20 20 20 20 21 27 40 36 25 35 100 100 100
95 96 95 95 95 95 95 96 96 97 97 96 96 96 96 96 95 96 96 99 100 100 99 97 97 81 55 34 26 24 24 24 27 28 34 40 46 44 26 29 98 100 100
95 95 95 96 96 97 97 97 97 97 96 95 96 99 100 100 100 100 100 100 100 100 100 100 91 60 36 32 32 32 31 33 33 38 37 32 41 47 33 36 69 100 100
94 95 96 97 97 96 95 91 89 93 97 100 100 100 100 100 100 100 100 100 100 100 98 74 51 38 36 37 40 46 48 44 44 41 35 33 34 44 42 46 88 100 100
96 96 92 85 82 82 81 81 83 86 88 90 94 97 99 100 100 100 100 100 99 83 57 48 46 44 44 47 56 57 54 54 49 44 39 38 36 45 46 56 99 100 100
73 59 42 26 16 12 12 12 12 14 16 20 26 35 47 61 72 76 74 66 61 56 53 53 52 52 56 65 65 62 63 59 55 54 48 45 42 47 48 55 91 100 100

GFSGL_700_rhum_075.txt.gz
RH
57 54 43 39 39 41 44 47 62 75 79 99 99 99 98 99 91 92 98 92 95 89 100 95 99 86 100 80 54 99 99 77 76 73 75 84 82 50 13 9 12 13 12
61 70 98 88 66 72 68 71 75 74 74 92 71 85 78 79 91 84 84 90 85 96 99 79 100 100 78 79 99 100 98 88 90 75 83 85 30 11 12 14 12 10 9
64 72 73 69 69 62 69 77 79 81 96 74 58 58 76 82 85 72 73 76 98 97 94 100 100 99 76 100 99 96 100 100 81 90 73 16 12 14 14 12 10 10 9
44 55 58 70 54 67 53 73 87 83 84 74 74 84 77 72 70 66 90 92 94 96 99 94 93 80 92 82 92 100 100 93 94 38 14 12 16 16 13 12 11 11 10
30 48 54 54 57 69 53 49 55 58 63 65 70 75 70 69 67 86 93 98 94 79 90 99 89 100 80 100 100 95 89 75 22 13 14 18 18 15 14 14 14 12 11
38 49 57 57 57 54 44 47 48 52 61 61 62 66 69 72 88 96 96 98 100 100 97 62 74 83 100 100 67 88 48 14 13 16 20 19 17 17 17 16 13 11 11
48 48 54 55 52 48 43 42 54 62 64 65 62 72 79 85 85 92 82 90 80 56 67 100 97 100 94 66 65 24 14 15 19 21 21 19 20 20 19 15 12 11 10
55 54 60 59 58 46 33 38 58 70 75 66 76 77 59 55 50 59 57 54 62 75 83 96 94 65 65 41 15 15 16 20 22 22 22 22 23 21 17 14 12 11 11
33 65 71 68 58 37 41 54 63 72 77 60 35 30 31 38 44 45 44 53 62 73 79 84 73 52 22 15 17 18 21 22 22 23 24 25 23 17 13 12 12 11 10
30 42 55 43 38 47 64 65 50 35 31 30 30 34 38 40 43 48 54 59 62 62 61 52 29 16 17 18 20 22 24 25 25 27 28 26 22 18 14 13 12 10 8
33 35 38 41 45 40 33 33 35 35 34 33 36 39 42 49 56 63 66 66 64 56 39 21 17 19 20 21 23 25 27 28 31 32 29 25 21 17 16 15 12 10 7
36 39 43 42 36 33 34 37 38 39 41 44 48 53 60 66 70 73 72 65 51 29 19 20 21 27 22 35 30 29 33 35 37 34 27 25 24 23 21 16 13 8 6
40 43 46 42 37 35 37 39 43 49 54 58 66 75 83 87 86 81 66 46 26 21 24 40 41 26 57 34 66 64 66 84 64 37 30 29 28 26 23 17 14 7 9
50 45 50 50 47 44 45 49 53 57 63 70 78 88 96 98 89 73 63 55 44 42 52 84 90 95 95 90 83 95 94 85 62 54 42 36 31 29 24 17 12 6 12
58 56 57 60 59 57 59 64 68 74 83 91 98 100 99 97 94 90 89 83 87 94 96 96 96 96 96 96 96 96 96 90 81 72 59 40 35 33 25 13 7 7 50
70 74 73 74 76 75 79 87 93 98 98 97 97 96 96 95 95 95 96 96 97 97 96 96 96 97 97 97 97 97 96 97 96 80 54 42 39 33 22 11 8 9 57
93 96 96 98 98 97 97 98 98 98 98 98 98 97 96 95 96 96 96 96 96 98 98 99 100 100 99 97 96 96 96 96 85 58 51 47 38 26 15 9 8 10 59
95 97 94 96 99 100 100 98 98 98 97 96 96 97 97 96 96 96 97 97 97 98 98 98 98 98 97 97 97 97 97 84 72 65 58 44 29 19 12 11 12 12 43
99 100 99 98 98 98 98 97 97 97 98 97 97 96 96 98 97 97 97 97 97 97 97 97 97 97 97 97 95 94 96 94 80 67 45 29 18 15 14 15 16 18 20
99 97 97 96 95 95 98 98 99 98 98 98 97 97 97 96 96 96 96 97 97 97 97 97 96 93 88 98 100 98 98 95 70 45 31 22 20 20 19 21 30 23 23
96 96 96 96 95 95 95 96 98 97 96 96 96 97 97 98 98 98 98 98 98 98 98 100 100 100 100 100 100 100 100 79 51 35 26 25 26 28 35 38 43 33 27
95 95 95 95 95 95 96 97 97 97 98 99 99 99 99 99 99 98 96 98 100 100 100 100 100 100 100 100 100 96 78 50 35 33 33 35 36 40 38 38 49 32 30
94 94 95 95 94 95 96 96 97 98 99 97 89 78 72 72 78 86 94 100 100 100 100 100 100 100 100 99 86 62 46 39 39 43 45 46 46 41 38 35 48 36 37
95 94 94 93 92 89 85 76 60 38 19 12 11 11 12 15 22 30 36 42 49 58 68 81 90 89 76 61 53 51 49 50 54 58 56 53 48 45 43 39 46 42 45
84 77 70 57 35 15 7 6 6 6 6 6 5 5 5 6 8 12 18 27 40 58 74 78 73 68 62 58 58 57 63 71 69 66 61 54 50 49 48 44 47 48 66
24 10 6 6 5 6 6 6 6 5 4 4 5 7 9 13 18 24 34 47 59 71 76 76 73 69 65 64 68 76 78 77 77 73 65 62 65 62 55 48 48 50 83

GFSGL_700_rhum_078.txt.gz
RH
40 34 34 34 32 32 32 34 37 39 43 53 69 77 94 95 97 90 98 95 92 93 92 87 98 94 88 100 87 100 99 77 68 99 100 88 92 83 92 88 37 12 11
53 56 69 70 72 56 48 50 47 53 62 68 79 97 98 79 98 98 99 100 97 92 99 97 100 91 100 100 80 88 100 78 98 100 81 100 100 90 86 31 13 14 16
53 52 60 70 92 80 69 55 52 62 83 81 90 82 95 73 74 69 74 83 96 100 100 100 97 100 98 76 99 96 86 99 100 98 98 100 98 81 25 14 15 18 17
36 39 47 60 72 76 75 73 68 78 81 80 81 79 75 77 76 82 81 85 86 94 91 99 100 96 94 100 98 98 98 100 100 98 100 97 78 22 15 16 20 20 18
32 30 33 47 60 65 63 62 55 52 58 67 73 84 81 69 66 69 71 72 77 98 98 99 100 93 63 93 98 100 100 98 100 100 86 76 22 15 17 20 22 21 20
36 37 38 40 46 56 60 53 49 51 50 59 64 68 72 60 64 69 74 92 97 98 100 94 79 98 97 98 90 100 96 100 100 80 74 19 15 18 21 23 23 24 22
34 31 60 49 52 57 55 49 48 47 49 54 59 60 67 63 66 71 87 100 98 93 98 92 94 99 88 64 100 100 100 100 78 53 17 16 18 21 24 25 27 26 25
36 27 53 54 50 56 53 57 60 52 43 44 65 70 66 66 69 81 79 70 99 100 99 99 92 62 65 95 97 100 99 80 44 16 17 19 22 23 25 36 37 43 53
33 25 32 53 61 64 76 85 60 42 50 62 65 69 73 76 50 38 40 61 56 66 60 49 55 73 81 100 100 100 83 32 16 18 20 24 28 33 46 56 57 54 57
28 28 31 40 50 56 56 41 43 53 66 71 69 48 37 33 32 36 40 45 46 47 51 60 73 80 82 92 91 58 20 17 19 23 39 60 43 55 69 87 67 67 54
30 31 35 37 40 41 42 48 55 57 51 41 36 36 37 38 41 46 50 52 57 64 70 74 76 80 80 57 26 18 20 41 72 85 81 26 68 96 94 81 78 71 43
42 41 39 36 38 43 46 42 36 36 38 39 41 44 47 50 54 58 63 69 77 82 84 86 84 79 71 45 26 28 67 75 61 68 57 90 96 96 92 90 79 50 33
47 49 48 44 42 46 44 39 38 39 42 46 52 59 62 65 72 78 82 88 94 95 93 94 92 72 72 76 86 94 89 63 87 95 96 96 96 95 96 96 73 43 40
52 54 55 56 53 55 54 53 53 53 55 62 70 77 83 89 93 95 96 96 96 96 96 96 95 95 95 95 95 97 96 95 96 96 95 95 96 96 96 92 66 49 45
57 59 63 67 71 73 73 74 77 82 86 92 96 97 97 97 97 97 97 97 96 96 96 96 96 98 98 97 96 95 96 97 96 95 96 96 96 96 96 81 58 52 44
66 71 79 82 82 90 97 98 98 97 97 98 96 97 96 96 96 96 97 97 97 97 97 96 96 96 96 96 94 96 97 97 97 97 97 97 96 97 91 71 62 53 44
84 92 94 97 99 95 88 96 100 99 98 100 98 96 96 98 98 96 93 93 94 96 96 98 97 97 97 97 97 97 98 99 98 98 98 98 97 93 83 71 62 51 39
96 95 92 91 94 100 100 100 97 93 92 93 94 97 96 96 95 95 95 96 95 95 96 96 96 97 98 98 98 98 99 98 98 98 100 100 99 91 81 71 56 38 19
98 100 100 100 99 99 98 96 93 91 92 94 93 92 92 94 95 95 95 96 97 97 97 96 97 97 98 98 99 98 99 100 100 100 100 100 98 88 71 51 32 20 16
100 99 99 97 96 96 96 95 94 94 95 96 95 95 95 96 96 97 97 97 98 98 99 100 99 100 100 100 100 100 100 100 100 100 100 98 82 52 39 29 25 22 22
99 97 96 96 96 96 95 92 92 93 95 94 95 95 96 96 97 100 100 100 98 94 88 88 95 100 100 100 100 100 100 100 100 100 94 68 48 40 39 38 34 32 33
96 96 96 95 95 94 94 94 94 93 91 87 83 79 72 62 44 26 17 12 13 16 20 23 31 40 49 62 75 89 99 100 94 74 58 52 49 51 50 47 45 41 36
95 95 95 95 95 94 88 76 62 46 29 15 8 6 6 6 6 5 5 5 5 6 8 12 16 25 44 64 76 75 71 66 62 61 58 59 64 65 62 57 50 43 38
95 95 92 74 51 32 15 7 5 5 5 5 6 5 5 5 5 6 7 9 11 16 23 31 42 55 68 77 78 76 72 70 68 69 70 70 73 73 67 61 53 47 44
65 33 14 6 5 5 4 5 5 6 6 6 6 7 8 8 9 12 16 22 29 35 43 52 60 63 67 71 72 72 74 76 80 81 80 79 77 76 74 66 60 52 49
6 5 4 4 5 6 6 6 6 7 8 8 9 10 11 13 17 23 29 33 36 40 46 52 56 58 61 64 69 78 88 89 88 89 85 81 79 84 92 87 76 58 53

GFSGL_700_rhum_081.txt.gz
RH
27 29 29 29 28 27 28 29 30 34 38 40 43 46 51 54 55 52 83 90 92 93 94 82 90 99 97 94 99 92 98 99 100 96 97 98 90 100 98 83 99 93 86
48 37 30 33 31 30 29 29 28 32 31 31 32 37 43 48 77 95 97 98 99 98 100 100 100 98 98 99 98 99 100 98 89 88 98 90 99 100 100 99 97 95 52
53 54 58 60 58 56 64 59 51 56 56 55 58 67 90 95 92 97 99 94 100 78 83 88 92 98 94 93 99 100 99 99 98 99 77 96 99 100 100 97 96 59 18
41 46 44 55 66 70 69 61 71 73 73 74 80 88 90 95 88 83 93 97 78 75 78 82 87 93 98 98 100 99 100 90 76 84 99 98 92 98 100 88 65 20 16
30 30 28 42 48 75 80 70 71 76 73 69 73 75 77 80 84 85 91 91 86 84 87 84 77 79 90 87 99 99 81 100 100 99 90 98 99 100 98 77 30 16 18
33 29 35 34 37 44 60 68 71 65 65 56 53 55 62 64 73 82 83 83 73 78 79 81 85 79 100 99 95 96 94 98 98 95 100 98 99 96 85 35 16 18 20
36 40 30 45 51 51 50 59 64 66 64 60 60 58 68 72 71 74 78 74 72 71 77 81 99 98 77 99 82 92 100 98 92 96 99 95 97 91 36 16 18 22 38
39 41 42 34 55 64 50 55 60 58 55 54 57 58 55 50 71 73 73 77 80 88 99 100 69 100 99 74 100 100 99 100 100 100 100 98 86 26 17 20 28 51 66
41 43 40 36 36 46 51 55 61 59 64 74 68 44 41 58 74 80 84 92 100 94 98 100 93 93 96 100 100 99 100 100 100 98 97 85 39 19 20 36 68 86 77
45 42 33 29 27 33 42 48 63 66 62 55 43 48 59 66 76 78 73 60 43 60 85 95 95 100 100 90 92 99 97 96 96 94 70 50 62 69 73 94 92 88 86
45 36 31 30 29 36 38 41 47 46 42 45 62 90 80 73 57 59 57 57 56 60 66 79 78 70 77 89 95 96 96 95 89 85 86 93 95 95 94 94 93 93 88
38 31 37 39 40 38 38 40 43 44 49 58 66 67 61 52 48 49 50 53 59 67 69 70 75 85 94 96 97 97 96 95 90 86 94 96 95 96 97 96 95 94 93
33 40 44 47 48 49 46 45 47 49 47 49 52 56 60 60 64 65 70 74 78 84 93 96 96 96 97 96 96 97 99 98 97 96 95 97 98 96 97 97 96 95 94
44 49 50 52 54 56 56 55 55 55 55 58 64 71 76 85 92 96 97 97 97 96 96 96 96 95 94 93 95 94 94 94 96 96 95 93 94 93 93 92 93 94 92
52 58 54 57 60 64 68 70 72 75 81 89 96 96 98 98 96 97 96 97 96 96 96 94 93 93 93 92 93 94 94 94 94 91 88 89 89 89 90 92 95 93 92
66 72 70 70 83 91 94 94 96 98 99 97 98 98 96 94 90 90 90 92 92 94 95 95 94 94 94 94 94 93 92 92 92 94 96 95 94 94 95 97 97 92 86
98 95 94 99 99 98 96 92 91 97 97 95 94 93 91 92 94 98 98 98 98 96 93 91 93 94 94 93 92 94 96 98 99 100 100 100 100 98 91 86 91 94 90
99 98 93 93 100 98 98 100 100 100 99 97 97 97 96 94 94 95 93 92 91 91 92 93 93 95 96 98 100 100 100 100 100 100 99 97 96 97 97 97 96 94 86
98 95 98 99 100 100 100 98 97 96 96 95 94 89 88 89 88 88 89 88 88 87 87 88 88 88 88 85 81 76 74 78 88 96 100 100 100 100 100 100 98 83 65
99 99 98 98 99 98 96 95 94 94 93 89 85 85 86 86 80 73 60 46 34 25 20 15 12 9 8 9 10 12 16 26 40 62 87 100 100 100 100 90 70 54 42
98 98 97 96 96 95 95 94 94 93 91 88 81 64 41 20 9 6 5 5 5 5 5 5 5 5 6 7 9 12 18 30 50 69 87 99 97 86 75 66 57 55 52
96 95 95 96 96 95 94 93 86 66 38 15 6 4 4 4 5 5 5 5 6 6 6 7 8 10 14 19 25 32 44 64 79 80 77 74 73 73 73 73 73 72 66
95 95 95 96 95 86 56 22 7 5 4 4 4 5 5 5 6 6 7 8 8 9 10 13 18 26 33 40 48 54 60 68 72 74 74 78 82 84 84 87 88 82 72
95 95 92 62 17 6 4 4 4 4 5 5 5 6 6 7 8 9 10 12 14 18 22 26 29 32 36 40 45 53 58 63 68 76 80 83 88 93 95 95 94 87 82
62 14 5 4 4 4 4 5 5 6 6 6 7 8 9 11 12 14 16 20 23 25 26 26 27 29 34 41 48 54 63 74 82 85 86 89 93 95 96 95 94 92 93
4 4 4 5 5 6 6 6 7 7 8 9 10 12 13 15 18 22 24 25 24 24 25 27 31 36 42 52 65 76 82 84 86 88 87 89 93 99 100 99 100 98 96

GFSGL_700_rhum_084.txt.gz
RH
24 25 26 29 30 31 32 33 35 42 48 51 57 53 54 58 59 60 58 58 57 54 53 58 90 99 95 99 99 99 93 99 100 96 99 98 100 97 99 93 80 100 100
25 26 26 27 28 29 30 32 35 37 41 45 50 52 52 52 55 54 54 58 59 64 76 96 99 93 94 99 98 98 93 99 94 98 97 99 99 100 96 94 100 98 77
48 41 32 30 30 30 31 29 34 33 30 34 37 41 45 43 43 44 48 61 76 75 97 86 94 99 95 94 95 98 100 100 87 91 100 99 99 98 99 100 99 87 94
52 51 54 54 48 50 46 42 49 64 50 58 53 48 48 47 50 54 68 78 96 100 95 86 89 99 100 100 100 99 100 100 97 99 99 97 99 100 98 96 96 99 96
53 43 44 48 58 64 64 65 65 59 65 60 74 78 79 76 77 85 89 90 90 92 93 95 100 100 97 99 94 92 96 99 96 100 94 100 99 99 99 98 98 98 96
25 27 31 33 48 46 58 68 75 68 66 72 78 83 86 73 69 78 86 88 88 96 100 96 99 78 100 94 97 89 96 100 99 98 76 100 99 100 98 98 99 98 94
29 29 27 29 33 35 38 44 49 62 69 74 79 77 68 66 64 63 64 72 75 74 79 82 96 97 100 93 100 99 87 97 100 98 100 99 99 99 100 100 98 96 75
33 30 32 38 37 35 45 50 51 56 65 65 66 68 66 60 56 55 60 66 78 89 95 92 100 99 100 100 99 100 99 100 97 100 99 98 97 100 99 98 96 89 69
37 36 34 38 40 40 36 46 53 51 56 62 63 62 58 55 61 70 50 50 94 100 100 100 100 100 99 98 100 89 99 100 100 100 94 90 96 97 96 93 87 94 91
37 38 41 43 43 42 36 34 44 51 53 61 62 61 65 71 68 50 80 99 100 100 100 100 100 97 100 100 100 100 100 99 80 85 95 96 96 95 96 93 90 91 95
36 39 41 44 44 39 30 28 30 37 42 49 55 57 62 55 57 97 100 100 100 100 100 100 100 100 100 100 98 86 83 92 96 96 96 96 93 89 88 89 97 97 94
34 37 43 47 45 33 32 34 36 40 43 45 47 47 60 99 100 100 100 100 100 99 99 91 90 93 85 82 91 96 96 95 93 94 94 95 94 95 96 95 96 97 96
39 48 51 49 36 35 38 40 42 43 43 45 50 73 97 100 100 100 98 92 91 93 94 94 96 96 96 96 97 96 96 94 94 95 95 95 94 93 90 89 90 92 94
53 61 51 38 39 43 46 49 51 51 52 55 66 74 84 91 90 80 80 93 98 97 96 96 95 95 96 94 93 92 91 91 92 89 84 84 86 87 86 88 87 89 92
63 50 49 48 53 57 56 59 61 63 68 74 76 80 85 91 98 99 99 97 96 96 94 91 91 93 93 93 91 87 85 83 83 84 86 89 90 92 92 94 95 94 95
86 81 73 68 64 72 83 73 76 80 93 97 98 100 100 99 97 96 95 94 89 90 89 90 90 91 91 88 85 86 88 88 90 92 93 94 97 98 99 100 100 100 100
91 86 87 86 94 99 98 99 98 97 94 94 96 96 98 96 94 90 89 90 90 87 87 84 84 84 86 87 87 84 78 70 61 66 71 80 86 89 93 95 100 100 100
98 98 99 98 98 97 98 98 96 97 98 100 99 98 93 89 89 91 87 82 82 81 82 79 68 51 31 17 9 7 6 6 6 7 8 10 15 25 44 76 97 100 100
97 98 98 94 96 99 99 100 100 99 98 97 95 94 94 91 85 82 80 74 55 26 10 5 4 5 5 5 5 6 6 6 7 8 10 14 20 34 54 84 100 100 100
98 99 100 99 98 97 96 97 95 96 96 96 96 92 86 79 59 27 8 4 4 4 4 5 5 6 6 6 7 7 8 10 13 18 24 35 51 69 76 84 92 92 86
97 97 95 96 96 97 95 95 95 95 94 93 81 44 11 4 4 4 4 4 4 5 6 6 7 8 8 9 10 14 19 25 30 37 47 59 70 75 77 77 79 79 79
97 95 95 96 96 96 95 94 91 81 49 11 4 4 4 4 4 5 5 6 6 7 8 8 10 11 14 18 22 26 30 33 38 44 51 58 64 70 74 80 84 88 90
95 96 96 96 96 94 86 55 16 4 4 4 4 4 5 5 6 6 6 7 8 9 11 13 17 19 22 23 24 26 29 33 38 43 50 62 72 80 86 90 93 93 92
95 95 95 90 56 15 5 4 4 4 4 5 5 5 6 6 7 7 8 9 11 13 16 18 20 20 20 21 22 26 30 38 50 62 71 78 86 90 91 90 92 91 91
83 46 12 5 4 4 4 4 5 5 5 6 6 7 7 8 9 10 11 13 16 19 20 21 21 21 22 25 30 41 53 62 68 70 74 80 84 89 92 91 94 93 96
7 4 4 4 5 5 5 6 6 6 7 7 8 8 9 10 12 13 15 18 22 25 27 27 27 28 32 42 51 58 63 67 69 72 82 89 94 98 97 97 100 99 100

GFSGL_700_rhum_087.txt.gz
RH
20 23 24 25 29 43 49 62 71 87 85 77 73 71 76 69 68 69 65 66 62 58 65 70 71 69 65 70 88 92 99 100 98 97 100 99 95 98 98 89 100 98 98
21 22 23 27 28 29 30 34 42 45 57 66 81 72 66 63 64 63 58 54 58 59 63 72 78 74 68 82 100 98 96 97 90 88 92 96 96 89 93 99 99 98 88
23 23 23 24 26 28 30 32 35 41 52 62 74 70 63 61 62 61 61 59 60 63 61 60 60 80 97 100 100 93 95 97 98 92 99 99 94 97 100 100 98 98 99
40 40 35 31 27 27 28 30 30 31 30 33 35 42 60 62 57 55 60 58 55 48 45 55 70 94 97 95 91 86 98 98 99 95 98 100 97 94 100 100 97 100 99
50 48 50 51 50 42 31 32 31 32 39 52 60 40 33 44 42 41 47 54 56 61 72 84 88 96 87 88 92 99 98 99 97 100 98 92 98 99 98 96 88 99 100
49 53 55 58 58 55 51 46 52 56 61 66 71 75 76 70 77 86 91 95 90 90 92 93 89 88 91 95 100 99 100 100 100 96 100 100 100 100 100 100 100 98 99
48 51 46 35 36 51 53 49 51 50 66 71 73 68 67 71 75 80 86 90 86 78 73 72 80 95 94 98 96 100 100 100 100 100 100 99 100 99 98 100 98 96 97
31 30 27 26 25 29 33 35 35 36 39 48 69 79 82 80 78 78 80 81 78 75 70 74 92 99 98 98 100 99 100 100 100 99 99 99 98 99 98 97 96 96 96
25 27 29 30 31 34 36 36 40 36 32 52 54 58 67 68 69 72 74 76 70 69 83 71 83 98 99 98 100 100 99 98 98 100 99 100 97 98 97 96 97 94 92
27 30 31 32 34 38 39 35 41 40 42 50 57 57 62 69 71 72 69 68 77 90 80 99 99 100 100 100 99 99 99 100 100 100 100 99 99 96 96 95 95 94 94
48 44 35 35 38 40 41 45 45 44 38 41 57 62 66 72 74 73 81 89 74 95 99 100 100 100 99 100 100 100 100 99 95 97 96 96 95 92 92 92 95 96 96
44 45 42 39 40 47 51 52 52 49 40 39 53 62 67 66 72 82 75 88 100 100 100 100 100 100 100 100 100 99 96 95 96 96 95 95 91 91 94 94 93 90 88
51 50 57 48 46 45 54 60 61 56 36 42 44 42 48 59 64 89 100 100 100 100 100 86 94 100 98 96 95 95 95 92 92 91 88 85 84 82 82 82 84 86 86
46 49 44 48 55 57 68 71 68 63 55 47 60 60 67 70 99 100 100 100 100 94 98 98 97 97 96 94 93 86 85 82 80 79 78 78 79 80 79 80 75 73 74
48 51 48 70 78 74 82 73 70 74 81 87 93 73 96 100 100 100 99 99 100 99 97 95 95 93 86 82 77 73 72 71 71 66 53 34 18 11 10 15 19 25 38
93 92 96 98 100 100 97 82 96 89 82 90 99 99 98 98 97 97 96 96 96 96 95 91 86 85 77 74 73 70 53 26 8 4 4 5 5 5 5 6 7 9 13
100 100 100 100 100 98 95 91 98 98 98 98 97 96 96 96 96 96 96 96 94 93 94 89 76 73 66 40 10 4 4 4 4 5 5 6 6 6 7 8 11 16 24
99 98 99 98 98 98 98 98 97 96 97 96 97 97 96 96 96 96 96 95 95 90 80 63 31 6 4 4 4 4 5 5 6 6 7 7 9 11 15 19 27 43 59
98 98 98 98 97 96 97 98 97 97 96 97 98 96 96 95 96 95 95 92 73 32 6 3 3 4 4 4 5 6 6 7 8 8 11 15 20 25 31 38 51 66 72
100 98 97 97 97 98 97 96 96 96 96 95 95 95 95 95 92 72 26 5 4 3 4 4 4 5 5 6 7 8 9 10 13 18 23 26 28 31 35 42 52 58 64
96 96 96 95 95 96 98 100 97 96 95 95 94 89 60 21 4 3 3 4 4 4 4 5 6 6 7 8 10 13 15 18 20 22 24 26 28 32 38 46 54 63 71
98 98 98 97 97 97 96 96 95 94 91 74 28 6 4 4 4 4 4 4 5 5 6 7 7 8 11 13 15 17 18 18 19 20 23 29 37 45 52 60 65 73 77
96 96 96 96 97 96 94 92 72 30 8 4 4 4 4 4 4 5 5 6 6 7 8 8 10 13 15 17 18 17 17 18 22 28 39 51 57 61 64 66 72 74 77
95 95 95 94 90 61 25 8 4 4 4 4 4 4 5 5 6 6 7 7 8 8 9 11 15 18 19 19 19 19 22 29 39 48 54 60 66 72 77 82 84 85 86
95 89 66 37 17 8 5 4 4 4 4 5 5 5 6 6 7 8 8 9 10 11 14 17 20 22 23 23 24 27 35 45 51 54 63 75 81 84 86 86 89 90 92
57 38 22 8 5 4 4 4 5 5 5 6 6 7 8 8 9 9 10 11 14 17 20 22 25 27 29 31 34 39 48 51 54 66 73 79 87 94 94 94 97 97 96

GFSGL_700_rhum_093.txt.gz
RH
18 17 20 21 36 65 78 89 86 83 99 91 84 80 77 82 95 99 98 85 85 77 65 70 67 70 70 72 75 72 71 88 93 94 88 85 98 100 100 100 89 86 83
20 19 20 22 21 22 29 53 81 71 88 100 98 94 93 89 95 95 97 85 81 79 74 75 71 72 78 74 71 68 71 84 94 86 81 91 98 100 99 100 89 99 98
21 21 21 21 24 25 24 29 38 55 65 69 92 98 99 96 97 98 100 100 98 88 77 78 77 77 76 70 68 70 67 66 71 79 96 98 99 97 88 99 98 99 100
23 23 22 22 22 25 27 27 27 29 35 42 50 68 77 87 91 93 98 93 91 94 90 85 80 73 70 65 66 60 63 77 96 98 84 96 98 96 80 98 98 98 100
27 29 31 26 25 24 25 27 30 32 32 34 37 39 50 61 62 64 69 68 74 76 80 80 71 64 60 60 54 65 96 90 97 97 84 79 98 99 98 95 99 99 100
32 34 35 35 34 36 38 38 30 28 30 33 35 36 39 40 42 47 58 58 65 81 83 82 70 55 57 70 93 93 84 98 97 96 100 91 99 100 99 100 99 94 99
42 39 38 40 42 43 43 45 48 48 40 33 29 32 34 36 38 42 52 61 87 83 76 72 79 79 83 93 97 89 100 100 99 100 97 99 98 99 93 99 98 95 94
41 46 44 40 44 48 53 56 62 62 62 63 55 36 32 38 41 46 52 60 70 76 78 81 92 96 97 98 100 99 98 99 99 99 92 95 98 99 97 95 95 98 98
46 42 42 47 49 50 52 57 62 71 76 74 68 69 52 48 48 52 60 73 81 86 92 93 98 100 99 97 100 100 99 97 98 94 95 99 100 98 96 98 98 98 97
63 48 54 52 44 51 59 67 70 70 59 44 56 60 75 72 57 58 62 67 78 92 97 98 98 99 100 100 100 100 84 94 98 99 99 98 98 97 99 95 93 92 79
59 57 58 56 55 49 49 51 64 57 42 40 44 54 64 65 70 77 92 99 97 97 99 100 98 100 100 87 84 99 99 99 99 98 97 96 96 96 92 77 65 59 50
62 70 63 55 67 55 56 59 56 56 52 57 56 66 86 94 88 72 88 100 100 100 100 98 100 100 100 100 99 99 99 99 96 96 95 94 95 82 60 46 26 8 4
61 68 77 74 77 76 64 59 73 82 80 80 81 77 92 100 98 100 98 100 100 100 100 100 99 98 99 99 98 97 96 96 96 95 94 94 92 68 19 6 4 3 3
65 78 85 90 83 77 76 74 78 83 93 92 100 100 100 100 99 100 100 100 99 99 99 99 98 97 97 96 96 96 96 95 94 94 94 81 39 11 7 3 3 3 4
70 86 98 99 94 94 91 90 88 95 98 100 99 100 99 100 100 100 96 99 97 98 94 96 97 97 96 95 94 95 95 91 78 48 22 9 4 3 3 3 4 4 4
99 97 96 99 99 100 98 98 99 100 100 99 100 100 99 99 98 98 91 94 97 96 94 96 97 95 94 92 91 89 74 33 8 3 3 3 3 4 4 5 5 6 8
82 90 94 95 97 99 100 100 99 100 99 99 98 97 95 97 92 98 98 98 92 97 95 96 96 95 88 69 30 7 4 3 3 3 3 4 4 5 6 7 8 10 11
73 77 74 89 92 97 97 98 97 97 96 96 97 97 96 98 97 95 94 94 96 95 95 93 80 41 9 5 4 3 3 3 4 4 5 5 6 7 9 10 11 12 13
95 90 94 95 90 97 100 98 97 97 98 94 95 99 96 96 99 94 95 94 92 75 42 14 7 4 3 3 3 4 4 4 5 6 6 7 8 10 11 12 15 21 23
99 99 99 99 95 98 100 97 96 96 98 96 95 94 94 94 94 93 85 69 33 11 6 4 3 3 4 4 4 4 5 6 6 7 8 10 11 12 14 21 24 25 30
100 100 98 98 100 100 98 97 96 97 98 98 96 94 90 86 64 28 7 5 4 4 3 4 4 4 5 5 6 6 6 7 8 9 11 12 13 18 24 26 32 40 44
100 98 97 98 97 95 95 96 98 98 95 92 87 71 32 11 7 5 4 4 4 4 4 4 5 6 6 6 6 7 8 8 10 12 14 16 22 25 28 37 43 47 55
98 96 96 95 96 98 97 97 96 90 68 39 18 10 7 5 4 4 4 4 4 5 5 6 6 6 7 7 8 9 10 11 14 17 20 27 26 30 38 43 48 52 59
95 95 96 96 96 95 92 82 55 29 14 8 5 4 4 4 4 5 5 5 6 6 6 7 8 8 9 9 10 11 14 16 18 22 29 29 32 39 44 52 56 62 68
96 95 95 93 80 53 33 24 14 8 6 4 4 5 5 5 6 6 6 7 7 7 8 9 10 10 11 12 13 14 17 20 22 30 33 33 42 45 51 55 62 75 83
96 96 95 80 45 14 6 5 5 5 5 5 5 6 6 7 7 7 8 8 9 10 10 11 12 12 14 15 15 16 20 23 25 34 34 40 48 54 57 62 73 82 88

GFSGL_700_rhum_096.txt.gz
RH
22 17 20 23 42 70 83 91 95 85 91 96 88 88 97 94 92 98 97 97 91 99 99 96 97 97 79 70 68 69 80 89 92 70 71 74 82 86 81 91 95 99 98
22 22 20 22 22 30 53 71 88 88 84 95 90 82 87 93 98 95 92 99 99 98 94 95 93 96 92 73 72 74 82 82 83 71 68 69 67 80 99 95 86 95 100
21 22 22 22 24 25 26 44 64 76 79 84 82 80 76 76 73 72 78 95 98 98 94 90 95 86 81 78 76 78 88 84 75 75 74 74 72 86 93 86 92 95 99
22 22 22 21 22 24 26 27 30 48 62 67 71 78 79 81 83 82 83 94 96 98 99 91 84 83 80 80 86 86 76 74 71 73 80 78 90 88 95 88 87 91 97
28 26 25 22 22 23 25 27 29 29 34 54 60 60 67 74 76 80 83 84 90 94 98 100 100 100 93 91 90 76 81 75 75 72 76 92 90 99 86 93 89 89 99
39 31 35 29 27 27 24 25 27 29 31 33 34 37 39 39 48 65 80 86 90 93 94 99 100 98 95 95 90 80 80 76 79 87 98 100 95 89 100 98 88 84 92
60 50 44 42 37 32 32 30 30 30 30 31 34 36 37 39 44 54 71 76 81 84 92 98 98 90 90 89 83 76 82 84 92 97 97 99 97 100 98 95 80 96 100
61 55 57 53 51 47 40 39 38 37 36 33 31 31 34 35 39 46 59 69 50 50 59 71 83 93 82 72 64 68 82 97 90 99 85 100 99 98 85 85 87 95 98
62 60 57 61 56 59 54 51 50 53 58 62 53 49 48 47 36 35 44 56 53 60 61 66 80 92 100 95 98 97 97 99 99 100 100 100 100 100 100 98 100 100 96
46 52 58 60 61 56 56 58 66 71 69 66 69 69 73 74 68 58 47 52 70 70 65 95 100 100 99 85 80 100 95 97 100 100 99 99 99 100 99 99 98 94 96
42 44 48 60 70 67 65 65 58 62 65 67 70 79 85 83 78 77 89 88 82 91 91 100 99 98 97 100 100 100 99 100 98 98 97 99 98 97 96 95 92 89 91
48 47 47 46 52 73 80 83 75 70 71 65 62 76 85 96 97 100 99 100 96 100 100 99 100 100 100 100 100 99 99 99 97 98 94 96 97 96 90 87 81 76 70
58 59 55 51 61 61 76 98 100 94 90 86 76 69 93 100 100 100 100 97 97 100 100 99 100 100 100 100 97 97 95 96 96 96 96 95 96 87 82 74 35 8 4
73 72 68 61 69 79 84 98 99 97 99 97 99 97 79 90 97 98 100 99 100 100 99 100 99 97 94 95 96 96 95 95 96 95 96 91 76 22 5 4 3 3 3
88 82 81 86 94 98 98 99 99 99 100 100 100 100 99 98 100 100 99 98 99 96 95 96 95 97 95 94 96 95 96 95 90 62 17 6 5 3 3 3 3 3 4
78 90 90 85 90 98 97 99 100 100 100 100 100 100 100 100 100 99 95 97 94 96 97 97 97 94 96 98 91 84 50 20 8 5 4 3 3 3 3 3 4 4 5
49 60 54 92 85 72 71 71 85 96 98 96 96 95 96 97 97 96 94 96 97 96 96 94 94 94 95 93 68 26 7 5 4 3 3 3 3 4 4 5 5 6 7
61 72 79 80 90 82 79 90 99 94 88 88 92 95 95 97 97 96 96 96 95 95 94 95 90 73 18 7 5 4 3 3 3 3 4 4 4 5 5 6 7 8 10
66 55 78 88 90 92 90 93 95 96 96 99 100 98 96 97 96 96 96 96 94 90 62 27 10 7 6 4 4 3 3 4 4 4 5 5 6 6 7 7 9 12 14
91 97 98 98 92 97 93 98 99 100 96 97 98 97 95 94 96 97 88 68 38 14 7 6 5 4 3 3 4 4 4 4 5 5 5 6 6 7 9 11 15 18 23
97 97 99 100 99 98 100 100 100 97 97 96 96 97 96 94 89 63 28 12 10 7 5 4 4 4 4 4 4 5 5 5 6 6 6 7 9 11 15 19 21 25 28
97 100 96 97 97 100 100 98 96 96 96 97 94 86 62 28 15 9 8 6 4 4 4 4 4 5 5 5 5 6 6 7 7 8 9 11 13 16 21 23 28 33 38
97 96 96 94 95 96 96 97 97 96 89 64 35 21 15 9 6 5 4 4 4 4 5 5 5 6 6 6 7 7 8 9 9 11 14 15 17 24 25 28 34 41 42
96 96 96 97 95 97 97 96 89 61 28 16 11 8 6 4 4 4 5 5 5 6 6 6 7 7 7 8 8 9 10 10 12 16 17 19 25 26 28 32 41 44 48
96 96 96 96 96 95 91 86 73 32 9 5 5 5 5 5 5 6 6 6 7 7 8 8 8 8 9 9 10 11 12 13 14 17 21 26 29 29 33 38 46 52 58
98 96 96 96 95 90 55 24 8 5 5 5 5 5 6 6 7 7 8 8 9 9 9 9 9 10 11 12 12 14 15 15 16 20 23 29 34 34 40 48 52 58 64

GFSGL_700_rhum_099.txt.gz
RH
16 18 18 21 23 49 72 87 92 95 99 100 100 100 99 100 100 99 98 99 100 98 100 100 96 96 94 95 100 99 98 97 86 65 71 79 84 76 79 80 75 78 89
18 20 19 21 22 24 46 70 78 92 96 100 99 91 100 100 99 100 100 99 93 99 99 100 99 100 97 99 100 97 80 76 72 64 73 77 83 78 79 77 74 75 80
19 21 22 21 23 25 25 37 56 71 77 88 96 89 83 96 100 99 97 90 93 88 94 97 99 100 99 100 95 88 83 78 84 84 78 83 80 79 77 75 80 83 87
23 21 22 22 22 23 26 26 30 45 58 65 70 78 82 78 89 87 85 87 84 85 89 98 98 99 98 99 99 99 85 88 86 86 92 88 80 78 75 74 74 86 91
44 24 22 22 22 22 23 27 28 29 36 48 54 60 66 72 69 76 83 83 82 80 100 100 99 100 95 98 98 97 93 94 90 96 96 99 89 82 74 93 88 100 98
58 49 41 36 31 24 23 23 25 28 30 32 33 36 42 51 62 69 70 74 77 80 85 95 98 98 98 99 100 100 100 99 98 99 100 82 72 97 86 99 99 98 99
73 65 53 51 47 44 31 25 24 25 29 30 32 34 35 38 49 60 71 77 82 84 84 84 90 100 100 100 99 98 96 98 96 88 82 79 96 100 100 99 99 98 99
86 74 71 65 62 57 53 49 31 27 26 28 31 32 34 35 42 51 68 79 82 82 84 87 98 100 100 99 100 97 93 92 97 100 95 99 100 99 98 98 99 99 99
57 61 63 72 69 67 65 60 56 55 36 30 28 30 32 34 38 48 68 71 63 60 68 77 83 90 97 94 89 91 87 84 94 99 96 99 95 99 100 100 100 100 100
59 51 44 44 60 58 66 64 67 65 62 62 51 46 49 40 37 42 53 57 75 81 96 94 87 95 87 96 99 82 83 100 100 99 100 100 93 99 99 99 98 97 96
55 50 45 43 39 41 58 66 78 86 81 77 80 88 80 75 78 71 51 50 76 87 92 99 78 74 84 85 94 94 95 100 100 100 100 99 98 98 96 96 97 96 94
56 52 42 47 43 45 54 66 74 78 80 83 90 99 98 99 98 86 97 93 92 95 95 96 97 97 97 99 99 100 100 99 100 97 95 95 96 96 96 96 96 96 89
41 34 37 43 48 51 56 58 72 87 90 88 91 91 94 100 97 100 100 100 99 98 90 100 100 100 100 100 100 98 97 96 94 97 95 95 96 96 96 95 81 40 9
48 49 54 58 63 62 63 69 90 97 94 99 97 98 92 79 88 94 100 99 100 88 100 99 100 98 99 97 96 95 95 99 93 95 96 96 93 71 29 8 5 4 3
59 65 65 80 82 74 69 71 98 99 97 100 98 100 99 98 99 98 100 100 100 100 100 100 98 94 96 96 98 95 96 96 96 94 79 60 28 11 5 4 3 3 3
42 60 54 67 81 82 84 88 95 100 98 91 97 100 99 99 95 96 97 95 95 96 96 99 95 95 96 96 98 96 96 95 82 48 20 7 4 3 3 3 3 4 4
54 44 48 55 70 76 75 74 70 80 92 98 98 97 97 97 99 95 99 95 98 97 95 98 99 96 96 96 95 93 64 27 7 4 3 3 4 4 4 4 4 4 5
63 59 53 57 68 66 59 65 79 78 78 80 87 97 100 100 98 97 98 100 98 94 96 96 96 95 92 60 17 7 5 4 3 3 4 4 4 4 4 5 5 6 7
71 64 55 66 70 79 74 74 79 90 91 86 93 94 96 96 97 96 96 97 98 95 94 77 33 13 8 7 5 4 3 3 4 4 4 5 5 5 5 6 7 8 10
84 84 76 79 89 91 92 92 93 91 90 93 96 96 95 95 96 96 95 95 94 92 67 23 10 6 4 4 4 4 4 4 4 5 5 5 6 6 7 8 9 12 13
100 100 100 99 96 100 99 98 96 94 94 94 98 97 98 95 95 90 60 23 12 9 7 5 4 4 4 4 4 5 5 5 6 6 6 7 8 8 9 10 14 16 17
99 99 99 98 98 99 98 97 96 98 96 95 95 97 94 86 53 19 14 9 6 5 4 4 4 5 5 5 5 6 6 6 7 7 8 8 10 12 14 18 19 19 20
98 97 98 97 96 95 95 98 99 98 97 96 92 77 44 27 13 8 6 4 4 5 5 5 6 6 6 6 6 7 8 8 8 9 9 11 12 16 19 20 21 22 29
98 98 98 98 99 99 98 96 95 94 92 91 84 66 40 14 6 5 5 5 5 6 6 6 6 7 7 7 8 9 9 10 10 11 12 12 14 18 20 24 26 29 31
98 98 97 97 97 98 97 95 95 95 94 80 36 10 6 5 5 6 6 6 7 7 7 7 8 8 9 9 10 10 11 12 13 13 13 14 16 18 22 29 31 34 35
95 95 96 96 96 96 95 93 80 55 25 11 8 6 6 6 6 7 7 8 8 8 9 9 10 10 11 11 12 12 13 14 14 15 16 16 16 18 26 34 35 39 42

GFSGL_700_rhum_102.txt.gz
RH
52 20 17 18 22 23 42 62 67 68 67 81 91 94 92 94 94 99 100 100 98 99 98 99 98 99 99 99 99 98 97 99 99 100 86 85 92 91 97 99 92 84 84
54 18 19 20 23 24 27 41 58 70 72 68 70 76 85 98 96 100 100 99 100 100 99 99 99 99 99 99 98 94 96 99 100 93 99 97 86 78 82 90 92 91 88
57 20 20 22 22 25 28 34 42 60 72 75 78 77 72 80 98 100 100 100 100 100 99 100 100 99 100 98 97 97 98 100 99 98 81 80 72 74 78 82 87 87 86
60 37 19 21 22 23 28 31 37 43 56 66 80 91 87 83 99 99 99 99 99 99 99 99 100 100 99 100 100 100 99 100 100 98 90 82 76 77 79 82 89 96 90
59 52 26 22 21 22 23 28 32 34 41 50 59 72 81 84 80 92 97 100 100 100 96 92 95 98 99 99 99 99 99 99 97 99 99 96 83 82 90 93 96 97 82
62 54 54 49 32 25 23 24 27 32 33 36 38 45 50 62 76 73 80 80 74 76 79 80 85 89 100 99 99 98 92 94 100 99 99 98 100 98 99 100 100 99 85
76 72 66 60 62 62 52 29 24 24 26 31 33 34 37 43 58 67 74 70 67 68 75 81 84 86 93 96 100 100 100 100 99 99 100 100 100 100 100 97 98 99 95
97 92 88 77 72 69 67 66 64 47 27 25 27 32 36 36 45 57 70 72 74 75 76 77 80 84 91 94 97 99 96 96 97 98 98 99 98 97 97 98 99 99 99
81 76 86 88 77 70 70 67 67 64 64 63 36 27 28 33 43 54 69 68 63 61 71 80 84 87 94 100 100 100 100 100 100 99 100 100 100 100 96 99 100 100 99
78 80 82 77 74 64 60 56 59 64 69 71 68 68 52 32 32 42 67 86 80 71 77 85 89 92 99 100 100 100 100 99 99 95 98 100 98 97 100 100 99 99 100
63 61 57 54 53 49 49 48 62 70 71 71 73 75 72 76 63 52 47 63 88 100 100 100 100 100 100 100 100 100 100 100 100 100 100 100 100 99 99 98 95 96 97
63 62 61 60 55 52 47 47 47 54 73 78 74 76 81 82 78 81 96 98 88 92 100 100 98 65 93 100 97 100 100 100 100 100 100 99 97 97 97 96 97 96 96
41 47 51 48 47 42 36 39 55 54 61 78 91 89 84 84 83 84 89 85 98 100 99 99 99 99 100 99 100 100 100 100 97 97 92 97 96 96 96 95 96 95 78
50 51 49 43 42 39 37 49 66 66 62 80 100 99 100 100 100 100 100 100 99 100 100 99 99 99 98 99 98 97 96 96 96 97 95 96 95 95 94 93 61 34 16
37 37 52 60 64 74 79 80 81 86 96 98 100 95 96 98 100 97 99 99 100 99 99 99 96 96 96 96 98 96 95 98 95 96 96 95 94 81 42 11 4 3 3
52 43 38 37 46 61 67 73 88 100 99 100 100 100 100 100 99 98 95 92 97 100 100 99 97 96 96 95 96 96 96 96 96 94 84 44 13 4 3 3 4 4 4
60 56 53 48 48 55 56 55 68 69 72 79 95 94 87 90 93 97 96 95 95 95 95 96 96 96 97 95 97 95 95 92 66 25 8 4 3 3 4 4 4 4 4
72 70 64 55 54 62 67 62 64 74 78 81 76 78 82 90 91 93 94 91 86 85 88 92 95 95 95 95 80 36 15 11 6 4 3 3 4 4 4 4 5 5 5
82 77 71 69 66 68 77 83 80 77 88 90 90 87 87 91 95 95 94 94 92 89 89 92 91 92 87 50 22 10 5 4 3 4 4 4 4 4 5 5 5 6 7
93 94 93 90 91 86 91 94 96 97 94 92 90 93 93 92 92 94 95 95 94 91 86 77 47 20 8 5 4 4 4 4 4 4 4 5 5 6 6 6 6 8 10
100 100 100 98 99 98 98 98 100 100 97 97 96 96 96 96 97 95 89 81 63 40 28 15 8 5 4 4 4 4 4 4 5 5 6 6 6 6 7 8 9 12 14
98 98 97 96 95 98 98 98 97 96 95 96 96 96 96 96 87 69 57 45 26 13 8 5 4 4 4 4 5 5 5 6 6 6 7 7 8 8 9 11 13 14 15
96 96 96 96 97 97 98 100 100 99 98 98 97 96 94 91 82 71 61 42 14 5 5 5 5 5 6 6 6 7 7 7 8 8 9 9 10 11 11 13 16 18 19
96 96 97 98 98 98 98 99 98 97 96 96 96 94 90 67 36 15 7 6 5 5 6 6 6 7 7 8 8 8 9 10 10 10 11 11 12 12 13 15 18 22 24
97 97 97 98 97 97 97 97 97 96 96 95 91 65 34 20 17 9 6 6 6 7 7 8 8 8 9 10 10 10 11 12 12 12 13 14 15 15 16 17 18 22 25
97 96 96 98 98 97 98 98 97 93 87 77 57 35 18 8 6 7 7 7 8 8 9 9 10 11 11 12 13 13 14 14 15 16 16 17 18 18 18 18 19 23 27

GFSGL_700_rhum_105.txt.gz
RH
42 56 67 41 18 22 21 29 64 79 71 68 69 75 99 99 99 100 100 100 100 100 100 100 99 99 98 98 89 98 98 98 95 83 94 100 100 99 99 89 92 94 91
52 64 66 20 19 24 24 27 55 74 75 78 78 79 95 99 100 99 98 99 99 100 100 100 99 99 99 98 96 99 100 100 96 75 98 99 99 98 96 97 92 93 87
59 61 56 19 20 26 28 28 38 56 72 74 78 73 79 85 88 83 80 85 96 100 100 99 99 99 99 99 100 99 100 100 98 94 95 98 100 99 99 97 96 86 85
64 63 40 20 22 25 28 30 34 42 50 60 65 53 59 67 70 90 94 91 93 99 99 98 99 98 99 99 98 99 99 99 99 99 97 89 99 100 100 97 90 90 94
62 64 41 23 22 23 24 29 32 34 41 43 46 49 48 55 72 67 97 98 99 99 99 100 100 100 100 97 99 98 98 99 99 99 98 99 99 99 98 100 99 99 94
65 67 67 37 25 23 23 24 27 31 34 37 42 46 45 54 65 76 75 97 99 99 100 100 100 100 100 100 100 100 100 100 100 99 100 98 100 99 99 98 99 99 99
78 76 71 69 61 48 32 25 25 26 28 31 35 38 42 51 61 70 84 82 90 98 100 100 100 100 100 100 100 100 100 99 100 99 99 98 90 98 100 98 99 94 93
90 80 85 77 79 76 74 75 71 59 44 31 29 32 38 44 56 66 73 76 79 80 80 81 84 93 100 100 100 99 99 99 97 96 98 98 98 99 99 97 99 99 99
100 96 100 94 84 83 80 74 72 70 65 64 66 60 36 30 42 54 66 64 60 66 78 83 86 89 89 100 100 100 100 96 89 91 95 99 100 100 100 98 98 100 100
95 97 87 75 79 78 71 69 56 55 71 71 67 61 61 65 63 49 40 48 53 61 66 90 99 100 100 99 99 97 95 95 98 98 98 99 92 98 99 99 100 99 99
97 89 79 76 73 76 66 62 61 60 65 70 74 73 70 73 76 74 84 84 69 53 47 60 72 87 99 98 98 95 96 98 99 100 100 99 99 99 100 99 100 100 98
65 64 63 63 62 60 60 58 55 54 55 68 76 81 80 78 79 81 92 100 100 100 100 99 98 99 99 99 99 100 100 99 99 99 99 99 100 98 98 99 96 97 96
60 60 52 46 50 59 58 51 50 52 53 58 69 89 96 99 92 88 87 91 95 100 100 99 99 99 99 99 99 99 98 98 98 98 97 96 95 97 96 96 95 96 96
43 46 47 49 47 45 44 47 45 45 56 62 70 75 88 100 97 96 99 99 99 99 100 94 100 99 99 99 97 98 96 97 96 96 96 96 96 96 95 94 95 94 70
43 38 37 39 46 56 62 73 74 72 87 95 99 100 100 100 100 100 98 98 97 88 85 84 86 92 94 96 96 94 96 96 96 96 96 96 96 94 94 86 50 10 4
52 46 44 39 38 38 42 54 59 70 94 100 99 100 100 99 99 99 92 92 91 90 95 98 94 92 92 92 93 92 95 96 96 95 94 93 84 41 12 6 4 4 4
66 61 53 48 45 41 38 41 41 45 58 65 71 78 80 87 84 83 93 90 92 95 89 88 90 90 92 93 93 94 94 91 90 88 65 34 13 5 3 4 4 4 4
71 72 65 59 51 47 43 42 47 54 58 68 71 72 71 72 80 87 94 94 93 95 96 94 94 93 95 97 95 88 77 56 28 12 6 4 4 4 4 4 4 4 5
90 77 76 74 70 66 62 64 72 75 74 82 88 86 86 87 91 93 95 96 96 97 97 96 98 96 90 78 57 28 12 6 4 4 4 4 4 4 4 4 5 5 6
100 85 80 81 88 86 81 81 84 86 88 89 91 93 96 95 94 93 94 95 96 96 96 83 64 48 32 17 8 5 4 4 4 4 4 4 4 5 5 5 6 6 6
91 98 98 98 96 92 90 89 91 94 95 96 97 97 96 95 94 94 95 95 93 82 67 55 35 18 8 5 4 4 4 4 4 4 5 5 5 6 6 6 7 7 8
99 99 99 99 98 96 96 97 96 97 96 96 96 95 95 94 94 95 92 79 62 46 39 23 8 6 5 5 5 5 5 5 6 6 6 6 7 7 7 8 8 8 10
98 99 99 98 98 98 99 98 97 96 95 94 93 93 94 95 95 95 92 84 54 21 13 10 8 6 5 6 6 6 6 7 7 7 8 8 9 9 9 10 10 11 12
98 99 99 99 99 99 99 98 97 97 96 96 96 95 95 93 78 50 27 19 18 12 8 6 6 6 6 7 7 8 8 9 9 10 10 10 11 11 12 12 13 13 13
97 97 97 98 98 99 98 97 97 97 96 98 97 94 85 64 41 33 22 12 7 7 7 7 8 8 8 9 9 10 11 11 12 12 13 13 13 14 14 15 15 15 15
98 98 98 98 97 96 96 97 98 97 95 91 82 67 47 26 13 8 7 7 8 8 8 9 9 10 10 11 12 13 14 14 15 15 16 16 16 16 17 17 18 18 18

GFSGL_700_rhum_108.txt.gz
RH
32 30 34 46 61 67 19 20 22 35 57 72 76 74 76 81 98 100 99 100 100 100 100 100 100 99 98 94 93 95 97 92 87 88 95 98 98 98 99 98 99 97 97
36 34 41 56 68 48 18 23 23 34 50 65 72 72 74 82 97 99 100 100 100 99 100 100 100 100 99 99 99 98 99 98 96 87 99 98 98 99 100 99 90 97 91
41 39 48 63 70 20 21 25 23 30 38 58 75 76 83 97 96 100 99 99 100 100 100 100 100 100 99 100 99 100 98 97 96 99 93 99 98 97 96 99 99 99 98
44 43 57 68 47 20 24 27 28 30 38 54 69 81 83 82 92 96 97 97 100 100 100 100 100 99 99 99 99 99 98 96 98 98 98 99 99 98 99 99 98 99 99
42 57 60 65 41 21 25 28 30 31 37 47 55 62 60 69 74 76 84 89 99 100 98 92 98 100 100 98 100 99 100 100 99 98 99 100 100 100 99 100 99 99 99
55 60 65 60 29 23 23 26 29 32 33 35 42 45 51 54 64 69 72 73 78 81 93 99 98 99 98 98 96 98 100 99 99 99 99 99 99 99 99 100 99 99 99
67 71 73 64 34 25 24 24 26 29 32 34 38 38 40 45 48 50 58 63 62 78 98 99 99 100 100 100 98 99 95 96 99 99 99 99 95 100 100 99 99 99 98
99 84 82 84 63 34 25 25 26 26 27 29 31 34 40 45 47 52 56 55 55 63 82 92 97 98 99 100 100 98 98 99 99 99 98 99 98 98 99 100 99 98 98
89 87 86 84 84 80 72 70 71 67 62 59 47 34 30 32 34 44 51 56 69 76 80 82 89 94 88 94 100 100 100 100 99 100 97 100 100 94 94 95 99 99 100
100 100 99 96 96 94 85 80 77 72 75 68 65 64 66 64 54 45 53 54 57 83 88 91 95 98 99 98 100 99 98 97 94 89 97 99 100 100 96 94 98 99 99
97 96 93 100 98 95 85 78 69 66 67 71 72 74 76 77 77 90 83 70 70 65 66 80 95 100 100 100 100 99 100 99 99 99 99 99 100 100 100 100 100 99 99
99 100 95 89 82 75 73 76 76 68 70 71 73 88 89 95 92 94 100 100 100 100 100 99 99 99 99 99 99 99 99 99 99 99 99 98 98 97 97 97 96 96 96
97 99 94 90 84 77 73 69 69 62 58 58 61 71 98 100 100 100 100 100 100 100 100 100 100 100 99 99 99 99 100 100 99 99 98 97 97 96 96 96 96 95 95
62 63 60 57 54 50 48 48 53 56 56 57 67 82 92 98 99 99 100 100 100 100 100 100 99 99 99 99 100 100 100 98 98 97 96 96 95 93 94 94 95 94 95
52 45 39 40 43 52 64 70 70 68 73 86 93 98 100 100 99 99 100 98 97 98 98 93 88 87 90 99 100 100 96 93 92 92 95 97 97 95 95 94 93 86 71
62 55 48 44 44 41 41 44 55 63 87 100 100 100 99 100 99 100 100 95 99 98 94 90 98 98 95 93 91 90 91 90 91 94 95 94 95 91 78 58 32 14 6
78 65 56 52 47 43 40 39 40 45 50 64 72 72 81 86 77 72 70 74 75 83 88 86 84 82 84 85 86 89 92 96 98 100 95 77 48 26 10 4 4 4 4
73 83 72 65 57 53 49 47 47 50 51 54 56 62 69 71 72 75 78 82 84 88 87 87 86 85 90 89 89 93 92 92 74 41 20 9 5 4 4 4 4 4 4
83 82 80 76 72 68 64 61 64 67 72 73 74 77 81 82 82 82 86 87 88 88 90 91 91 90 90 90 88 86 65 32 14 6 4 4 4 4 4 4 4 5 5
62 63 64 68 73 77 77 73 71 74 82 84 85 86 88 88 88 89 89 90 91 92 93 92 88 84 80 70 52 31 18 8 5 5 5 4 4 5 5 5 5 6 6
79 84 87 83 89 88 84 82 84 85 88 91 93 91 91 92 93 94 93 91 88 86 85 79 78 68 55 36 17 8 6 6 5 5 5 5 5 6 6 6 7 7 7
91 92 92 94 95 94 92 93 93 94 94 94 92 93 93 94 93 92 89 87 86 83 69 64 54 33 16 12 8 6 6 6 6 6 6 6 7 7 8 8 8 8 9
93 93 94 94 95 95 96 96 95 95 94 95 96 94 92 90 89 88 88 88 88 84 64 37 20 13 10 7 6 6 6 6 7 7 8 8 8 9 9 10 10 10 11
90 91 92 92 93 95 95 95 95 94 94 94 93 92 92 92 91 90 83 62 34 25 21 14 10 9 7 7 7 7 8 8 8 9 10 10 11 11 11 12 12 12 13
95 94 93 92 92 94 94 94 94 95 95 96 96 96 96 93 81 62 42 39 32 21 12 8 7 7 7 8 8 9 9 10 11 11 12 12 13 14 14 14 15 15 15
96 96 96 96 95 95 95 96 96 98 99 99 96 89 79 72 60 41 24 13 9 8 8 8 8 9 9 10 10 11 12 12 12 13 14 14 15 16 17 17 18 18 18

GFSGL_700_rhum_111.txt.gz
RH
18 33 30 32 32 29 31 47 49 28 18 18 38 68 70 72 75 90 99 95 100 100 98 100 100 100 100 99 99 99 99 97 91 98 100 97 98 95 81 98 96 86 75
29 41 36 38 35 34 43 56 48 17 19 20 53 67 66 69 73 99 100 98 100 99 100 99 100 100 100 99 99 99 100 99 99 98 99 90 89 91 99 99 98 98 90
46 50 42 44 39 43 57 60 24 20 19 27 57 47 58 64 70 76 98 99 100 100 100 100 100 100 100 100 99 100 99 99 95 91 98 98 98 94 90 99 99 99 100
64 57 47 54 53 59 71 52 18 22 21 34 41 43 55 62 67 79 99 100 100 100 100 100 100 100 100 100 100 99 99 99 99 99 99 95 93 99 98 99 99 99 99
92 59 50 65 63 72 69 22 22 25 26 35 34 39 38 49 63 67 84 99 100 100 100 100 100 100 100 100 99 99 99 99 99 99 99 91 96 100 100 100 99 99 98
84 61 54 70 69 73 48 20 25 28 31 36 37 43 43 49 57 64 65 70 82 83 94 98 99 99 99 98 98 100 100 100 100 99 100 91 97 98 99 100 99 98 97
96 87 69 66 70 71 30 22 27 30 34 38 37 41 48 52 52 55 65 70 80 82 83 90 97 88 89 88 96 98 98 99 98 100 99 96 95 99 100 98 100 99 99
100 100 87 72 80 64 27 24 30 34 34 36 38 41 42 45 50 55 56 59 61 71 76 75 90 97 99 100 100 99 99 98 94 98 97 94 97 100 100 100 100 100 99
100 100 99 88 81 74 31 27 31 36 39 37 36 34 35 36 40 41 43 45 53 64 67 63 61 69 94 100 100 99 100 100 100 99 94 100 100 100 100 100 99 98 99
100 100 100 92 95 71 44 31 31 31 30 28 29 30 31 31 32 33 34 35 40 45 53 52 60 72 82 94 98 100 100 99 100 99 99 100 100 100 100 100 100 100 100
100 100 100 100 99 97 96 85 83 84 80 73 69 67 63 63 65 65 63 62 56 54 57 71 91 100 100 100 100 99 100 100 100 100 100 100 99 99 99 99 99 99 99
99 99 100 100 100 100 100 100 96 89 77 90 85 78 76 74 76 89 91 88 88 93 95 97 98 99 100 100 99 99 100 99 99 99 98 99 99 98 98 98 98 97 96
99 98 99 100 98 99 99 100 96 97 93 90 84 75 94 98 98 98 100 99 99 100 99 100 100 100 100 100 100 99 99 98 99 99 99 99 98 98 97 96 94 93 90
95 92 96 99 99 100 100 99 100 98 93 95 86 90 100 100 100 99 100 100 100 100 94 98 100 98 100 100 97 99 100 100 100 99 99 99 96 93 92 90 88 91 96
54 51 46 47 54 66 67 67 67 66 68 71 72 89 100 100 100 100 100 99 100 99 100 95 99 100 99 100 99 100 100 99 98 96 97 91 85 87 87 88 91 94 89
91 78 55 45 40 39 42 56 74 91 99 99 99 100 99 100 100 100 100 100 100 100 96 99 100 100 97 98 100 99 93 89 87 85 84 86 87 90 93 90 76 48 21
77 70 55 48 45 45 43 42 47 60 74 86 99 100 100 98 79 92 90 72 73 72 71 75 82 85 84 83 82 81 82 84 86 86 89 88 87 80 50 23 9 6 5
70 82 75 68 62 57 54 53 53 53 52 56 59 62 65 66 66 64 65 68 68 72 78 80 80 80 81 83 85 86 87 86 86 85 79 54 26 12 9 7 6 5 4
75 83 84 81 79 73 69 69 68 68 69 71 72 73 75 77 76 76 75 81 84 86 86 86 84 84 85 86 87 86 84 82 72 55 37 17 8 6 6 5 5 4 4
73 69 69 66 72 78 81 79 78 81 86 88 90 91 90 89 89 90 90 90 90 89 90 88 88 88 87 82 78 71 58 45 32 16 8 7 7 6 5 5 5 5 5
78 76 80 81 83 87 87 86 86 88 91 93 94 94 95 96 94 93 94 94 94 90 86 83 81 78 78 71 61 49 30 17 12 9 7 6 6 6 6 6 6 6 7
91 92 88 87 88 90 90 92 91 88 88 91 95 95 94 94 93 92 92 92 89 85 83 80 70 58 50 39 25 17 12 9 7 6 6 6 6 7 7 7 7 8 8
95 96 97 97 94 94 94 95 95 95 93 94 95 95 94 92 92 91 90 86 86 83 80 77 70 49 29 17 12 10 7 6 7 7 7 7 8 8 8 9 9 10 10
100 100 100 100 100 99 98 96 95 95 93 93 93 93 94 95 94 93 91 91 85 73 56 33 25 22 18 14 10 8 7 7 8 8 8 9 9 10 10 11 12 12 13
98 99 98 97 97 96 96 95 95 95 94 94 95 96 95 94 94 92 87 71 50 41 41 38 25 14 9 8 7 8 8 8 9 9 10 10 11 12 12 13 14 15 15
96 96 96 96 96 97 98 98 97 96 97 99 98 97 96 93 88 82 77 67 49 35 20 13 10 8 8 8 8 9 9 10 10 11 12 13 14 14 15 15 16 17 18

GFSGL_700_rhum_114.txt.gz
RH
26 25 15 14 24 32 36 44 34 30 35 40 51 20 18 20 53 68 70 86 99 98 98 97 85 99 100 100 99 99 99 98 90 89 97 98 93 89 66 72 60 61 74
26 34 25 25 25 40 40 64 39 34 50 52 35 18 17 30 60 69 74 80 93 90 99 98 100 99 100 99 99 99 99 100 99 98 98 97 100 99 99 99 97 91 92
35 55 47 34 29 45 62 85 37 52 64 55 20 20 18 29 56 66 76 83 96 100 98 100 99 100 99 99 100 99 99 99 99 99 99 94 96 98 99 99 99 98 87
52 78 57 44 42 49 88 59 46 74 75 23 22 20 25 29 54 61 67 78 100 99 98 100 100 100 100 100 100 100 99 99 99 99 99 99 100 98 99 99 99 100 96
99 100 90 65 59 56 84 58 80 87 45 29 24 24 25 32 54 58 70 80 93 99 99 100 99 100 100 100 100 100 99 99 99 99 99 99 98 98 99 99 98 99 99
100 99 100 99 89 100 100 90 100 88 27 37 29 32 32 29 41 57 63 72 87 91 100 100 100 100 100 100 99 99 100 100 99 99 99 99 99 99 99 99 99 99 100
100 99 100 100 100 100 100 92 99 46 34 42 37 38 38 37 36 40 54 59 67 75 81 94 100 100 100 100 100 100 100 100 100 100 100 100 99 100 99 99 100 100 99
100 98 100 100 100 100 100 98 91 36 48 51 48 46 42 39 43 43 44 50 57 66 76 88 99 99 98 99 100 99 92 92 98 99 98 99 99 100 99 99 99 99 99
100 100 98 100 100 100 98 99 47 45 62 60 51 47 40 41 46 45 48 50 59 60 61 62 78 97 95 97 96 94 93 95 97 99 100 100 100 100 99 100 99 99 99
100 100 100 100 100 100 100 72 40 43 42 50 52 49 41 41 47 45 48 51 56 59 61 69 72 89 98 99 100 100 99 100 100 100 100 100 100 100 100 99 97 98 98
99 100 100 100 100 100 82 72 56 43 44 46 45 42 37 36 38 37 38 39 40 42 46 53 63 76 98 100 100 99 98 98 100 100 100 100 100 99 99 98 99 99 99
98 99 99 100 100 100 98 99 88 53 47 45 39 45 55 70 76 74 77 78 86 86 80 77 85 94 98 98 99 100 100 100 99 99 99 99 99 98 98 98 98 98 98
98 98 99 99 99 100 100 100 91 71 95 100 98 90 84 82 94 91 98 92 78 77 87 97 100 99 100 100 100 99 99 99 99 99 99 98 99 99 99 99 98 97 95
96 98 98 98 99 99 99 99 99 100 99 99 88 84 78 69 70 94 100 98 99 100 100 100 100 99 99 100 100 99 100 100 100 100 100 100 99 98 97 96 92 88 83
98 95 93 98 96 96 98 98 99 99 99 99 94 96 98 100 100 100 100 96 96 99 98 99 100 99 100 99 99 99 100 100 100 99 99 98 98 94 87 82 80 81 83
96 97 95 72 60 68 85 98 99 100 95 91 92 97 94 99 99 99 99 100 97 100 99 100 99 100 100 100 99 99 100 100 100 98 92 83 78 78 80 82 84 80 63
95 96 89 88 70 48 46 47 61 59 87 99 100 100 100 100 95 96 94 100 100 95 85 99 93 86 85 85 84 83 81 78 76 77 77 80 81 81 79 66 40 17 10
94 96 88 77 74 71 59 48 44 40 43 53 67 77 83 75 64 62 68 67 63 60 63 67 71 74 77 78 77 78 78 79 80 82 82 81 72 50 28 21 15 10 8
79 76 78 82 80 74 68 62 58 56 56 59 61 63 60 60 62 66 67 69 72 75 76 78 81 83 84 83 82 81 82 81 81 80 73 57 39 23 12 8 8 8 6
70 70 69 70 68 69 68 70 68 69 69 71 74 74 72 71 74 78 79 80 80 80 80 82 83 84 83 84 83 81 78 73 66 59 41 23 11 9 9 8 7 6 6
80 76 71 76 79 80 82 84 83 82 80 80 83 88 89 92 92 91 90 89 87 87 86 84 84 82 80 77 77 72 66 54 36 21 14 12 10 8 7 7 7 7 7
84 87 87 90 93 90 89 92 90 89 88 88 92 95 95 94 95 93 93 92 92 90 86 84 82 77 68 63 63 56 35 21 17 15 12 8 7 7 8 7 8 8 8
91 90 89 91 94 95 96 96 96 96 95 96 96 95 95 94 95 94 91 90 88 85 82 81 80 78 72 55 34 20 14 13 11 9 8 8 8 8 8 8 9 9 9
98 99 98 98 98 97 95 94 94 95 96 96 95 95 94 94 94 93 91 90 89 87 83 75 59 41 34 31 25 18 11 9 8 8 8 8 9 9 9 10 10 10 10
96 97 99 100 100 100 100 99 99 97 95 94 94 94 95 93 92 92 92 92 86 75 62 54 52 47 29 16 11 9 8 8 9 9 9 9 10 10 10 11 12 13 13
98 99 100 99 98 99 98 98 96 96 94 93 92 93 93 92 92 91 90 86 84 78 61 43 25 14 12 9 8 8 9 10 10 10 11 11 11 12 12 13 13 13 14

GFSGL_700_rhum_117.txt.gz
RH
24 22 20 18 14 18 19 20 31 30 29 34 36 37 39 60 46 21 24 55 63 74 85 90 93 89 97 100 100 100 99 100 99 99 97 96 93 84 84 50 54 45 54
29 26 24 24 23 24 26 23 35 44 34 50 41 46 60 63 25 21 35 63 71 74 78 88 87 92 88 97 99 100 100 99 99 98 96 98 96 98 97 96 87 84 97
28 34 32 30 32 49 56 33 39 72 42 63 54 60 71 38 21 29 53 64 73 82 84 86 83 97 97 98 98 99 100 100 99 99 98 99 97 98 99 99 99 99 98
25 38 49 44 60 94 95 45 56 69 67 93 55 79 56 23 26 38 45 56 67 84 93 99 99 96 100 100 98 99 99 99 99 99 99 98 99 99 99 100 99 99 99
40 43 58 54 98 92 76 64 84 98 100 99 72 84 30 27 34 35 56 62 66 79 96 99 99 99 100 100 100 100 100 100 100 99 99 99 98 98 98 99 99 99 98
53 58 61 82 99 100 82 80 98 99 100 100 90 50 37 38 45 40 51 62 66 77 97 99 100 100 100 100 100 100 100 100 100 99 99 99 99 99 99 99 99 99 100
57 53 68 99 99 100 100 89 98 98 98 99 91 40 48 50 50 40 48 59 60 72 95 90 98 100 100 99 99 99 100 99 100 99 99 99 99 99 99 99 99 99 98
53 62 82 100 100 100 92 91 100 99 100 98 59 61 60 53 49 42 42 53 52 59 71 73 79 98 98 100 100 99 100 99 99 99 99 100 99 99 99 99 98 99 99
57 78 100 100 99 100 100 99 98 98 94 100 68 67 61 57 53 50 44 45 42 47 57 65 66 87 92 90 99 100 98 98 100 100 100 97 99 96 93 94 99 97 99
85 97 100 100 100 100 100 100 100 98 98 80 77 75 67 65 54 50 51 51 47 50 51 56 64 83 78 85 97 91 90 90 90 92 90 84 84 90 94 99 99 99 99
98 95 99 100 100 100 100 100 100 100 99 99 74 79 84 80 62 57 51 50 51 54 56 62 74 80 85 93 95 97 99 99 99 99 98 99 98 97 97 98 98 98 98
98 96 98 99 99 100 100 100 100 100 100 96 100 97 98 76 88 69 50 48 45 45 49 54 66 81 89 92 99 93 100 99 96 97 99 99 99 98 99 99 99 99 99
96 97 97 98 99 99 100 100 100 100 99 100 100 100 75 89 76 68 84 89 84 81 83 90 100 100 100 99 99 100 100 99 99 99 99 99 100 100 99 99 99 98 98
88 94 98 98 99 99 99 99 99 100 96 98 91 75 60 93 100 100 98 98 100 97 89 97 95 95 99 100 100 100 99 100 100 98 100 100 100 100 100 100 100 98 93
96 95 95 98 98 98 98 98 99 99 99 98 98 98 100 100 100 100 100 100 100 98 99 100 99 98 99 91 100 100 99 99 99 99 100 100 99 98 98 96 92 82 77
84 96 96 96 98 97 98 99 98 98 98 98 98 98 99 100 100 100 98 93 95 96 99 99 99 99 99 99 100 99 100 100 100 100 99 100 99 93 83 76 75 75 74
95 92 92 96 96 96 98 96 98 98 99 98 98 99 99 93 94 99 98 99 96 97 90 95 100 100 100 100 100 98 94 92 92 88 83 79 76 76 77 77 75 66 41
77 90 95 91 92 92 93 94 95 96 93 96 98 99 100 99 96 85 81 91 95 85 74 68 70 73 74 75 76 77 76 77 78 78 79 81 80 79 72 61 49 35 22
73 68 74 86 90 90 83 79 77 82 82 85 84 90 89 87 86 81 76 75 69 67 70 71 71 73 76 78 81 82 82 83 82 82 82 80 73 62 52 44 25 16 16
71 77 82 89 87 89 86 84 84 84 85 86 83 80 80 74 70 72 77 75 71 75 76 76 77 79 82 84 86 87 85 81 78 74 68 62 52 39 25 19 17 15 10
84 86 83 85 91 93 94 94 94 95 92 88 86 86 84 86 85 83 83 82 82 83 83 83 80 80 80 81 80 78 77 74 70 63 49 35 23 17 16 12 8 7 7
88 95 100 100 98 93 94 94 96 98 97 95 94 92 89 89 89 87 86 85 84 84 83 82 81 80 80 80 76 71 66 64 54 35 25 24 17 11 9 8 8 8 8
82 87 91 94 97 98 99 99 98 98 97 97 94 93 92 90 90 89 88 87 85 83 82 82 82 81 79 78 76 62 43 32 27 25 17 13 10 8 8 8 9 9 9
88 91 93 94 94 96 95 94 96 97 97 97 96 95 94 93 91 90 90 90 89 87 87 86 82 73 60 48 44 46 44 30 19 13 9 8 8 8 9 9 10 10 10
94 95 95 95 96 95 96 94 94 93 95 96 98 98 96 95 93 92 92 91 90 88 83 74 66 62 61 57 43 25 17 13 11 9 9 9 10 10 10 10 11 11 11
96 96 97 97 94 92 92 93 92 92 94 95 96 97 97 94 93 93 93 91 88 86 82 70 60 41 31 22 17 12 10 9 10 10 11 11 11 11 11 12 12 13 13

GFSGL_700_rhum_120.txt.gz
RH
22 17 15 14 16 14 14 14 14 24 42 18 23 32 68 35 33 41 44 58 41 26 59 71 83 100 100 100 93 100 100 100 100 100 100 99 99 98 98 90 45 51 42
19 24 25 27 26 17 18 22 21 31 54 22 24 28 82 47 40 45 49 63 26 28 64 79 92 100 100 94 87 96 100 100 100 100 99 99 99 98 97 97 94 86 60
15 26 28 26 26 24 26 30 28 34 39 27 24 40 44 97 51 57 61 41 26 42 69 87 91 97 99 93 88 96 98 100 100 100 100 99 99 98 97 96 96 97 97
19 26 22 26 31 31 34 39 80 58 87 35 29 62 100 98 62 70 67 26 25 43 68 88 91 96 87 90 100 100 100 100 100 99 99 99 99 98 99 99 99 99 99
22 22 25 32 35 42 49 51 100 100 100 53 53 88 92 99 75 80 44 23 29 50 66 95 93 95 97 100 100 100 100 100 100 99 99 98 98 98 96 98 99 99 99
28 26 29 25 35 53 60 87 99 100 98 68 84 90 99 98 92 54 27 26 33 59 78 100 99 97 100 95 100 100 100 99 100 99 99 99 99 99 99 99 99 99 99
35 39 35 36 40 54 60 97 100 98 87 93 89 87 98 100 82 38 26 28 40 57 76 100 100 99 100 100 99 100 99 100 100 100 99 99 99 99 99 99 99 99 99
44 38 35 37 39 60 95 96 99 99 76 68 94 95 90 95 61 33 32 36 41 57 90 90 94 100 99 100 100 100 99 99 99 100 99 99 99 99 99 99 99 99 99
45 43 44 41 52 73 95 98 99 98 82 85 72 100 99 92 48 39 43 41 40 52 62 76 80 89 93 99 100 100 100 99 99 100 99 99 100 99 99 100 100 100 99
61 55 61 72 86 100 100 97 89 99 83 100 100 99 100 76 55 56 54 48 45 49 55 59 69 63 80 97 100 100 99 100 100 99 100 100 100 100 100 98 100 100 100
76 80 80 79 92 100 100 98 97 93 91 100 99 98 99 70 71 67 57 59 56 54 56 56 61 64 69 76 84 98 100 100 100 98 94 94 97 91 87 84 87 97 99
79 80 90 87 87 99 100 100 98 100 99 98 98 89 92 95 94 80 68 67 62 64 67 64 67 69 67 73 92 96 90 100 100 100 100 100 98 97 99 98 98 99 99
86 84 83 92 90 89 99 99 100 100 100 99 98 100 98 99 100 99 98 79 61 56 57 66 73 78 86 81 83 90 93 91 92 97 98 98 99 100 99 99 99 99 99
80 88 90 94 95 96 98 99 100 100 100 100 98 100 98 96 95 100 99 99 70 67 71 96 100 99 99 98 100 96 95 91 100 100 99 94 98 99 98 99 99 99 99
64 79 91 94 96 97 98 98 99 100 100 99 100 99 99 98 99 99 98 91 98 100 99 100 100 100 100 99 100 100 100 99 99 100 99 100 100 99 99 99 99 97 97
87 76 80 90 96 97 97 98 98 98 99 99 99 99 99 99 99 96 95 100 100 100 100 99 99 98 99 95 98 99 98 100 100 99 99 99 100 99 98 99 96 86 77
69 88 88 86 92 93 97 97 97 97 98 98 98 98 99 98 97 98 99 98 98 99 99 99 99 99 99 98 98 99 99 99 99 99 100 99 97 90 82 76 77 78 77
68 61 87 94 94 92 92 93 96 98 97 98 97 97 98 97 98 98 96 97 97 98 100 97 98 98 97 98 97 95 89 87 84 80 78 76 75 76 78 78 74 66 58
69 68 68 78 90 93 93 91 92 91 90 93 96 97 98 93 94 95 94 98 91 76 76 74 72 71 72 76 76 76 77 77 77 79 80 79 79 78 74 66 57 46 30
74 78 80 84 86 85 86 88 90 92 91 88 87 87 88 86 90 97 98 93 87 85 87 87 87 87 87 85 83 83 84 83 82 81 78 76 73 68 61 50 38 32 27
83 87 90 88 87 91 97 98 96 95 95 95 94 96 97 95 93 92 92 94 94 92 89 88 88 88 87 85 83 81 79 77 76 75 71 65 56 49 44 35 30 27 17
88 94 94 95 96 95 95 95 97 97 97 96 97 95 94 93 92 92 93 93 91 90 88 87 85 84 82 81 79 78 74 71 69 67 63 55 46 38 32 23 15 10 8
88 94 97 97 98 100 100 100 100 99 97 96 96 96 94 95 95 94 92 92 91 88 86 84 83 81 79 78 77 77 76 71 62 51 39 30 25 22 17 11 8 8 9
93 94 96 97 98 99 100 100 100 100 99 98 97 95 95 95 94 91 91 90 90 89 87 86 86 84 82 78 73 65 54 49 47 40 30 20 14 10 9 8 9 9 10
95 97 99 99 100 100 99 100 99 98 97 97 96 96 95 96 96 94 94 92 91 90 88 85 81 76 68 60 55 53 50 38 24 17 13 11 9 9 10 10 11 11 11
96 97 98 100 100 100 99 99 100 99 98 97 98 97 98 98 100 98 96 95 93 89 85 82 80 75 64 51 38 30 24 19 14 11 10 10 10 11 11 12 11 12 12

GFSGL_700_rhum_123.txt.gz
RH
66 54 48 42 38 35 33 30 18 15 12 12 13 16 16 16 19 25 35 39 38 43 54 54 54 30 60 80 94 92 100 100 99 100 100 100 100 100 99 99 98 95 41
57 47 36 33 26 18 18 18 13 11 13 15 14 15 16 22 19 27 71 39 42 44 50 65 36 30 62 77 98 100 99 95 99 99 100 99 100 99 99 98 100 99 72
27 22 21 16 15 19 23 23 21 20 18 16 18 17 20 27 21 56 94 51 43 49 53 58 31 39 67 77 100 100 98 97 100 100 100 100 100 99 99 99 98 98 72
22 20 18 13 16 19 20 20 22 22 25 24 24 24 26 25 28 74 84 96 58 57 61 42 30 45 70 82 99 100 95 94 100 100 100 100 99 99 99 99 99 99 98
17 15 15 17 18 16 20 23 25 33 33 37 36 30 30 32 45 82 94 98 72 64 61 32 29 41 74 91 96 90 100 100 99 99 100 99 98 99 98 98 99 99 99
23 18 17 16 16 17 17 17 26 42 53 95 100 58 76 54 77 78 100 100 76 69 45 30 31 58 80 98 100 100 100 100 100 100 99 99 99 99 99 99 98 99 99
38 36 30 22 20 18 16 20 36 53 64 81 100 99 96 63 92 84 89 96 85 58 34 29 38 67 90 98 100 100 100 100 99 99 100 99 97 98 99 99 99 99 99
47 45 42 38 33 28 22 27 36 64 79 99 100 98 92 66 83 85 99 88 76 38 33 29 43 65 79 91 94 99 100 100 99 99 98 99 99 99 99 99 100 99 99
53 51 50 43 39 36 35 35 50 80 95 99 99 100 99 91 86 100 94 92 56 41 33 35 39 46 90 100 99 97 98 100 99 98 99 99 99 99 99 99 99 99 99
57 52 56 55 52 51 47 51 80 86 98 96 88 92 90 98 94 100 98 90 55 43 36 44 42 46 83 97 100 100 100 99 100 99 100 100 99 99 99 99 99 99 98
59 60 59 63 63 58 64 81 98 100 95 86 92 78 100 100 99 99 100 78 56 48 42 52 45 56 71 90 94 100 100 99 99 100 100 100 99 99 99 99 99 99 99
59 65 62 65 62 64 70 89 100 99 97 100 99 79 98 98 99 100 99 81 65 61 52 54 48 48 54 69 79 93 98 100 99 100 99 100 100 100 100 100 99 98 98
53 62 70 70 71 66 77 84 99 99 99 100 99 100 100 100 100 100 98 89 75 67 67 57 61 68 71 83 80 82 89 92 100 98 98 98 97 98 97 99 99 99 99
44 60 64 78 83 70 83 96 99 100 100 100 100 99 100 99 100 99 100 95 76 76 69 83 89 89 90 94 91 94 100 100 100 100 98 99 99 96 98 99 99 99 99
45 66 77 75 90 85 87 94 96 98 99 100 99 99 100 99 100 100 100 98 99 99 80 76 94 99 92 94 99 100 100 100 100 100 99 100 100 99 98 97 99 99 100
49 60 85 83 82 94 95 95 97 97 97 97 98 99 99 99 99 99 99 99 99 97 99 98 100 99 100 99 100 100 100 99 99 99 99 99 99 99 99 99 98 98 96
52 55 68 93 90 91 96 96 96 96 96 97 97 97 98 99 98 98 99 99 99 99 99 99 99 99 98 99 99 99 99 98 98 98 98 98 98 97 97 97 97 88 79
58 63 68 79 96 99 98 95 96 96 96 97 97 97 97 97 98 98 98 98 98 98 98 98 98 99 98 98 97 98 97 97 98 97 97 97 97 94 87 80 76 76 76
63 67 76 80 86 94 98 99 98 96 96 96 96 96 96 96 97 96 96 96 97 97 97 97 97 97 97 96 96 98 99 93 88 84 81 79 80 80 78 78 76 72 67
69 72 76 85 89 91 95 96 98 100 100 99 98 96 96 96 96 96 96 97 96 96 95 90 86 87 90 91 90 88 86 84 81 80 81 83 83 79 75 70 67 60 50
74 77 86 88 91 94 93 93 93 93 93 94 94 95 94 93 94 94 92 90 90 90 89 86 87 90 90 88 88 86 85 85 83 80 78 75 74 72 64 57 51 42 36
85 87 86 90 93 93 95 95 95 94 93 93 92 88 87 89 89 89 89 88 88 88 87 86 87 88 87 84 82 80 78 77 76 74 70 66 63 58 50 43 37 30 23
93 95 96 94 93 93 94 95 94 93 93 93 94 94 94 92 90 88 87 88 89 88 87 85 85 83 80 78 77 75 73 72 72 70 67 57 48 38 32 28 26 20 12
94 96 96 96 96 97 96 95 95 95 94 92 92 93 92 92 91 91 90 89 88 87 86 85 84 83 82 81 81 80 75 66 53 42 42 41 39 32 23 14 11 9 9
96 99 99 97 96 96 95 94 94 93 93 93 93 93 94 94 93 92 92 91 89 88 87 86 86 84 80 74 66 60 50 46 47 46 39 28 18 13 11 10 9 10 11
96 97 97 98 99 98 96 96 97 98 98 97 98 97 96 97 97 96 98 97 95 94 92 89 86 81 76 72 66 59 52 45 33 26 20 17 12 10 10 11 12 12 12